Wetterdaten: Donnerstag, 07.06.2018
Datum Zeit Temp. A. Feuchte A. Luftdruck Regen Wind Richtung Richtung Sonnenschein ET UV Solar Taupunkt Windchill Windböen
07.06.2018 00:00 14,7 °C 90 % 1011,3 hPa 0,0 mm 0,0 km/h (0 Bft) S-SW 202 ° 0 min 0,000 mm 0,0 UV-I 0 W/m² 13,1 °C 14,7 °C 0,0 km/h (0 Bft)
07.06.2018 00:01 14,7 °C 90 % 1011,3 hPa 0,0 mm 1,1 km/h (1 Bft) S-SW 203 ° 0 min 0,000 mm 0,0 UV-I 0 W/m² 13,1 °C 14,7 °C 4,8 km/h (1 Bft)
07.06.2018 00:02 14,7 °C 90 % 1011,3 hPa 0,0 mm 2,0 km/h (1 Bft) S-SW 203 ° 0 min 0,000 mm 0,0 UV-I 0 W/m² 13,1 °C 14,7 °C 4,8 km/h (1 Bft)
07.06.2018 00:03 14,7 °C 90 % 1011,3 hPa 0,0 mm 3,2 km/h (1 Bft) S 188 ° 0 min 0,000 mm 0,0 UV-I 0 W/m² 13,1 °C 14,7 °C 4,8 km/h (1 Bft)
07.06.2018 00:04 14,8 °C 90 % 1011,3 hPa 0,0 mm 3,0 km/h (1 Bft) S 173 ° 0 min 0,000 mm 0,0 UV-I 0 W/m² 13,2 °C 14,8 °C 4,8 km/h (1 Bft)
07.06.2018 00:05 14,8 °C 90 % 1011,3 hPa 0,0 mm 0,2 km/h (0 Bft) S 173 ° 0 min 0,000 mm 0,0 UV-I 0 W/m² 13,2 °C 14,8 °C 3,2 km/h (1 Bft)
07.06.2018 00:06 14,8 °C 90 % 1011,3 hPa 0,0 mm 0,0 km/h (0 Bft) S 173 ° 0 min 0,000 mm 0,0 UV-I 0 W/m² 13,2 °C 14,8 °C 0,0 km/h (0 Bft)
07.06.2018 00:07 14,8 °C 90 % 1011,3 hPa 0,0 mm 0,0 km/h (0 Bft) S 173 ° 0 min 0,000 mm 0,0 UV-I 0 W/m² 13,2 °C 14,8 °C 0,0 km/h (0 Bft)
07.06.2018 00:08 14,8 °C 90 % 1011,3 hPa 0,0 mm 0,0 km/h (0 Bft) S 173 ° 0 min 0,000 mm 0,0 UV-I 0 W/m² 13,2 °C 14,8 °C 0,0 km/h (0 Bft)
07.06.2018 00:09 14,7 °C 90 % 1011,4 hPa 0,0 mm 0,0 km/h (0 Bft) S 173 ° 0 min 0,000 mm 0,0 UV-I 0 W/m² 13,1 °C 14,7 °C 0,0 km/h (0 Bft)
07.06.2018 00:10 14,7 °C 90 % 1011,4 hPa 0,0 mm 0,0 km/h (0 Bft) S 173 ° 0 min 0,000 mm 0,0 UV-I 0 W/m² 13,1 °C 14,7 °C 0,0 km/h (0 Bft)
07.06.2018 00:11 14,6 °C 90 % 1011,4 hPa 0,0 mm 0,0 km/h (0 Bft) S 173 ° 0 min 0,000 mm 0,0 UV-I 0 W/m² 13,0 °C 14,6 °C 0,0 km/h (0 Bft)
07.06.2018 00:12 14,6 °C 90 % 1011,4 hPa 0,0 mm 0,1 km/h (0 Bft) S 173 ° 0 min 0,000 mm 0,0 UV-I 0 W/m² 13,0 °C 14,6 °C 1,6 km/h (1 Bft)
07.06.2018 00:13 14,6 °C 90 % 1011,4 hPa 0,0 mm 0,0 km/h (0 Bft) S 173 ° 0 min 0,000 mm 0,0 UV-I 0 W/m² 13,0 °C 14,6 °C 0,0 km/h (0 Bft)
07.06.2018 00:14 14,4 °C 90 % 1011,4 hPa 0,0 mm 0,0 km/h (0 Bft) S 173 ° 0 min 0,000 mm 0,0 UV-I 0 W/m² 12,8 °C 14,4 °C 0,0 km/h (0 Bft)
07.06.2018 00:15 14,4 °C 90 % 1011,4 hPa 0,0 mm 0,0 km/h (0 Bft) S 173 ° 0 min 0,000 mm 0,0 UV-I 0 W/m² 12,8 °C 14,4 °C 0,0 km/h (0 Bft)
07.06.2018 00:16 14,4 °C 90 % 1011,4 hPa 0,0 mm 0,3 km/h (0 Bft) S 173 ° 0 min 0,000 mm 0,0 UV-I 0 W/m² 12,8 °C 14,4 °C 1,6 km/h (1 Bft)
07.06.2018 00:17 14,4 °C 91 % 1011,4 hPa 0,0 mm 1,0 km/h (0 Bft) S 173 ° 0 min 0,000 mm 0,0 UV-I 0 W/m² 12,9 °C 14,4 °C 1,6 km/h (1 Bft)
07.06.2018 00:18 14,3 °C 91 % 1011,3 hPa 0,0 mm 0,0 km/h (0 Bft) S 173 ° 0 min 0,000 mm 0,0 UV-I 0 W/m² 12,8 °C 14,3 °C 0,0 km/h (0 Bft)
07.06.2018 00:19 14,3 °C 91 % 1011,3 hPa 0,0 mm 0,0 km/h (0 Bft) S 173 ° 0 min 0,000 mm 0,0 UV-I 0 W/m² 12,8 °C 14,3 °C 0,0 km/h (0 Bft)
07.06.2018 00:20 14,3 °C 90 % 1011,3 hPa 0,0 mm 0,0 km/h (0 Bft) S 173 ° 0 min 0,000 mm 0,0 UV-I 0 W/m² 12,7 °C 14,3 °C 0,0 km/h (0 Bft)
07.06.2018 00:21 14,3 °C 90 % 1011,3 hPa 0,0 mm 0,0 km/h (0 Bft) S 173 ° 0 min 0,000 mm 0,0 UV-I 0 W/m² 12,7 °C 14,3 °C 0,0 km/h (0 Bft)
07.06.2018 00:22 14,2 °C 90 % 1011,4 hPa 0,0 mm 0,0 km/h (0 Bft) S 173 ° 0 min 0,000 mm 0,0 UV-I 0 W/m² 12,6 °C 14,2 °C 0,0 km/h (0 Bft)
07.06.2018 00:23 14,2 °C 90 % 1011,4 hPa 0,0 mm 0,0 km/h (0 Bft) S 173 ° 0 min 0,000 mm 0,0 UV-I 0 W/m² 12,6 °C 14,2 °C 0,0 km/h (0 Bft)
07.06.2018 00:24 14,1 °C 91 % 1011,3 hPa 0,0 mm 0,0 km/h (0 Bft) S 173 ° 0 min 0,000 mm 0,0 UV-I 0 W/m² 12,7 °C 14,1 °C 0,0 km/h (0 Bft)
07.06.2018 00:25 14,1 °C 91 % 1011,3 hPa 0,0 mm 0,0 km/h (0 Bft) S 173 ° 0 min 0,000 mm 0,0 UV-I 0 W/m² 12,7 °C 14,1 °C 0,0 km/h (0 Bft)
07.06.2018 00:26 14,1 °C 91 % 1011,3 hPa 0,0 mm 0,0 km/h (0 Bft) S 173 ° 0 min 0,000 mm 0,0 UV-I 0 W/m² 12,7 °C 14,1 °C 0,0 km/h (0 Bft)
07.06.2018 00:27 14,0 °C 91 % 1011,3 hPa 0,0 mm 0,0 km/h (0 Bft) S 173 ° 0 min 0,000 mm 0,0 UV-I 0 W/m² 12,6 °C 14,0 °C 0,0 km/h (0 Bft)
07.06.2018 00:28 14,0 °C 91 % 1011,3 hPa 0,0 mm 0,0 km/h (0 Bft) S 173 ° 0 min 0,000 mm 0,0 UV-I 0 W/m² 12,6 °C 14,0 °C 0,0 km/h (0 Bft)
07.06.2018 00:29 13,9 °C 91 % 1011,3 hPa 0,0 mm 0,0 km/h (0 Bft) S 173 ° 0 min 0,000 mm 0,0 UV-I 0 W/m² 12,5 °C 13,9 °C 0,0 km/h (0 Bft)
07.06.2018 00:30 14,0 °C 91 % 1011,3 hPa 0,0 mm 0,3 km/h (0 Bft) S 173 ° 0 min 0,000 mm 0,0 UV-I 0 W/m² 12,6 °C 14,0 °C 1,6 km/h (1 Bft)
07.06.2018 00:31 13,9 °C 91 % 1011,3 hPa 0,0 mm 0,8 km/h (0 Bft) S 173 ° 0 min 0,000 mm 0,0 UV-I 0 W/m² 12,5 °C 13,9 °C 3,2 km/h (1 Bft)
07.06.2018 00:32 13,9 °C 91 % 1011,3 hPa 0,0 mm 0,3 km/h (0 Bft) S 173 ° 0 min 0,000 mm 0,0 UV-I 0 W/m² 12,5 °C 13,9 °C 1,6 km/h (1 Bft)
07.06.2018 00:33 13,9 °C 91 % 1011,3 hPa 0,0 mm 0,0 km/h (0 Bft) S 173 ° 0 min 0,000 mm 0,0 UV-I 0 W/m² 12,5 °C 13,9 °C 0,0 km/h (0 Bft)
07.06.2018 00:34 13,9 °C 91 % 1011,3 hPa 0,0 mm 0,1 km/h (0 Bft) S 173 ° 0 min 0,000 mm 0,0 UV-I 0 W/m² 12,5 °C 13,9 °C 1,6 km/h (1 Bft)
07.06.2018 00:35 13,9 °C 91 % 1011,3 hPa 0,0 mm 1,3 km/h (1 Bft) S 173 ° 0 min 0,000 mm 0,0 UV-I 0 W/m² 12,5 °C 13,9 °C 3,2 km/h (1 Bft)
07.06.2018 00:36 13,9 °C 91 % 1011,3 hPa 0,0 mm 1,7 km/h (1 Bft) S 173 ° 0 min 0,000 mm 0,0 UV-I 0 W/m² 12,5 °C 13,9 °C 3,2 km/h (1 Bft)
07.06.2018 00:37 13,9 °C 91 % 1011,3 hPa 0,0 mm 1,7 km/h (1 Bft) S 173 ° 0 min 0,000 mm 0,0 UV-I 0 W/m² 12,5 °C 13,9 °C 3,2 km/h (1 Bft)
07.06.2018 00:38 13,9 °C 91 % 1011,2 hPa 0,0 mm 1,9 km/h (1 Bft) S 173 ° 0 min 0,000 mm 0,0 UV-I 0 W/m² 12,5 °C 13,9 °C 3,2 km/h (1 Bft)
07.06.2018 00:39 13,9 °C 91 % 1011,2 hPa 0,0 mm 0,7 km/h (0 Bft) S 173 ° 0 min 0,000 mm 0,0 UV-I 0 W/m² 12,5 °C 13,9 °C 3,2 km/h (1 Bft)
07.06.2018 00:40 13,9 °C 91 % 1011,2 hPa 0,0 mm 1,2 km/h (1 Bft) S 173 ° 0 min 0,000 mm 0,0 UV-I 0 W/m² 12,5 °C 13,9 °C 3,2 km/h (1 Bft)
07.06.2018 00:41 13,9 °C 91 % 1011,2 hPa 0,0 mm 2,2 km/h (1 Bft) S 173 ° 0 min 0,000 mm 0,0 UV-I 0 W/m² 12,5 °C 13,9 °C 4,8 km/h (1 Bft)
07.06.2018 00:42 13,9 °C 91 % 1011,2 hPa 0,0 mm 1,9 km/h (1 Bft) S 173 ° 0 min 0,000 mm 0,0 UV-I 0 W/m² 12,5 °C 13,9 °C 4,8 km/h (1 Bft)
07.06.2018 00:43 13,8 °C 91 % 1011,1 hPa 0,0 mm 1,5 km/h (1 Bft) S 173 ° 0 min 0,000 mm 0,0 UV-I 0 W/m² 12,4 °C 13,8 °C 3,2 km/h (1 Bft)
07.06.2018 00:44 13,8 °C 91 % 1011,2 hPa 0,0 mm 0,8 km/h (0 Bft) S 173 ° 0 min 0,000 mm 0,0 UV-I 0 W/m² 12,4 °C 13,8 °C 3,2 km/h (1 Bft)
07.06.2018 00:45 13,8 °C 91 % 1011,2 hPa 0,0 mm 0,7 km/h (0 Bft) S 173 ° 0 min 0,000 mm 0,0 UV-I 0 W/m² 12,4 °C 13,8 °C 1,6 km/h (1 Bft)
07.06.2018 00:46 13,7 °C 91 % 1011,1 hPa 0,0 mm 0,6 km/h (0 Bft) S 173 ° 0 min 0,000 mm 0,0 UV-I 0 W/m² 12,3 °C 13,7 °C 1,6 km/h (1 Bft)
07.06.2018 00:47 13,7 °C 91 % 1011,2 hPa 0,0 mm 0,4 km/h (0 Bft) S 173 ° 0 min 0,000 mm 0,0 UV-I 0 W/m² 12,3 °C 13,7 °C 1,6 km/h (1 Bft)
07.06.2018 00:48 13,6 °C 91 % 1011,2 hPa 0,0 mm 0,0 km/h (0 Bft) S 173 ° 0 min 0,000 mm 0,0 UV-I 0 W/m² 12,2 °C 13,6 °C 0,0 km/h (0 Bft)
07.06.2018 00:49 13,6 °C 91 % 1011,1 hPa 0,0 mm 0,0 km/h (0 Bft) S 173 ° 0 min 0,000 mm 0,0 UV-I 0 W/m² 12,2 °C 13,6 °C 0,0 km/h (0 Bft)
07.06.2018 00:50 13,6 °C 91 % 1011,1 hPa 0,0 mm 0,0 km/h (0 Bft) S 173 ° 0 min 0,000 mm 0,0 UV-I 0 W/m² 12,2 °C 13,6 °C 0,0 km/h (0 Bft)
07.06.2018 00:51 13,6 °C 91 % 1011,1 hPa 0,0 mm 0,0 km/h (0 Bft) S 173 ° 0 min 0,000 mm 0,0 UV-I 0 W/m² 12,2 °C 13,6 °C 0,0 km/h (0 Bft)
07.06.2018 00:52 13,6 °C 92 % 1011,1 hPa 0,0 mm 0,0 km/h (0 Bft) S 173 ° 0 min 0,000 mm 0,0 UV-I 0 W/m² 12,3 °C 13,6 °C 0,0 km/h (0 Bft)
07.06.2018 00:53 13,6 °C 92 % 1011,1 hPa 0,0 mm 0,0 km/h (0 Bft) S 173 ° 0 min 0,000 mm 0,0 UV-I 0 W/m² 12,3 °C 13,6 °C 0,0 km/h (0 Bft)
07.06.2018 00:54 13,5 °C 92 % 1011,0 hPa 0,0 mm 0,0 km/h (0 Bft) S 173 ° 0 min 0,000 mm 0,0 UV-I 0 W/m² 12,2 °C 13,5 °C 0,0 km/h (0 Bft)
07.06.2018 00:55 13,4 °C 92 % 1011,0 hPa 0,0 mm 0,4 km/h (0 Bft) S 173 ° 0 min 0,000 mm 0,0 UV-I 0 W/m² 12,1 °C 13,4 °C 1,6 km/h (1 Bft)
07.06.2018 00:56 13,5 °C 92 % 1011,0 hPa 0,0 mm 0,7 km/h (0 Bft) S 173 ° 0 min 0,000 mm 0,0 UV-I 0 W/m² 12,2 °C 13,5 °C 1,6 km/h (1 Bft)
07.06.2018 00:57 13,5 °C 92 % 1011,0 hPa 0,0 mm 1,5 km/h (1 Bft) S 173 ° 0 min 0,000 mm 0,0 UV-I 0 W/m² 12,2 °C 13,5 °C 3,2 km/h (1 Bft)
07.06.2018 00:58 13,5 °C 92 % 1011,0 hPa 0,0 mm 2,9 km/h (1 Bft) S 173 ° 0 min 0,000 mm 0,0 UV-I 0 W/m² 12,2 °C 13,5 °C 3,2 km/h (1 Bft)
07.06.2018 00:59 13,5 °C 92 % 1011,0 hPa 0,0 mm 1,9 km/h (1 Bft) S 173 ° 0 min 0,000 mm 0,0 UV-I 0 W/m² 12,2 °C 13,5 °C 3,2 km/h (1 Bft)
07.06.2018 01:00 13,4 °C 92 % 1011,0 hPa 0,0 mm 1,9 km/h (1 Bft) S 173 ° 0 min 0,000 mm 0,0 UV-I 0 W/m² 12,1 °C 13,4 °C 3,2 km/h (1 Bft)
07.06.2018 01:01 13,4 °C 92 % 1010,9 hPa 0,0 mm 0,9 km/h (0 Bft) S 173 ° 0 min 0,000 mm 0,0 UV-I 0 W/m² 12,1 °C 13,4 °C 3,2 km/h (1 Bft)
07.06.2018 01:02 13,4 °C 92 % 1010,9 hPa 0,0 mm 0,3 km/h (0 Bft) S 173 ° 0 min 0,000 mm 0,0 UV-I 0 W/m² 12,1 °C 13,4 °C 1,6 km/h (1 Bft)
07.06.2018 01:03 13,4 °C 92 % 1010,9 hPa 0,0 mm 1,0 km/h (0 Bft) S 173 ° 0 min 0,000 mm 0,0 UV-I 0 W/m² 12,1 °C 13,4 °C 3,2 km/h (1 Bft)
07.06.2018 01:04 13,4 °C 92 % 1010,9 hPa 0,0 mm 0,1 km/h (0 Bft) S 173 ° 0 min 0,000 mm 0,0 UV-I 0 W/m² 12,1 °C 13,4 °C 1,6 km/h (1 Bft)
07.06.2018 01:05 13,4 °C 92 % 1010,9 hPa 0,0 mm 0,3 km/h (0 Bft) S 173 ° 0 min 0,000 mm 0,0 UV-I 0 W/m² 12,1 °C 13,4 °C 1,6 km/h (1 Bft)
07.06.2018 01:06 13,4 °C 92 % 1010,9 hPa 0,0 mm 0,1 km/h (0 Bft) S 173 ° 0 min 0,000 mm 0,0 UV-I 0 W/m² 12,1 °C 13,4 °C 1,6 km/h (1 Bft)
07.06.2018 01:07 13,5 °C 92 % 1010,9 hPa 0,0 mm 0,0 km/h (0 Bft) S 173 ° 0 min 0,000 mm 0,0 UV-I 0 W/m² 12,2 °C 13,5 °C 0,0 km/h (0 Bft)
07.06.2018 01:08 13,5 °C 92 % 1010,8 hPa 0,0 mm 0,0 km/h (0 Bft) S 173 ° 0 min 0,000 mm 0,0 UV-I 0 W/m² 12,2 °C 13,5 °C 0,0 km/h (0 Bft)
07.06.2018 01:09 13,6 °C 92 % 1010,8 hPa 0,0 mm 0,0 km/h (0 Bft) S 173 ° 0 min 0,000 mm 0,0 UV-I 0 W/m² 12,3 °C 13,6 °C 0,0 km/h (0 Bft)
07.06.2018 01:10 13,6 °C 92 % 1010,8 hPa 0,0 mm 0,0 km/h (0 Bft) S 173 ° 0 min 0,000 mm 0,0 UV-I 0 W/m² 12,3 °C 13,6 °C 0,0 km/h (0 Bft)
07.06.2018 01:11 13,6 °C 92 % 1010,8 hPa 0,0 mm 0,0 km/h (0 Bft) S 173 ° 0 min 0,000 mm 0,0 UV-I 0 W/m² 12,3 °C 13,6 °C 0,0 km/h (0 Bft)
07.06.2018 01:12 13,6 °C 92 % 1010,8 hPa 0,0 mm 0,0 km/h (0 Bft) S 173 ° 0 min 0,000 mm 0,0 UV-I 0 W/m² 12,3 °C 13,6 °C 0,0 km/h (0 Bft)
07.06.2018 01:13 13,7 °C 92 % 1010,8 hPa 0,0 mm 0,0 km/h (0 Bft) S 173 ° 0 min 0,000 mm 0,0 UV-I 0 W/m² 12,4 °C 13,7 °C 0,0 km/h (0 Bft)
07.06.2018 01:14 13,6 °C 92 % 1010,8 hPa 0,0 mm 0,4 km/h (0 Bft) S 173 ° 0 min 0,000 mm 0,0 UV-I 0 W/m² 12,3 °C 13,6 °C 1,6 km/h (1 Bft)
07.06.2018 01:15 13,6 °C 92 % 1010,8 hPa 0,0 mm 0,0 km/h (0 Bft) S 173 ° 0 min 0,000 mm 0,0 UV-I 0 W/m² 12,3 °C 13,6 °C 0,0 km/h (0 Bft)
07.06.2018 01:16 13,6 °C 91 % 1011,0 hPa 0,0 mm 0,6 km/h (0 Bft) S 173 ° 0 min 0,000 mm 0,0 UV-I 0 W/m² 12,2 °C 13,6 °C 1,6 km/h (1 Bft)
07.06.2018 01:17 13,6 °C 91 % 1011,0 hPa 0,0 mm 0,0 km/h (0 Bft) S 173 ° 0 min 0,000 mm 0,0 UV-I 0 W/m² 12,2 °C 13,6 °C 0,0 km/h (0 Bft)
07.06.2018 01:18 13,6 °C 92 % 1011,0 hPa 0,0 mm 0,0 km/h (0 Bft) S 173 ° 0 min 0,000 mm 0,0 UV-I 0 W/m² 12,3 °C 13,6 °C 0,0 km/h (0 Bft)
07.06.2018 01:19 13,4 °C 92 % 1011,0 hPa 0,0 mm 0,0 km/h (0 Bft) S 173 ° 0 min 0,000 mm 0,0 UV-I 0 W/m² 12,1 °C 13,4 °C 0,0 km/h (0 Bft)
07.06.2018 01:20 13,4 °C 92 % 1011,1 hPa 0,0 mm 0,0 km/h (0 Bft) S 173 ° 0 min 0,000 mm 0,0 UV-I 0 W/m² 12,1 °C 13,4 °C 0,0 km/h (0 Bft)
07.06.2018 01:21 13,4 °C 92 % 1011,0 hPa 0,0 mm 0,0 km/h (0 Bft) S 173 ° 0 min 0,000 mm 0,0 UV-I 0 W/m² 12,1 °C 13,4 °C 0,0 km/h (0 Bft)
07.06.2018 01:22 13,4 °C 92 % 1011,0 hPa 0,0 mm 0,0 km/h (0 Bft) S 173 ° 0 min 0,000 mm 0,0 UV-I 0 W/m² 12,1 °C 13,4 °C 0,0 km/h (0 Bft)
07.06.2018 01:23 13,3 °C 92 % 1011,0 hPa 0,0 mm 0,0 km/h (0 Bft) S 173 ° 0 min 0,000 mm 0,0 UV-I 0 W/m² 12,0 °C 13,3 °C 0,0 km/h (0 Bft)
07.06.2018 01:24 13,3 °C 92 % 1011,1 hPa 0,0 mm 0,0 km/h (0 Bft) S 173 ° 0 min 0,000 mm 0,0 UV-I 0 W/m² 12,0 °C 13,3 °C 0,0 km/h (0 Bft)
07.06.2018 01:25 13,3 °C 92 % 1011,1 hPa 0,0 mm 0,0 km/h (0 Bft) S 173 ° 0 min 0,000 mm 0,0 UV-I 0 W/m² 12,0 °C 13,3 °C 0,0 km/h (0 Bft)
07.06.2018 01:26 13,3 °C 92 % 1011,1 hPa 0,0 mm 0,0 km/h (0 Bft) S 173 ° 0 min 0,000 mm 0,0 UV-I 0 W/m² 12,0 °C 13,3 °C 0,0 km/h (0 Bft)
07.06.2018 01:27 13,3 °C 92 % 1011,1 hPa 0,0 mm 0,0 km/h (0 Bft) S 173 ° 0 min 0,000 mm 0,0 UV-I 0 W/m² 12,0 °C 13,3 °C 0,0 km/h (0 Bft)
07.06.2018 01:28 13,3 °C 92 % 1011,0 hPa 0,0 mm 0,0 km/h (0 Bft) S 173 ° 0 min 0,000 mm 0,0 UV-I 0 W/m² 12,0 °C 13,3 °C 0,0 km/h (0 Bft)
07.06.2018 01:29 13,3 °C 92 % 1011,0 hPa 0,0 mm 0,0 km/h (0 Bft) S 173 ° 0 min 0,000 mm 0,0 UV-I 0 W/m² 12,0 °C 13,3 °C 0,0 km/h (0 Bft)
07.06.2018 01:30 13,4 °C 92 % 1011,0 hPa 0,0 mm 0,0 km/h (0 Bft) S 173 ° 0 min 0,000 mm 0,0 UV-I 0 W/m² 12,1 °C 13,4 °C 0,0 km/h (0 Bft)
07.06.2018 01:31 13,4 °C 92 % 1011,0 hPa 0,0 mm 0,0 km/h (0 Bft) S 173 ° 0 min 0,000 mm 0,0 UV-I 0 W/m² 12,1 °C 13,4 °C 0,0 km/h (0 Bft)
07.06.2018 01:32 13,4 °C 92 % 1011,0 hPa 0,0 mm 0,0 km/h (0 Bft) S 173 ° 0 min 0,000 mm 0,0 UV-I 0 W/m² 12,1 °C 13,4 °C 0,0 km/h (0 Bft)
07.06.2018 01:33 13,4 °C 92 % 1011,0 hPa 0,0 mm 0,0 km/h (0 Bft) S 173 ° 0 min 0,000 mm 0,0 UV-I 0 W/m² 12,1 °C 13,4 °C 0,0 km/h (0 Bft)
07.06.2018 01:34 13,4 °C 92 % 1011,0 hPa 0,0 mm 0,0 km/h (0 Bft) S 173 ° 0 min 0,000 mm 0,0 UV-I 0 W/m² 12,1 °C 13,4 °C 0,0 km/h (0 Bft)
07.06.2018 01:35 13,4 °C 92 % 1011,0 hPa 0,0 mm 0,0 km/h (0 Bft) S 173 ° 0 min 0,000 mm 0,0 UV-I 0 W/m² 12,1 °C 13,4 °C 0,0 km/h (0 Bft)
07.06.2018 01:36 13,4 °C 92 % 1011,0 hPa 0,0 mm 0,0 km/h (0 Bft) S 173 ° 0 min 0,000 mm 0,0 UV-I 0 W/m² 12,1 °C 13,4 °C 0,0 km/h (0 Bft)
07.06.2018 01:37 13,4 °C 92 % 1011,0 hPa 0,0 mm 0,0 km/h (0 Bft) S 173 ° 0 min 0,000 mm 0,0 UV-I 0 W/m² 12,1 °C 13,4 °C 0,0 km/h (0 Bft)
07.06.2018 01:38 13,3 °C 92 % 1011,0 hPa 0,0 mm 0,0 km/h (0 Bft) S 173 ° 0 min 0,000 mm 0,0 UV-I 0 W/m² 12,0 °C 13,3 °C 0,0 km/h (0 Bft)
07.06.2018 01:39 13,2 °C 92 % 1011,0 hPa 0,0 mm 0,0 km/h (0 Bft) S 173 ° 0 min 0,000 mm 0,0 UV-I 0 W/m² 11,9 °C 13,2 °C 0,0 km/h (0 Bft)
07.06.2018 01:40 13,2 °C 92 % 1011,0 hPa 0,0 mm 0,0 km/h (0 Bft) S 173 ° 0 min 0,000 mm 0,0 UV-I 0 W/m² 11,9 °C 13,2 °C 0,0 km/h (0 Bft)
07.06.2018 01:41 13,3 °C 92 % 1011,0 hPa 0,0 mm 0,0 km/h (0 Bft) S 173 ° 0 min 0,000 mm 0,0 UV-I 0 W/m² 12,0 °C 13,3 °C 0,0 km/h (0 Bft)
07.06.2018 01:42 13,3 °C 92 % 1011,1 hPa 0,0 mm 0,0 km/h (0 Bft) S 173 ° 0 min 0,000 mm 0,0 UV-I 0 W/m² 12,0 °C 13,3 °C 0,0 km/h (0 Bft)
07.06.2018 01:43 13,2 °C 92 % 1011,1 hPa 0,0 mm 0,0 km/h (0 Bft) S 173 ° 0 min 0,000 mm 0,0 UV-I 0 W/m² 11,9 °C 13,2 °C 0,0 km/h (0 Bft)
07.06.2018 01:44 13,2 °C 92 % 1011,0 hPa 0,0 mm 0,0 km/h (0 Bft) S 173 ° 0 min 0,000 mm 0,0 UV-I 0 W/m² 11,9 °C 13,2 °C 0,0 km/h (0 Bft)
07.06.2018 01:45 13,2 °C 93 % 1011,1 hPa 0,0 mm 0,0 km/h (0 Bft) S 173 ° 0 min 0,000 mm 0,0 UV-I 0 W/m² 12,1 °C 13,2 °C 0,0 km/h (0 Bft)
07.06.2018 01:46 13,3 °C 93 % 1011,0 hPa 0,0 mm 0,0 km/h (0 Bft) S 173 ° 0 min 0,000 mm 0,0 UV-I 0 W/m² 12,2 °C 13,3 °C 0,0 km/h (0 Bft)
07.06.2018 01:47 13,3 °C 93 % 1011,0 hPa 0,0 mm 0,0 km/h (0 Bft) S 173 ° 0 min 0,000 mm 0,0 UV-I 0 W/m² 12,2 °C 13,3 °C 0,0 km/h (0 Bft)
07.06.2018 01:48 13,3 °C 93 % 1011,0 hPa 0,0 mm 0,0 km/h (0 Bft) S 173 ° 0 min 0,000 mm 0,0 UV-I 0 W/m² 12,2 °C 13,3 °C 0,0 km/h (0 Bft)
07.06.2018 01:49 13,3 °C 93 % 1011,0 hPa 0,0 mm 0,0 km/h (0 Bft) S 173 ° 0 min 0,000 mm 0,0 UV-I 0 W/m² 12,2 °C 13,3 °C 0,0 km/h (0 Bft)
07.06.2018 01:50 13,3 °C 93 % 1011,0 hPa 0,0 mm 0,0 km/h (0 Bft) S 173 ° 0 min 0,000 mm 0,0 UV-I 0 W/m² 12,2 °C 13,3 °C 0,0 km/h (0 Bft)
07.06.2018 01:51 13,4 °C 93 % 1010,9 hPa 0,0 mm 0,0 km/h (0 Bft) S 173 ° 0 min 0,000 mm 0,0 UV-I 0 W/m² 12,3 °C 13,4 °C 0,0 km/h (0 Bft)
07.06.2018 01:52 13,4 °C 93 % 1010,9 hPa 0,0 mm 0,0 km/h (0 Bft) S 173 ° 0 min 0,000 mm 0,0 UV-I 0 W/m² 12,3 °C 13,4 °C 0,0 km/h (0 Bft)
07.06.2018 01:53 13,4 °C 93 % 1010,9 hPa 0,0 mm 0,0 km/h (0 Bft) S 173 ° 0 min 0,000 mm 0,0 UV-I 0 W/m² 12,3 °C 13,4 °C 0,0 km/h (0 Bft)
07.06.2018 01:54 13,4 °C 93 % 1010,9 hPa 0,0 mm 0,0 km/h (0 Bft) S 173 ° 0 min 0,000 mm 0,0 UV-I 0 W/m² 12,3 °C 13,4 °C 0,0 km/h (0 Bft)
07.06.2018 01:55 13,4 °C 93 % 1010,9 hPa 0,0 mm 0,0 km/h (0 Bft) S 173 ° 0 min 0,000 mm 0,0 UV-I 0 W/m² 12,3 °C 13,4 °C 0,0 km/h (0 Bft)
07.06.2018 01:56 13,4 °C 92 % 1011,0 hPa 0,0 mm 0,0 km/h (0 Bft) S 173 ° 0 min 0,000 mm 0,0 UV-I 0 W/m² 12,1 °C 13,4 °C 0,0 km/h (0 Bft)
07.06.2018 01:57 13,4 °C 93 % 1011,0 hPa 0,0 mm 0,0 km/h (0 Bft) S 173 ° 0 min 0,000 mm 0,0 UV-I 0 W/m² 12,3 °C 13,4 °C 0,0 km/h (0 Bft)
07.06.2018 01:58 13,4 °C 92 % 1011,0 hPa 0,0 mm 0,0 km/h (0 Bft) S 173 ° 0 min 0,000 mm 0,0 UV-I 0 W/m² 12,1 °C 13,4 °C 0,0 km/h (0 Bft)
07.06.2018 01:59 13,4 °C 92 % 1011,0 hPa 0,0 mm 0,0 km/h (0 Bft) S 173 ° 0 min 0,000 mm 0,0 UV-I 0 W/m² 12,1 °C 13,4 °C 0,0 km/h (0 Bft)
07.06.2018 02:00 13,4 °C 92 % 1011,0 hPa 0,0 mm 0,0 km/h (0 Bft) S 173 ° 0 min 0,000 mm 0,0 UV-I 0 W/m² 12,1 °C 13,4 °C 0,0 km/h (0 Bft)
07.06.2018 02:01 13,3 °C 93 % 1011,0 hPa 0,0 mm 0,6 km/h (0 Bft) S 173 ° 0 min 0,000 mm 0,0 UV-I 0 W/m² 12,2 °C 13,3 °C 1,6 km/h (1 Bft)
07.06.2018 02:02 13,4 °C 93 % 1011,0 hPa 0,0 mm 1,5 km/h (1 Bft) SW 227 ° 0 min 0,000 mm 0,0 UV-I 0 W/m² 12,3 °C 13,4 °C 4,8 km/h (1 Bft)
07.06.2018 02:03 13,4 °C 93 % 1010,9 hPa 0,0 mm 3,4 km/h (1 Bft) S-SW 195 ° 0 min 0,000 mm 0,0 UV-I 0 W/m² 12,3 °C 13,4 °C 4,8 km/h (1 Bft)
07.06.2018 02:04 13,5 °C 93 % 1011,0 hPa 0,0 mm 1,4 km/h (1 Bft) S-SW 195 ° 0 min 0,000 mm 0,0 UV-I 0 W/m² 12,4 °C 13,5 °C 3,2 km/h (1 Bft)
07.06.2018 02:05 13,5 °C 93 % 1010,9 hPa 0,0 mm 0,0 km/h (0 Bft) S-SW 195 ° 0 min 0,000 mm 0,0 UV-I 0 W/m² 12,4 °C 13,5 °C 0,0 km/h (0 Bft)
07.06.2018 02:06 13,5 °C 93 % 1010,9 hPa 0,0 mm 0,0 km/h (0 Bft) S-SW 195 ° 0 min 0,000 mm 0,0 UV-I 0 W/m² 12,4 °C 13,5 °C 0,0 km/h (0 Bft)
07.06.2018 02:07 13,5 °C 93 % 1010,9 hPa 0,0 mm 0,0 km/h (0 Bft) S-SW 195 ° 0 min 0,000 mm 0,0 UV-I 0 W/m² 12,4 °C 13,5 °C 0,0 km/h (0 Bft)
07.06.2018 02:08 13,5 °C 92 % 1010,9 hPa 0,0 mm 0,0 km/h (0 Bft) S-SW 195 ° 0 min 0,000 mm 0,0 UV-I 0 W/m² 12,2 °C 13,5 °C 0,0 km/h (0 Bft)
07.06.2018 02:09 13,5 °C 92 % 1010,9 hPa 0,0 mm 0,0 km/h (0 Bft) S-SW 195 ° 0 min 0,000 mm 0,0 UV-I 0 W/m² 12,2 °C 13,5 °C 0,0 km/h (0 Bft)
07.06.2018 02:10 13,4 °C 92 % 1010,9 hPa 0,0 mm 0,0 km/h (0 Bft) S-SW 195 ° 0 min 0,000 mm 0,0 UV-I 0 W/m² 12,1 °C 13,4 °C 0,0 km/h (0 Bft)
07.06.2018 02:11 13,4 °C 93 % 1010,9 hPa 0,0 mm 0,0 km/h (0 Bft) S-SW 195 ° 0 min 0,000 mm 0,0 UV-I 0 W/m² 12,3 °C 13,4 °C 0,0 km/h (0 Bft)
07.06.2018 02:12 13,4 °C 93 % 1010,9 hPa 0,0 mm 0,0 km/h (0 Bft) S-SW 195 ° 0 min 0,000 mm 0,0 UV-I 0 W/m² 12,3 °C 13,4 °C 0,0 km/h (0 Bft)
07.06.2018 02:13 13,4 °C 93 % 1010,9 hPa 0,0 mm 0,0 km/h (0 Bft) S-SW 195 ° 0 min 0,000 mm 0,0 UV-I 0 W/m² 12,3 °C 13,4 °C 0,0 km/h (0 Bft)
07.06.2018 02:14 13,4 °C 93 % 1010,9 hPa 0,0 mm 0,0 km/h (0 Bft) S-SW 195 ° 0 min 0,000 mm 0,0 UV-I 0 W/m² 12,3 °C 13,4 °C 0,0 km/h (0 Bft)
07.06.2018 02:15 13,4 °C 93 % 1010,9 hPa 0,0 mm 0,0 km/h (0 Bft) S-SW 195 ° 0 min 0,000 mm 0,0 UV-I 0 W/m² 12,3 °C 13,4 °C 0,0 km/h (0 Bft)
07.06.2018 02:16 13,4 °C 93 % 1010,8 hPa 0,0 mm 1,6 km/h (1 Bft) S-SW 195 ° 0 min 0,000 mm 0,0 UV-I 0 W/m² 12,3 °C 13,4 °C 3,2 km/h (1 Bft)
07.06.2018 02:17 13,4 °C 93 % 1010,8 hPa 0,0 mm 0,6 km/h (0 Bft) S-SW 195 ° 0 min 0,000 mm 0,0 UV-I 0 W/m² 12,3 °C 13,4 °C 1,6 km/h (1 Bft)
07.06.2018 02:18 13,4 °C 93 % 1010,8 hPa 0,0 mm 0,0 km/h (0 Bft) S-SW 195 ° 0 min 0,000 mm 0,0 UV-I 0 W/m² 12,3 °C 13,4 °C 0,0 km/h (0 Bft)
07.06.2018 02:19 13,3 °C 92 % 1010,7 hPa 0,0 mm 0,0 km/h (0 Bft) S-SW 195 ° 0 min 0,000 mm 0,0 UV-I 0 W/m² 12,0 °C 13,3 °C 0,0 km/h (0 Bft)
07.06.2018 02:20 13,3 °C 93 % 1010,7 hPa 0,0 mm 0,0 km/h (0 Bft) S-SW 195 ° 0 min 0,000 mm 0,0 UV-I 0 W/m² 12,2 °C 13,3 °C 0,0 km/h (0 Bft)
07.06.2018 02:21 13,3 °C 93 % 1010,7 hPa 0,0 mm 0,0 km/h (0 Bft) S-SW 195 ° 0 min 0,000 mm 0,0 UV-I 0 W/m² 12,2 °C 13,3 °C 0,0 km/h (0 Bft)
07.06.2018 02:22 13,3 °C 93 % 1010,7 hPa 0,0 mm 0,0 km/h (0 Bft) S-SW 195 ° 0 min 0,000 mm 0,0 UV-I 0 W/m² 12,2 °C 13,3 °C 0,0 km/h (0 Bft)
07.06.2018 02:23 13,4 °C 93 % 1010,7 hPa 0,0 mm 0,0 km/h (0 Bft) S-SW 195 ° 0 min 0,000 mm 0,0 UV-I 0 W/m² 12,3 °C 13,4 °C 0,0 km/h (0 Bft)
07.06.2018 02:24 13,4 °C 93 % 1010,8 hPa 0,0 mm 0,0 km/h (0 Bft) S-SW 195 ° 0 min 0,000 mm 0,0 UV-I 0 W/m² 12,3 °C 13,4 °C 0,0 km/h (0 Bft)
07.06.2018 02:25 13,4 °C 93 % 1010,7 hPa 0,0 mm 0,0 km/h (0 Bft) S-SW 195 ° 0 min 0,000 mm 0,0 UV-I 0 W/m² 12,3 °C 13,4 °C 0,0 km/h (0 Bft)
07.06.2018 02:26 13,4 °C 93 % 1010,7 hPa 0,0 mm 0,0 km/h (0 Bft) S-SW 195 ° 0 min 0,000 mm 0,0 UV-I 0 W/m² 12,3 °C 13,4 °C 0,0 km/h (0 Bft)
07.06.2018 02:27 13,3 °C 93 % 1010,8 hPa 0,0 mm 0,0 km/h (0 Bft) S-SW 195 ° 0 min 0,000 mm 0,0 UV-I 0 W/m² 12,2 °C 13,3 °C 0,0 km/h (0 Bft)
07.06.2018 02:28 13,3 °C 93 % 1010,8 hPa 0,0 mm 0,0 km/h (0 Bft) S-SW 195 ° 0 min 0,000 mm 0,0 UV-I 0 W/m² 12,2 °C 13,3 °C 0,0 km/h (0 Bft)
07.06.2018 02:29 13,3 °C 93 % 1010,8 hPa 0,0 mm 0,0 km/h (0 Bft) S-SW 195 ° 0 min 0,000 mm 0,0 UV-I 0 W/m² 12,2 °C 13,3 °C 0,0 km/h (0 Bft)
07.06.2018 02:30 13,3 °C 93 % 1010,8 hPa 0,0 mm 0,0 km/h (0 Bft) S-SW 195 ° 0 min 0,000 mm 0,0 UV-I 0 W/m² 12,2 °C 13,3 °C 0,0 km/h (0 Bft)
07.06.2018 02:31 13,3 °C 93 % 1010,8 hPa 0,0 mm 0,0 km/h (0 Bft) S-SW 195 ° 0 min 0,000 mm 0,0 UV-I 0 W/m² 12,2 °C 13,3 °C 0,0 km/h (0 Bft)
07.06.2018 02:32 13,3 °C 93 % 1010,9 hPa 0,0 mm 0,0 km/h (0 Bft) S-SW 195 ° 0 min 0,000 mm 0,0 UV-I 0 W/m² 12,2 °C 13,3 °C 0,0 km/h (0 Bft)
07.06.2018 02:33 13,2 °C 93 % 1010,9 hPa 0,0 mm 0,0 km/h (0 Bft) S-SW 195 ° 0 min 0,000 mm 0,0 UV-I 0 W/m² 12,1 °C 13,2 °C 0,0 km/h (0 Bft)
07.06.2018 02:34 13,2 °C 93 % 1010,9 hPa 0,0 mm 0,0 km/h (0 Bft) S-SW 195 ° 0 min 0,000 mm 0,0 UV-I 0 W/m² 12,1 °C 13,2 °C 0,0 km/h (0 Bft)
07.06.2018 02:35 13,2 °C 93 % 1010,9 hPa 0,0 mm 0,0 km/h (0 Bft) S-SW 195 ° 0 min 0,000 mm 0,0 UV-I 0 W/m² 12,1 °C 13,2 °C 0,0 km/h (0 Bft)
07.06.2018 02:36 13,2 °C 93 % 1010,9 hPa 0,0 mm 0,0 km/h (0 Bft) S-SW 195 ° 0 min 0,000 mm 0,0 UV-I 0 W/m² 12,1 °C 13,2 °C 0,0 km/h (0 Bft)
07.06.2018 02:37 13,2 °C 93 % 1010,9 hPa 0,0 mm 0,0 km/h (0 Bft) S-SW 195 ° 0 min 0,000 mm 0,0 UV-I 0 W/m² 12,1 °C 13,2 °C 0,0 km/h (0 Bft)
07.06.2018 02:38 13,2 °C 93 % 1010,9 hPa 0,0 mm 0,0 km/h (0 Bft) S-SW 195 ° 0 min 0,000 mm 0,0 UV-I 0 W/m² 12,1 °C 13,2 °C 0,0 km/h (0 Bft)
07.06.2018 02:39 13,1 °C 93 % 1010,9 hPa 0,0 mm 0,0 km/h (0 Bft) S-SW 195 ° 0 min 0,000 mm 0,0 UV-I 0 W/m² 12,0 °C 13,1 °C 0,0 km/h (0 Bft)
07.06.2018 02:40 13,1 °C 93 % 1010,9 hPa 0,0 mm 0,0 km/h (0 Bft) S-SW 195 ° 0 min 0,000 mm 0,0 UV-I 0 W/m² 12,0 °C 13,1 °C 0,0 km/h (0 Bft)
07.06.2018 02:41 13,1 °C 93 % 1010,9 hPa 0,0 mm 0,0 km/h (0 Bft) S-SW 195 ° 0 min 0,000 mm 0,0 UV-I 0 W/m² 12,0 °C 13,1 °C 0,0 km/h (0 Bft)
07.06.2018 02:42 13,1 °C 93 % 1010,9 hPa 0,0 mm 0,0 km/h (0 Bft) S-SW 195 ° 0 min 0,000 mm 0,0 UV-I 0 W/m² 12,0 °C 13,1 °C 0,0 km/h (0 Bft)
07.06.2018 02:43 13,1 °C 93 % 1011,0 hPa 0,0 mm 0,0 km/h (0 Bft) S-SW 195 ° 0 min 0,000 mm 0,0 UV-I 0 W/m² 12,0 °C 13,1 °C 0,0 km/h (0 Bft)
07.06.2018 02:44 13,1 °C 93 % 1011,0 hPa 0,0 mm 0,0 km/h (0 Bft) S-SW 195 ° 0 min 0,000 mm 0,0 UV-I 0 W/m² 12,0 °C 13,1 °C 0,0 km/h (0 Bft)
07.06.2018 02:45 13,2 °C 93 % 1011,0 hPa 0,0 mm 0,0 km/h (0 Bft) S-SW 195 ° 0 min 0,000 mm 0,0 UV-I 0 W/m² 12,1 °C 13,2 °C 0,0 km/h (0 Bft)
07.06.2018 02:46 13,2 °C 93 % 1011,0 hPa 0,0 mm 0,0 km/h (0 Bft) S-SW 195 ° 0 min 0,000 mm 0,0 UV-I 0 W/m² 12,1 °C 13,2 °C 0,0 km/h (0 Bft)
07.06.2018 02:47 13,1 °C 93 % 1011,0 hPa 0,0 mm 0,6 km/h (0 Bft) S-SW 195 ° 0 min 0,000 mm 0,0 UV-I 0 W/m² 12,0 °C 13,1 °C 1,6 km/h (1 Bft)
07.06.2018 02:48 13,0 °C 93 % 1011,0 hPa 0,0 mm 0,0 km/h (0 Bft) S-SW 195 ° 0 min 0,000 mm 0,0 UV-I 0 W/m² 11,9 °C 13,0 °C 0,0 km/h (0 Bft)
07.06.2018 02:49 12,9 °C 93 % 1011,0 hPa 0,0 mm 0,0 km/h (0 Bft) S-SW 195 ° 0 min 0,000 mm 0,0 UV-I 0 W/m² 11,8 °C 12,9 °C 0,0 km/h (0 Bft)
07.06.2018 02:50 12,9 °C 93 % 1011,0 hPa 0,0 mm 0,0 km/h (0 Bft) S-SW 195 ° 0 min 0,000 mm 0,0 UV-I 0 W/m² 11,8 °C 12,9 °C 0,0 km/h (0 Bft)
07.06.2018 02:51 12,9 °C 93 % 1011,0 hPa 0,0 mm 0,0 km/h (0 Bft) S-SW 195 ° 0 min 0,000 mm 0,0 UV-I 0 W/m² 11,8 °C 12,9 °C 0,0 km/h (0 Bft)
07.06.2018 02:52 12,9 °C 93 % 1011,0 hPa 0,0 mm 0,0 km/h (0 Bft) S-SW 195 ° 0 min 0,000 mm 0,0 UV-I 0 W/m² 11,8 °C 12,9 °C 0,0 km/h (0 Bft)
07.06.2018 02:53 12,8 °C 93 % 1011,0 hPa 0,0 mm 0,0 km/h (0 Bft) S-SW 195 ° 0 min 0,000 mm 0,0 UV-I 0 W/m² 11,7 °C 12,8 °C 0,0 km/h (0 Bft)
07.06.2018 02:54 12,7 °C 92 % 1011,1 hPa 0,0 mm 0,0 km/h (0 Bft) S-SW 195 ° 0 min 0,000 mm 0,0 UV-I 0 W/m² 11,4 °C 12,7 °C 0,0 km/h (0 Bft)
07.06.2018 02:55 12,7 °C 93 % 1011,1 hPa 0,0 mm 0,0 km/h (0 Bft) S-SW 196 ° 0 min 0,000 mm 0,0 UV-I 0 W/m² 11,6 °C 12,7 °C 0,0 km/h (0 Bft)
07.06.2018 02:56 12,6 °C 93 % 1011,2 hPa 0,0 mm 0,1 km/h (0 Bft) S-SW 195 ° 0 min 0,000 mm 0,0 UV-I 0 W/m² 11,5 °C 12,6 °C 1,6 km/h (1 Bft)
07.06.2018 02:57 12,6 °C 93 % 1011,2 hPa 0,0 mm 0,1 km/h (0 Bft) S-SW 195 ° 0 min 0,000 mm 0,0 UV-I 0 W/m² 11,5 °C 12,6 °C 1,6 km/h (1 Bft)
07.06.2018 02:58 12,5 °C 93 % 1011,2 hPa 0,0 mm 0,0 km/h (0 Bft) S-SW 195 ° 0 min 0,000 mm 0,0 UV-I 0 W/m² 11,4 °C 12,5 °C 0,0 km/h (0 Bft)
07.06.2018 02:59 12,4 °C 93 % 1011,2 hPa 0,0 mm 0,0 km/h (0 Bft) S-SW 196 ° 0 min 0,000 mm 0,0 UV-I 0 W/m² 11,3 °C 12,4 °C 0,0 km/h (0 Bft)
07.06.2018 03:00 12,5 °C 93 % 1011,1 hPa 0,0 mm 0,0 km/h (0 Bft) S-SW 195 ° 0 min 0,000 mm 0,0 UV-I 0 W/m² 11,4 °C 12,5 °C 0,0 km/h (0 Bft)
07.06.2018 03:01 12,4 °C 93 % 1011,1 hPa 0,0 mm 0,0 km/h (0 Bft) S-SW 195 ° 0 min 0,000 mm 0,0 UV-I 0 W/m² 11,3 °C 12,4 °C 0,0 km/h (0 Bft)
07.06.2018 03:02 12,4 °C 93 % 1011,1 hPa 0,0 mm 0,0 km/h (0 Bft) S-SW 195 ° 0 min 0,000 mm 0,0 UV-I 0 W/m² 11,3 °C 12,4 °C 0,0 km/h (0 Bft)
07.06.2018 03:03 12,4 °C 93 % 1011,1 hPa 0,0 mm 0,0 km/h (0 Bft) S-SW 195 ° 0 min 0,000 mm 0,0 UV-I 0 W/m² 11,3 °C 12,4 °C 0,0 km/h (0 Bft)
07.06.2018 03:04 12,4 °C 93 % 1011,1 hPa 0,0 mm 0,0 km/h (0 Bft) S-SW 195 ° 0 min 0,000 mm 0,0 UV-I 0 W/m² 11,3 °C 12,4 °C 0,0 km/h (0 Bft)
07.06.2018 03:05 12,4 °C 93 % 1011,1 hPa 0,0 mm 0,0 km/h (0 Bft) S-SW 195 ° 0 min 0,000 mm 0,0 UV-I 0 W/m² 11,3 °C 12,4 °C 0,0 km/h (0 Bft)
07.06.2018 03:06 12,4 °C 93 % 1011,2 hPa 0,0 mm 0,0 km/h (0 Bft) S-SW 195 ° 0 min 0,000 mm 0,0 UV-I 0 W/m² 11,3 °C 12,4 °C 0,0 km/h (0 Bft)
07.06.2018 03:07 12,5 °C 93 % 1011,1 hPa 0,0 mm 0,0 km/h (0 Bft) S-SW 195 ° 0 min 0,000 mm 0,0 UV-I 0 W/m² 11,4 °C 12,5 °C 0,0 km/h (0 Bft)
07.06.2018 03:08 12,5 °C 93 % 1011,1 hPa 0,0 mm 0,0 km/h (0 Bft) S-SW 195 ° 0 min 0,000 mm 0,0 UV-I 0 W/m² 11,4 °C 12,5 °C 0,0 km/h (0 Bft)
07.06.2018 03:09 12,5 °C 93 % 1011,1 hPa 0,0 mm 0,0 km/h (0 Bft) S-SW 195 ° 0 min 0,000 mm 0,0 UV-I 0 W/m² 11,4 °C 12,5 °C 0,0 km/h (0 Bft)
07.06.2018 03:10 12,5 °C 93 % 1011,1 hPa 0,0 mm 0,0 km/h (0 Bft) S-SW 195 ° 0 min 0,000 mm 0,0 UV-I 0 W/m² 11,4 °C 12,5 °C 0,0 km/h (0 Bft)
07.06.2018 03:11 12,4 °C 93 % 1011,1 hPa 0,0 mm 0,1 km/h (0 Bft) S-SW 195 ° 0 min 0,000 mm 0,0 UV-I 0 W/m² 11,3 °C 12,4 °C 1,6 km/h (1 Bft)
07.06.2018 03:12 12,5 °C 93 % 1011,2 hPa 0,0 mm 0,2 km/h (0 Bft) S-SW 195 ° 0 min 0,000 mm 0,0 UV-I 0 W/m² 11,4 °C 12,5 °C 1,6 km/h (1 Bft)
07.06.2018 03:13 12,6 °C 93 % 1011,1 hPa 0,0 mm 0,8 km/h (0 Bft) S-SW 195 ° 0 min 0,000 mm 0,0 UV-I 0 W/m² 11,5 °C 12,6 °C 1,6 km/h (1 Bft)
07.06.2018 03:14 12,6 °C 94 % 1011,1 hPa 0,0 mm 1,0 km/h (0 Bft) S-SW 195 ° 0 min 0,000 mm 0,0 UV-I 0 W/m² 11,7 °C 12,6 °C 1,6 km/h (1 Bft)
07.06.2018 03:15 12,7 °C 94 % 1011,1 hPa 0,0 mm 0,5 km/h (0 Bft) S-SW 195 ° 0 min 0,000 mm 0,0 UV-I 0 W/m² 11,8 °C 12,7 °C 1,6 km/h (1 Bft)
07.06.2018 03:16 12,7 °C 94 % 1011,1 hPa 0,0 mm 0,2 km/h (0 Bft) S-SW 195 ° 0 min 0,000 mm 0,0 UV-I 0 W/m² 11,8 °C 12,7 °C 1,6 km/h (1 Bft)
07.06.2018 03:17 12,7 °C 94 % 1011,1 hPa 0,0 mm 0,0 km/h (0 Bft) S-SW 195 ° 0 min 0,000 mm 0,0 UV-I 0 W/m² 11,8 °C 12,7 °C 0,0 km/h (0 Bft)
07.06.2018 03:18 12,7 °C 93 % 1011,1 hPa 0,0 mm 0,0 km/h (0 Bft) S-SW 195 ° 0 min 0,000 mm 0,0 UV-I 0 W/m² 11,6 °C 12,7 °C 0,0 km/h (0 Bft)
07.06.2018 03:19 12,6 °C 93 % 1011,1 hPa 0,0 mm 0,0 km/h (0 Bft) S-SW 195 ° 0 min 0,000 mm 0,0 UV-I 0 W/m² 11,5 °C 12,6 °C 0,0 km/h (0 Bft)
07.06.2018 03:20 12,6 °C 93 % 1011,1 hPa 0,0 mm 0,0 km/h (0 Bft) S-SW 195 ° 0 min 0,000 mm 0,0 UV-I 0 W/m² 11,5 °C 12,6 °C 0,0 km/h (0 Bft)
07.06.2018 03:21 12,5 °C 93 % 1011,1 hPa 0,0 mm 0,0 km/h (0 Bft) S-SW 195 ° 0 min 0,000 mm 0,0 UV-I 0 W/m² 11,4 °C 12,5 °C 0,0 km/h (0 Bft)
07.06.2018 03:22 12,4 °C 93 % 1011,1 hPa 0,0 mm 0,0 km/h (0 Bft) S-SW 195 ° 0 min 0,000 mm 0,0 UV-I 0 W/m² 11,3 °C 12,4 °C 0,0 km/h (0 Bft)
07.06.2018 03:23 12,4 °C 93 % 1011,1 hPa 0,0 mm 0,0 km/h (0 Bft) S-SW 195 ° 0 min 0,000 mm 0,0 UV-I 0 W/m² 11,3 °C 12,4 °C 0,0 km/h (0 Bft)
07.06.2018 03:24 12,4 °C 93 % 1011,1 hPa 0,0 mm 0,0 km/h (0 Bft) S-SW 195 ° 0 min 0,000 mm 0,0 UV-I 0 W/m² 11,3 °C 12,4 °C 0,0 km/h (0 Bft)
07.06.2018 03:25 12,4 °C 93 % 1011,1 hPa 0,0 mm 0,0 km/h (0 Bft) S-SW 195 ° 0 min 0,000 mm 0,0 UV-I 0 W/m² 11,3 °C 12,4 °C 0,0 km/h (0 Bft)
07.06.2018 03:26 12,4 °C 93 % 1011,1 hPa 0,0 mm 0,0 km/h (0 Bft) S-SW 195 ° 0 min 0,000 mm 0,0 UV-I 0 W/m² 11,3 °C 12,4 °C 0,0 km/h (0 Bft)
07.06.2018 03:27 12,3 °C 93 % 1011,0 hPa 0,0 mm 0,0 km/h (0 Bft) S-SW 195 ° 0 min 0,000 mm 0,0 UV-I 0 W/m² 11,2 °C 12,3 °C 0,0 km/h (0 Bft)
07.06.2018 03:28 12,3 °C 93 % 1011,1 hPa 0,0 mm 0,0 km/h (0 Bft) S-SW 195 ° 0 min 0,000 mm 0,0 UV-I 0 W/m² 11,2 °C 12,3 °C 0,0 km/h (0 Bft)
07.06.2018 03:29 12,3 °C 93 % 1011,0 hPa 0,0 mm 0,8 km/h (0 Bft) S-SW 195 ° 0 min 0,000 mm 0,0 UV-I 0 W/m² 11,2 °C 12,3 °C 4,8 km/h (1 Bft)
07.06.2018 03:30 12,3 °C 93 % 1011,1 hPa 0,0 mm 6,8 km/h (2 Bft) S-SW 197 ° 0 min 0,000 mm 0,0 UV-I 0 W/m² 11,2 °C 12,3 °C 9,7 km/h (2 Bft)
07.06.2018 03:31 12,4 °C 93 % 1011,1 hPa 0,0 mm 5,3 km/h (1 Bft) S-SW 199 ° 0 min 0,000 mm 0,0 UV-I 0 W/m² 11,3 °C 12,4 °C 8,0 km/h (2 Bft)
07.06.2018 03:32 12,5 °C 94 % 1011,1 hPa 0,0 mm 3,8 km/h (1 Bft) S-SW 192 ° 0 min 0,000 mm 0,0 UV-I 0 W/m² 11,6 °C 12,5 °C 8,0 km/h (2 Bft)
07.06.2018 03:33 12,6 °C 93 % 1011,1 hPa 0,0 mm 3,8 km/h (1 Bft) S-SW 194 ° 0 min 0,000 mm 0,0 UV-I 0 W/m² 11,5 °C 12,6 °C 6,4 km/h (2 Bft)
07.06.2018 03:34 12,6 °C 94 % 1011,1 hPa 0,0 mm 2,1 km/h (1 Bft) S-SW 194 ° 0 min 0,000 mm 0,0 UV-I 0 W/m² 11,7 °C 12,6 °C 4,8 km/h (1 Bft)
07.06.2018 03:35 12,6 °C 94 % 1011,2 hPa 0,0 mm 1,5 km/h (1 Bft) S-SW 194 ° 0 min 0,000 mm 0,0 UV-I 0 W/m² 11,7 °C 12,6 °C 3,2 km/h (1 Bft)
07.06.2018 03:36 12,6 °C 93 % 1011,1 hPa 0,0 mm 0,5 km/h (0 Bft) S-SW 194 ° 0 min 0,000 mm 0,0 UV-I 0 W/m² 11,5 °C 12,6 °C 1,6 km/h (1 Bft)
07.06.2018 03:37 12,6 °C 93 % 1011,1 hPa 0,0 mm 0,1 km/h (0 Bft) S-SW 194 ° 0 min 0,000 mm 0,0 UV-I 0 W/m² 11,5 °C 12,6 °C 1,6 km/h (1 Bft)
07.06.2018 03:38 12,7 °C 93 % 1011,1 hPa 0,0 mm 0,0 km/h (0 Bft) S-SW 194 ° 0 min 0,000 mm 0,0 UV-I 0 W/m² 11,6 °C 12,7 °C 0,0 km/h (0 Bft)
07.06.2018 03:39 12,7 °C 93 % 1011,2 hPa 0,0 mm 0,0 km/h (0 Bft) S-SW 194 ° 0 min 0,000 mm 0,0 UV-I 0 W/m² 11,6 °C 12,7 °C 0,0 km/h (0 Bft)
07.06.2018 03:40 12,7 °C 93 % 1011,2 hPa 0,0 mm 0,0 km/h (0 Bft) S-SW 194 ° 0 min 0,000 mm 0,0 UV-I 0 W/m² 11,6 °C 12,7 °C 0,0 km/h (0 Bft)
07.06.2018 03:41 12,7 °C 93 % 1011,2 hPa 0,0 mm 0,0 km/h (0 Bft) S-SW 194 ° 0 min 0,000 mm 0,0 UV-I 0 W/m² 11,6 °C 12,7 °C 0,0 km/h (0 Bft)
07.06.2018 03:42 12,8 °C 93 % 1011,3 hPa 0,0 mm 0,0 km/h (0 Bft) S-SW 194 ° 0 min 0,000 mm 0,0 UV-I 0 W/m² 11,7 °C 12,8 °C 0,0 km/h (0 Bft)
07.06.2018 03:43 12,8 °C 93 % 1011,3 hPa 0,0 mm 0,0 km/h (0 Bft) S-SW 194 ° 0 min 0,000 mm 0,0 UV-I 0 W/m² 11,7 °C 12,8 °C 0,0 km/h (0 Bft)
07.06.2018 03:44 12,9 °C 93 % 1011,3 hPa 0,0 mm 0,1 km/h (0 Bft) S-SW 194 ° 0 min 0,000 mm 0,0 UV-I 0 W/m² 11,8 °C 12,9 °C 1,6 km/h (1 Bft)
07.06.2018 03:45 13,0 °C 93 % 1011,3 hPa 0,0 mm 1,5 km/h (1 Bft) S-SW 196 ° 0 min 0,000 mm 0,0 UV-I 0 W/m² 11,9 °C 13,0 °C 3,2 km/h (1 Bft)
07.06.2018 03:46 13,1 °C 93 % 1011,4 hPa 0,0 mm 3,4 km/h (1 Bft) S-SW 199 ° 0 min 0,000 mm 0,0 UV-I 0 W/m² 12,0 °C 13,1 °C 6,4 km/h (2 Bft)
07.06.2018 03:47 13,2 °C 93 % 1011,3 hPa 0,0 mm 2,2 km/h (1 Bft) S-SW 198 ° 0 min 0,000 mm 0,0 UV-I 0 W/m² 12,1 °C 13,2 °C 3,2 km/h (1 Bft)
07.06.2018 03:48 13,2 °C 93 % 1011,4 hPa 0,0 mm 3,0 km/h (1 Bft) SW 215 ° 0 min 0,000 mm 0,0 UV-I 0 W/m² 12,1 °C 13,2 °C 4,8 km/h (1 Bft)
07.06.2018 03:49 13,3 °C 93 % 1011,3 hPa 0,0 mm 2,7 km/h (1 Bft) S-SW 192 ° 0 min 0,000 mm 0,0 UV-I 0 W/m² 12,2 °C 13,3 °C 6,4 km/h (2 Bft)
07.06.2018 03:50 13,3 °C 92 % 1011,4 hPa 0,0 mm 2,1 km/h (1 Bft) S-SW 203 ° 0 min 0,000 mm 0,0 UV-I 0 W/m² 12,0 °C 13,3 °C 4,8 km/h (1 Bft)
07.06.2018 03:51 13,3 °C 92 % 1011,3 hPa 0,0 mm 0,0 km/h (0 Bft) S-SW 203 ° 0 min 0,000 mm 0,0 UV-I 0 W/m² 12,0 °C 13,3 °C 0,0 km/h (0 Bft)
07.06.2018 03:52 13,3 °C 92 % 1011,4 hPa 0,0 mm 1,4 km/h (1 Bft) S-SW 203 ° 0 min 0,000 mm 0,0 UV-I 0 W/m² 12,0 °C 13,3 °C 3,2 km/h (1 Bft)
07.06.2018 03:53 13,3 °C 92 % 1011,4 hPa 0,0 mm 0,4 km/h (0 Bft) S-SW 203 ° 0 min 0,000 mm 0,0 UV-I 0 W/m² 12,0 °C 13,3 °C 3,2 km/h (1 Bft)
07.06.2018 03:54 13,3 °C 92 % 1011,4 hPa 0,0 mm 0,0 km/h (0 Bft) S-SW 203 ° 0 min 0,000 mm 0,0 UV-I 0 W/m² 12,0 °C 13,3 °C 0,0 km/h (0 Bft)
07.06.2018 03:55 13,3 °C 92 % 1011,4 hPa 0,0 mm 0,0 km/h (0 Bft) S-SW 203 ° 0 min 0,000 mm 0,0 UV-I 0 W/m² 12,0 °C 13,3 °C 0,0 km/h (0 Bft)
07.06.2018 03:56 13,3 °C 92 % 1011,3 hPa 0,0 mm 0,0 km/h (0 Bft) S-SW 203 ° 0 min 0,000 mm 0,0 UV-I 0 W/m² 12,0 °C 13,3 °C 0,0 km/h (0 Bft)
07.06.2018 03:57 13,2 °C 92 % 1011,4 hPa 0,0 mm 0,0 km/h (0 Bft) S-SW 203 ° 0 min 0,000 mm 0,0 UV-I 0 W/m² 11,9 °C 13,2 °C 0,0 km/h (0 Bft)
07.06.2018 03:58 13,2 °C 92 % 1011,4 hPa 0,0 mm 1,7 km/h (1 Bft) S-SW 207 ° 0 min 0,000 mm 0,0 UV-I 0 W/m² 11,9 °C 13,2 °C 3,2 km/h (1 Bft)
07.06.2018 03:59 13,2 °C 92 % 1011,4 hPa 0,0 mm 0,3 km/h (0 Bft) S-SW 207 ° 0 min 0,000 mm 0,0 UV-I 0 W/m² 11,9 °C 13,2 °C 1,6 km/h (1 Bft)
07.06.2018 04:00 13,1 °C 92 % 1011,4 hPa 0,0 mm 0,0 km/h (0 Bft) S-SW 207 ° 0 min 0,000 mm 0,0 UV-I 0 W/m² 11,8 °C 13,1 °C 0,0 km/h (0 Bft)
07.06.2018 04:01 13,1 °C 92 % 1011,4 hPa 0,0 mm 0,0 km/h (0 Bft) S-SW 207 ° 0 min 0,000 mm 0,0 UV-I 0 W/m² 11,8 °C 13,1 °C 0,0 km/h (0 Bft)
07.06.2018 04:02 13,0 °C 92 % 1011,4 hPa 0,0 mm 0,0 km/h (0 Bft) S-SW 207 ° 0 min 0,000 mm 0,0 UV-I 0 W/m² 11,7 °C 13,0 °C 0,0 km/h (0 Bft)
07.06.2018 04:03 13,1 °C 92 % 1011,4 hPa 0,0 mm 0,0 km/h (0 Bft) S-SW 207 ° 0 min 0,000 mm 0,0 UV-I 0 W/m² 11,8 °C 13,1 °C 0,0 km/h (0 Bft)
07.06.2018 04:04 13,0 °C 92 % 1011,4 hPa 0,0 mm 0,0 km/h (0 Bft) S-SW 207 ° 0 min 0,000 mm 0,0 UV-I 0 W/m² 11,7 °C 13,0 °C 0,0 km/h (0 Bft)
07.06.2018 04:05 13,0 °C 92 % 1011,4 hPa 0,0 mm 0,0 km/h (0 Bft) S-SW 207 ° 0 min 0,000 mm 0,0 UV-I 0 W/m² 11,7 °C 13,0 °C 0,0 km/h (0 Bft)
07.06.2018 04:06 13,0 °C 92 % 1011,4 hPa 0,0 mm 0,2 km/h (0 Bft) S-SW 207 ° 0 min 0,000 mm 0,0 UV-I 0 W/m² 11,7 °C 13,0 °C 1,6 km/h (1 Bft)
07.06.2018 04:07 13,1 °C 92 % 1011,4 hPa 0,0 mm 1,4 km/h (1 Bft) S-SW 207 ° 0 min 0,000 mm 0,0 UV-I 0 W/m² 11,8 °C 13,1 °C 3,2 km/h (1 Bft)
07.06.2018 04:08 13,1 °C 92 % 1011,4 hPa 0,0 mm 0,1 km/h (0 Bft) S-SW 207 ° 0 min 0,000 mm 0,0 UV-I 0 W/m² 11,8 °C 13,1 °C 1,6 km/h (1 Bft)
07.06.2018 04:09 13,1 °C 92 % 1011,4 hPa 0,0 mm 0,0 km/h (0 Bft) S-SW 207 ° 0 min 0,000 mm 0,0 UV-I 0 W/m² 11,8 °C 13,1 °C 0,0 km/h (0 Bft)
07.06.2018 04:10 13,1 °C 92 % 1011,4 hPa 0,0 mm 0,0 km/h (0 Bft) S-SW 207 ° 0 min 0,000 mm 0,0 UV-I 0 W/m² 11,8 °C 13,1 °C 0,0 km/h (0 Bft)
07.06.2018 04:11 13,1 °C 92 % 1011,4 hPa 0,0 mm 0,3 km/h (0 Bft) S-SW 207 ° 0 min 0,000 mm 0,0 UV-I 0 W/m² 11,8 °C 13,1 °C 1,6 km/h (1 Bft)
07.06.2018 04:12 13,2 °C 92 % 1011,4 hPa 0,0 mm 1,5 km/h (1 Bft) S-SW 207 ° 0 min 0,000 mm 0,0 UV-I 0 W/m² 11,9 °C 13,2 °C 3,2 km/h (1 Bft)
07.06.2018 04:13 13,2 °C 92 % 1011,4 hPa 0,0 mm 1,5 km/h (1 Bft) S-SW 207 ° 0 min 0,000 mm 0,0 UV-I 0 W/m² 11,9 °C 13,2 °C 3,2 km/h (1 Bft)
07.06.2018 04:14 13,2 °C 92 % 1011,4 hPa 0,0 mm 1,7 km/h (1 Bft) S-SW 207 ° 0 min 0,000 mm 0,0 UV-I 0 W/m² 11,9 °C 13,2 °C 3,2 km/h (1 Bft)
07.06.2018 04:15 13,2 °C 92 % 1011,4 hPa 0,0 mm 1,9 km/h (1 Bft) S-SW 207 ° 0 min 0,000 mm 0,0 UV-I 0 W/m² 11,9 °C 13,2 °C 3,2 km/h (1 Bft)
07.06.2018 04:16 13,2 °C 92 % 1011,5 hPa 0,0 mm 1,5 km/h (1 Bft) S-SW 207 ° 0 min 0,000 mm 0,0 UV-I 0 W/m² 11,9 °C 13,2 °C 3,2 km/h (1 Bft)
07.06.2018 04:17 13,2 °C 92 % 1011,5 hPa 0,0 mm 0,5 km/h (0 Bft) S-SW 207 ° 0 min 0,000 mm 0,0 UV-I 0 W/m² 11,9 °C 13,2 °C 3,2 km/h (1 Bft)
07.06.2018 04:18 13,2 °C 92 % 1011,5 hPa 0,0 mm 0,0 km/h (0 Bft) S-SW 207 ° 0 min 0,000 mm 0,0 UV-I 0 W/m² 11,9 °C 13,2 °C 0,0 km/h (0 Bft)
07.06.2018 04:19 13,2 °C 92 % 1011,5 hPa 0,0 mm 0,0 km/h (0 Bft) S-SW 207 ° 0 min 0,000 mm 0,0 UV-I 0 W/m² 11,9 °C 13,2 °C 0,0 km/h (0 Bft)
07.06.2018 04:20 13,2 °C 92 % 1011,5 hPa 0,0 mm 0,0 km/h (0 Bft) S-SW 207 ° 0 min 0,000 mm 0,0 UV-I 0 W/m² 11,9 °C 13,2 °C 0,0 km/h (0 Bft)
07.06.2018 04:21 13,2 °C 92 % 1011,5 hPa 0,0 mm 0,6 km/h (0 Bft) S-SW 207 ° 0 min 0,000 mm 0,0 UV-I 0 W/m² 11,9 °C 13,2 °C 1,6 km/h (1 Bft)
07.06.2018 04:22 13,2 °C 92 % 1011,5 hPa 0,0 mm 1,1 km/h (1 Bft) S-SW 207 ° 0 min 0,000 mm 0,0 UV-I 0 W/m² 11,9 °C 13,2 °C 1,6 km/h (1 Bft)
07.06.2018 04:23 13,2 °C 92 % 1011,5 hPa 0,0 mm 0,1 km/h (0 Bft) S-SW 207 ° 0 min 0,000 mm 0,0 UV-I 0 W/m² 11,9 °C 13,2 °C 1,6 km/h (1 Bft)
07.06.2018 04:24 13,2 °C 92 % 1011,5 hPa 0,0 mm 1,0 km/h (0 Bft) S-SW 207 ° 0 min 0,000 mm 0,0 UV-I 0 W/m² 11,9 °C 13,2 °C 4,8 km/h (1 Bft)
07.06.2018 04:25 13,2 °C 92 % 1011,6 hPa 0,0 mm 5,4 km/h (1 Bft) S-SW 198 ° 0 min 0,000 mm 0,0 UV-I 0 W/m² 11,9 °C 13,2 °C 8,0 km/h (2 Bft)
07.06.2018 04:26 13,2 °C 92 % 1011,6 hPa 0,0 mm 6,4 km/h (2 Bft) S-SW 201 ° 0 min 0,000 mm 0,0 UV-I 0 W/m² 11,9 °C 13,2 °C 8,0 km/h (2 Bft)
07.06.2018 04:27 13,3 °C 91 % 1011,6 hPa 0,0 mm 6,5 km/h (2 Bft) S-SW 206 ° 0 min 0,000 mm 0,0 UV-I 0 W/m² 11,9 °C 13,3 °C 9,7 km/h (2 Bft)
07.06.2018 04:28 13,3 °C 91 % 1011,6 hPa 0,0 mm 4,0 km/h (1 Bft) S-SW 196 ° 0 min 0,000 mm 0,0 UV-I 0 W/m² 11,9 °C 13,3 °C 6,4 km/h (2 Bft)
07.06.2018 04:29 13,4 °C 91 % 1011,6 hPa 0,0 mm 7,7 km/h (2 Bft) S 189 ° 0 min 0,000 mm 0,0 UV-I 0 W/m² 12,0 °C 13,4 °C 11,3 km/h (2 Bft)
07.06.2018 04:30 13,4 °C 91 % 1011,6 hPa 0,0 mm 5,2 km/h (1 Bft) S-SW 194 ° 0 min 0,000 mm 0,0 UV-I 0 W/m² 12,0 °C 13,4 °C 9,7 km/h (2 Bft)
07.06.2018 04:31 13,5 °C 91 % 1011,6 hPa 0,0 mm 3,0 km/h (1 Bft) S-SW 194 ° 0 min 0,000 mm 0,0 UV-I 0 W/m² 12,1 °C 13,5 °C 6,4 km/h (2 Bft)
07.06.2018 04:32 13,5 °C 91 % 1011,6 hPa 0,0 mm 1,3 km/h (1 Bft) S-SW 193 ° 0 min 0,000 mm 0,0 UV-I 0 W/m² 12,1 °C 13,5 °C 3,2 km/h (1 Bft)
07.06.2018 04:33 13,5 °C 91 % 1011,6 hPa 0,0 mm 2,1 km/h (1 Bft) S-SW 193 ° 0 min 0,000 mm 0,0 UV-I 0 W/m² 12,1 °C 13,5 °C 3,2 km/h (1 Bft)
07.06.2018 04:34 13,5 °C 91 % 1011,6 hPa 0,0 mm 3,1 km/h (1 Bft) S-SW 192 ° 0 min 0,000 mm 0,0 UV-I 0 W/m² 12,1 °C 13,5 °C 4,8 km/h (1 Bft)
07.06.2018 04:35 13,5 °C 91 % 1011,7 hPa 0,0 mm 1,9 km/h (1 Bft) S-SW 192 ° 0 min 0,000 mm 0,0 UV-I 0 W/m² 12,1 °C 13,5 °C 4,8 km/h (1 Bft)
07.06.2018 04:36 13,5 °C 91 % 1011,7 hPa 0,0 mm 2,1 km/h (1 Bft) S-SW 192 ° 0 min 0,000 mm 0,0 UV-I 0 W/m² 12,1 °C 13,5 °C 3,2 km/h (1 Bft)
07.06.2018 04:37 13,5 °C 91 % 1011,7 hPa 0,0 mm 0,3 km/h (0 Bft) S-SW 192 ° 0 min 0,000 mm 0,0 UV-I 0 W/m² 12,1 °C 13,5 °C 1,6 km/h (1 Bft)
07.06.2018 04:38 13,6 °C 91 % 1011,6 hPa 0,0 mm 0,5 km/h (0 Bft) S 191 ° 0 min 0,000 mm 0,0 UV-I 0 W/m² 12,2 °C 13,6 °C 1,6 km/h (1 Bft)
07.06.2018 04:39 13,6 °C 91 % 1011,7 hPa 0,0 mm 0,0 km/h (0 Bft) S-SW 192 ° 0 min 0,000 mm 0,0 UV-I 0 W/m² 12,2 °C 13,6 °C 0,0 km/h (0 Bft)
07.06.2018 04:40 13,5 °C 91 % 1011,7 hPa 0,0 mm 0,0 km/h (0 Bft) S-SW 192 ° 0 min 0,000 mm 0,0 UV-I 0 W/m² 12,1 °C 13,5 °C 0,0 km/h (0 Bft)
07.06.2018 04:41 13,5 °C 91 % 1011,8 hPa 0,0 mm 0,3 km/h (0 Bft) S-SW 192 ° 0 min 0,000 mm 0,0 UV-I 0 W/m² 12,1 °C 13,5 °C 1,6 km/h (1 Bft)
07.06.2018 04:42 13,5 °C 91 % 1011,8 hPa 0,0 mm 0,0 km/h (0 Bft) S-SW 192 ° 0 min 0,000 mm 0,0 UV-I 0 W/m² 12,1 °C 13,5 °C 0,0 km/h (0 Bft)
07.06.2018 04:43 13,5 °C 91 % 1011,8 hPa 0,0 mm 0,0 km/h (0 Bft) S-SW 192 ° 0 min 0,000 mm 0,0 UV-I 0 W/m² 12,1 °C 13,5 °C 0,0 km/h (0 Bft)
07.06.2018 04:44 13,5 °C 91 % 1011,7 hPa 0,0 mm 0,0 km/h (0 Bft) S-SW 192 ° 0 min 0,000 mm 0,0 UV-I 0 W/m² 12,1 °C 13,5 °C 0,0 km/h (0 Bft)
07.06.2018 04:45 13,5 °C 91 % 1011,7 hPa 0,0 mm 0,9 km/h (0 Bft) NW 313 ° 0 min 0,000 mm 0,0 UV-I 0 W/m² 12,1 °C 13,5 °C 3,2 km/h (1 Bft)
07.06.2018 04:46 13,5 °C 91 % 1011,7 hPa 0,0 mm 0,2 km/h (0 Bft) NW 313 ° 0 min 0,000 mm 0,0 UV-I 0 W/m² 12,1 °C 13,5 °C 1,6 km/h (1 Bft)
07.06.2018 04:47 13,4 °C 91 % 1011,7 hPa 0,0 mm 0,0 km/h (0 Bft) NW 313 ° 0 min 0,000 mm 0,0 UV-I 0 W/m² 12,0 °C 13,4 °C 0,0 km/h (0 Bft)
07.06.2018 04:48 13,4 °C 91 % 1011,7 hPa 0,0 mm 0,0 km/h (0 Bft) NW 313 ° 0 min 0,000 mm 0,0 UV-I 0 W/m² 12,0 °C 13,4 °C 0,0 km/h (0 Bft)
07.06.2018 04:49 13,4 °C 91 % 1011,7 hPa 0,0 mm 0,0 km/h (0 Bft) NW 313 ° 0 min 0,000 mm 0,0 UV-I 0 W/m² 12,0 °C 13,4 °C 0,0 km/h (0 Bft)
07.06.2018 04:50 13,4 °C 91 % 1011,7 hPa 0,0 mm 0,0 km/h (0 Bft) NW 313 ° 0 min 0,000 mm 0,0 UV-I 0 W/m² 12,0 °C 13,4 °C 0,0 km/h (0 Bft)
07.06.2018 04:51 13,4 °C 91 % 1011,8 hPa 0,0 mm 0,0 km/h (0 Bft) NW 313 ° 0 min 0,000 mm 0,0 UV-I 0 W/m² 12,0 °C 13,4 °C 0,0 km/h (0 Bft)
07.06.2018 04:52 13,4 °C 92 % 1011,7 hPa 0,0 mm 0,0 km/h (0 Bft) NW 313 ° 0 min 0,000 mm 0,0 UV-I 0 W/m² 12,1 °C 13,4 °C 0,0 km/h (0 Bft)
07.06.2018 04:53 13,5 °C 92 % 1011,8 hPa 0,0 mm 0,0 km/h (0 Bft) NW 313 ° 0 min 0,000 mm 0,0 UV-I 0 W/m² 12,2 °C 13,5 °C 0,0 km/h (0 Bft)
07.06.2018 04:54 13,5 °C 92 % 1011,8 hPa 0,0 mm 0,8 km/h (0 Bft) NW 313 ° 0 min 0,000 mm 0,0 UV-I 0 W/m² 12,2 °C 13,5 °C 4,8 km/h (1 Bft)
07.06.2018 04:55 13,4 °C 91 % 1011,8 hPa 0,0 mm 2,3 km/h (1 Bft) NW 312 ° 0 min 0,000 mm 0,0 UV-I 0 W/m² 12,0 °C 13,4 °C 4,8 km/h (1 Bft)
07.06.2018 04:56 13,4 °C 91 % 1011,8 hPa 0,0 mm 2,7 km/h (1 Bft) NW 312 ° 0 min 0,000 mm 0,0 UV-I 0 W/m² 12,0 °C 13,4 °C 3,2 km/h (1 Bft)
07.06.2018 04:57 13,4 °C 91 % 1011,8 hPa 0,0 mm 2,7 km/h (1 Bft) NW 312 ° 0 min 0,000 mm 0,0 UV-I 0 W/m² 12,0 °C 13,4 °C 4,8 km/h (1 Bft)
07.06.2018 04:58 13,4 °C 91 % 1011,9 hPa 0,0 mm 0,5 km/h (0 Bft) NW 313 ° 0 min 0,000 mm 0,0 UV-I 0 W/m² 12,0 °C 13,4 °C 3,2 km/h (1 Bft)
07.06.2018 04:59 13,3 °C 91 % 1011,9 hPa 0,0 mm 0,2 km/h (0 Bft) NW 312 ° 0 min 0,000 mm 0,0 UV-I 0 W/m² 11,9 °C 13,3 °C 1,6 km/h (1 Bft)
07.06.2018 05:00 13,3 °C 91 % 1011,9 hPa 0,0 mm 0,0 km/h (0 Bft) NW 312 ° 0 min 0,000 mm 0,0 UV-I 0 W/m² 11,9 °C 13,3 °C 0,0 km/h (0 Bft)
07.06.2018 05:01 13,4 °C 91 % 1011,8 hPa 0,0 mm 0,2 km/h (0 Bft) NW 312 ° 0 min 0,000 mm 0,0 UV-I 0 W/m² 12,0 °C 13,4 °C 1,6 km/h (1 Bft)
07.06.2018 05:02 13,4 °C 92 % 1011,8 hPa 0,0 mm 3,6 km/h (1 Bft) SW 227 ° 0 min 0,000 mm 0,0 UV-I 0 W/m² 12,1 °C 13,4 °C 8,0 km/h (2 Bft)
07.06.2018 05:03 13,4 °C 92 % 1011,8 hPa 0,0 mm 2,4 km/h (1 Bft) SW 219 ° 0 min 0,000 mm 0,0 UV-I 0 W/m² 12,1 °C 13,4 °C 6,4 km/h (2 Bft)
07.06.2018 05:04 13,6 °C 92 % 1011,8 hPa 0,0 mm 5,5 km/h (1 Bft) S 191 ° 0 min 0,000 mm 0,0 UV-I 0 W/m² 12,3 °C 13,6 °C 9,7 km/h (2 Bft)
07.06.2018 05:05 13,6 °C 92 % 1011,8 hPa 0,0 mm 8,2 km/h (2 Bft) S-SW 209 ° 0 min 0,000 mm 0,0 UV-I 0 W/m² 12,3 °C 13,6 °C 11,3 km/h (2 Bft)
07.06.2018 05:06 13,7 °C 91 % 1011,8 hPa 0,0 mm 6,8 km/h (2 Bft) S-SW 196 ° 0 min 0,000 mm 0,0 UV-I 0 W/m² 12,3 °C 13,7 °C 9,7 km/h (2 Bft)
07.06.2018 05:07 13,7 °C 91 % 1011,9 hPa 0,0 mm 4,0 km/h (1 Bft) S-SW 196 ° 0 min 0,000 mm 0,0 UV-I 0 W/m² 12,3 °C 13,7 °C 6,4 km/h (2 Bft)
07.06.2018 05:08 13,8 °C 91 % 1011,9 hPa 0,0 mm 4,6 km/h (1 Bft) S-SW 195 ° 0 min 0,000 mm 0,0 UV-I 0 W/m² 12,4 °C 13,8 °C 6,4 km/h (2 Bft)
07.06.2018 05:09 13,8 °C 91 % 1011,9 hPa 0,0 mm 4,4 km/h (1 Bft) S-SW 195 ° 0 min 0,000 mm 0,0 UV-I 0 W/m² 12,4 °C 13,8 °C 6,4 km/h (2 Bft)
07.06.2018 05:10 13,8 °C 91 % 1011,9 hPa 0,0 mm 2,8 km/h (1 Bft) S-SW 195 ° 0 min 0,000 mm 0,0 UV-I 0 W/m² 12,4 °C 13,8 °C 4,8 km/h (1 Bft)
07.06.2018 05:11 13,8 °C 91 % 1012,0 hPa 0,0 mm 2,6 km/h (1 Bft) S-SW 195 ° 0 min 0,000 mm 0,0 UV-I 0 W/m² 12,4 °C 13,8 °C 4,8 km/h (1 Bft)
07.06.2018 05:12 13,9 °C 90 % 1012,0 hPa 0,0 mm 6,4 km/h (2 Bft) S-SW 213 ° 0 min 0,000 mm 0,0 UV-I 0 W/m² 12,3 °C 13,9 °C 8,0 km/h (2 Bft)
07.06.2018 05:13 13,9 °C 90 % 1012,0 hPa 0,0 mm 4,8 km/h (1 Bft) S-SW 209 ° 0 min 0,000 mm 0,0 UV-I 0 W/m² 12,3 °C 13,9 °C 8,0 km/h (2 Bft)
07.06.2018 05:14 13,9 °C 90 % 1012,0 hPa 0,0 mm 3,5 km/h (1 Bft) S-SW 209 ° 0 min 0,000 mm 0,0 UV-I 0 W/m² 12,3 °C 13,9 °C 4,8 km/h (1 Bft)
07.06.2018 05:15 14,0 °C 90 % 1012,0 hPa 0,0 mm 2,5 km/h (1 Bft) SW 214 ° 0 min 0,000 mm 0,0 UV-I 0 W/m² 12,4 °C 14,0 °C 4,8 km/h (1 Bft)
07.06.2018 05:16 14,0 °C 90 % 1012,0 hPa 0,0 mm 2,8 km/h (1 Bft) S 188 ° 0 min 0,000 mm 0,0 UV-I 0 W/m² 12,4 °C 14,0 °C 4,8 km/h (1 Bft)
07.06.2018 05:17 14,1 °C 90 % 1012,0 hPa 0,0 mm 4,7 km/h (1 Bft) S 173 ° 0 min 0,000 mm 0,0 UV-I 0 W/m² 12,5 °C 14,1 °C 8,0 km/h (2 Bft)
07.06.2018 05:18 14,0 °C 90 % 1012,0 hPa 0,0 mm 2,0 km/h (1 Bft) S 173 ° 0 min 0,000 mm 0,0 UV-I 0 W/m² 12,4 °C 14,0 °C 3,2 km/h (1 Bft)
07.06.2018 05:19 14,0 °C 90 % 1012,0 hPa 0,0 mm 2,4 km/h (1 Bft) S 173 ° 0 min 0,000 mm 0,0 UV-I 0 W/m² 12,4 °C 14,0 °C 4,8 km/h (1 Bft)
07.06.2018 05:20 14,0 °C 90 % 1012,1 hPa 0,0 mm 2,6 km/h (1 Bft) S 173 ° 0 min 0,000 mm 0,0 UV-I 0 W/m² 12,4 °C 14,0 °C 4,8 km/h (1 Bft)
07.06.2018 05:21 14,0 °C 90 % 1012,0 hPa 0,0 mm 2,2 km/h (1 Bft) S 173 ° 0 min 0,000 mm 0,0 UV-I 5 W/m² 12,4 °C 14,0 °C 3,2 km/h (1 Bft)
07.06.2018 05:22 14,1 °C 90 % 1012,0 hPa 0,0 mm 1,3 km/h (1 Bft) S 173 ° 0 min 0,000 mm 0,0 UV-I 5 W/m² 12,5 °C 14,1 °C 3,2 km/h (1 Bft)
07.06.2018 05:23 14,1 °C 90 % 1012,1 hPa 0,0 mm 4,8 km/h (1 Bft) S-SW 201 ° 0 min 0,000 mm 0,0 UV-I 5 W/m² 12,5 °C 14,1 °C 6,4 km/h (2 Bft)
07.06.2018 05:24 14,1 °C 89 % 1012,0 hPa 0,0 mm 1,3 km/h (1 Bft) S-SW 202 ° 0 min 0,000 mm 0,0 UV-I 5 W/m² 12,3 °C 14,1 °C 4,8 km/h (1 Bft)
07.06.2018 05:25 14,1 °C 89 % 1012,1 hPa 0,0 mm 4,4 km/h (1 Bft) S 191 ° 0 min 0,000 mm 0,0 UV-I 5 W/m² 12,3 °C 14,1 °C 9,7 km/h (2 Bft)
07.06.2018 05:26 14,2 °C 89 % 1012,1 hPa 0,0 mm 8,0 km/h (2 Bft) S-SW 196 ° 0 min 0,000 mm 0,0 UV-I 5 W/m² 12,4 °C 14,2 °C 9,7 km/h (2 Bft)
07.06.2018 05:27 14,2 °C 89 % 1012,1 hPa 0,0 mm 3,9 km/h (1 Bft) S 176 ° 0 min 0,000 mm 0,0 UV-I 5 W/m² 12,4 °C 14,2 °C 8,0 km/h (2 Bft)
07.06.2018 05:28 14,3 °C 89 % 1012,1 hPa 0,0 mm 2,3 km/h (1 Bft) S 178 ° 0 min 0,000 mm 0,0 UV-I 5 W/m² 12,5 °C 14,3 °C 4,8 km/h (1 Bft)
07.06.2018 05:29 14,4 °C 88 % 1012,1 hPa 0,0 mm 3,7 km/h (1 Bft) SW 214 ° 0 min 0,000 mm 0,0 UV-I 7 W/m² 12,4 °C 14,4 °C 9,7 km/h (2 Bft)
07.06.2018 05:30 14,5 °C 88 % 1012,2 hPa 0,0 mm 7,5 km/h (2 Bft) S-SW 205 ° 0 min 0,000 mm 0,0 UV-I 7 W/m² 12,5 °C 14,5 °C 9,7 km/h (2 Bft)
07.06.2018 05:31 14,6 °C 88 % 1012,1 hPa 0,0 mm 8,8 km/h (2 Bft) S 189 ° 0 min 0,000 mm 0,0 UV-I 9 W/m² 12,6 °C 14,6 °C 9,7 km/h (2 Bft)
07.06.2018 05:32 14,6 °C 88 % 1012,1 hPa 0,0 mm 5,0 km/h (1 Bft) S-SW 198 ° 0 min 0,000 mm 0,0 UV-I 11 W/m² 12,6 °C 14,6 °C 9,7 km/h (2 Bft)
07.06.2018 05:33 14,7 °C 88 % 1012,2 hPa 0,0 mm 5,6 km/h (1 Bft) S-SO 164 ° 0 min 0,000 mm 0,0 UV-I 11 W/m² 12,7 °C 14,7 °C 9,7 km/h (2 Bft)
07.06.2018 05:34 14,7 °C 87 % 1012,1 hPa 0,0 mm 6,4 km/h (2 Bft) S 184 ° 0 min 0,000 mm 0,0 UV-I 12 W/m² 12,6 °C 14,7 °C 9,7 km/h (2 Bft)
07.06.2018 05:35 14,7 °C 87 % 1012,1 hPa 0,0 mm 8,1 km/h (2 Bft) S 191 ° 0 min 0,000 mm 0,0 UV-I 14 W/m² 12,6 °C 14,7 °C 9,7 km/h (2 Bft)
07.06.2018 05:36 14,7 °C 87 % 1012,1 hPa 0,0 mm 2,7 km/h (1 Bft) S 181 ° 0 min 0,000 mm 0,0 UV-I 16 W/m² 12,6 °C 14,7 °C 4,8 km/h (1 Bft)
07.06.2018 05:37 14,7 °C 87 % 1012,1 hPa 0,0 mm 4,3 km/h (1 Bft) S-SW 199 ° 0 min 0,000 mm 0,0 UV-I 18 W/m² 12,6 °C 14,7 °C 8,0 km/h (2 Bft)
07.06.2018 05:38 14,8 °C 87 % 1012,1 hPa 0,0 mm 3,0 km/h (1 Bft) S-SW 203 ° 0 min 0,000 mm 0,0 UV-I 18 W/m² 12,7 °C 14,8 °C 4,8 km/h (1 Bft)
07.06.2018 05:39 14,8 °C 87 % 1012,1 hPa 0,0 mm 3,5 km/h (1 Bft) S-SW 199 ° 0 min 0,000 mm 0,0 UV-I 18 W/m² 12,7 °C 14,8 °C 4,8 km/h (1 Bft)
07.06.2018 05:40 14,8 °C 87 % 1012,2 hPa 0,0 mm 3,9 km/h (1 Bft) S-SW 193 ° 0 min 0,000 mm 0,0 UV-I 18 W/m² 12,7 °C 14,8 °C 4,8 km/h (1 Bft)
07.06.2018 05:41 14,9 °C 87 % 1012,1 hPa 0,0 mm 1,1 km/h (1 Bft) S-SW 194 ° 0 min 0,000 mm 0,0 UV-I 18 W/m² 12,8 °C 14,9 °C 4,8 km/h (1 Bft)
07.06.2018 05:42 14,9 °C 86 % 1012,2 hPa 0,0 mm 4,3 km/h (1 Bft) S 184 ° 0 min 0,000 mm 0,0 UV-I 16 W/m² 12,6 °C 14,9 °C 6,4 km/h (2 Bft)
07.06.2018 05:43 14,9 °C 87 % 1012,2 hPa 0,0 mm 1,0 km/h (0 Bft) S 184 ° 0 min 0,000 mm 0,0 UV-I 16 W/m² 12,8 °C 14,9 °C 3,2 km/h (1 Bft)
07.06.2018 05:44 14,9 °C 87 % 1012,2 hPa 0,0 mm 0,0 km/h (0 Bft) S 184 ° 0 min 0,000 mm 0,0 UV-I 18 W/m² 12,8 °C 14,9 °C 0,0 km/h (0 Bft)
07.06.2018 05:45 14,9 °C 87 % 1012,2 hPa 0,0 mm 2,9 km/h (1 Bft) S 184 ° 0 min 0,000 mm 0,0 UV-I 19 W/m² 12,8 °C 14,9 °C 6,4 km/h (2 Bft)
07.06.2018 05:46 15,0 °C 86 % 1012,2 hPa 0,0 mm 2,8 km/h (1 Bft) S 179 ° 0 min 0,000 mm 0,0 UV-I 19 W/m² 12,7 °C 15,0 °C 6,4 km/h (2 Bft)
07.06.2018 05:47 15,0 °C 86 % 1012,2 hPa 0,0 mm 2,2 km/h (1 Bft) S 173 ° 0 min 0,000 mm 0,0 UV-I 21 W/m² 12,7 °C 15,0 °C 4,8 km/h (1 Bft)
07.06.2018 05:48 15,0 °C 87 % 1012,2 hPa 0,0 mm 1,3 km/h (1 Bft) S 173 ° 0 min 0,000 mm 0,0 UV-I 23 W/m² 12,9 °C 15,0 °C 3,2 km/h (1 Bft)
07.06.2018 05:49 14,9 °C 87 % 1012,2 hPa 0,0 mm 0,9 km/h (0 Bft) S 175 ° 0 min 0,000 mm 0,0 UV-I 25 W/m² 12,8 °C 14,9 °C 3,2 km/h (1 Bft)
07.06.2018 05:50 14,9 °C 87 % 1012,2 hPa 0,0 mm 0,1 km/h (0 Bft) S 175 ° 0 min 0,000 mm 0,0 UV-I 26 W/m² 12,8 °C 14,9 °C 1,6 km/h (1 Bft)
07.06.2018 05:51 14,9 °C 87 % 1012,3 hPa 0,0 mm 1,5 km/h (1 Bft) S-SW 194 ° 0 min 0,000 mm 0,0 UV-I 26 W/m² 12,8 °C 14,9 °C 3,2 km/h (1 Bft)
07.06.2018 05:52 14,9 °C 87 % 1012,2 hPa 0,0 mm 0,3 km/h (0 Bft) S-SW 207 ° 0 min 0,000 mm 0,0 UV-I 26 W/m² 12,8 °C 14,9 °C 4,8 km/h (1 Bft)
07.06.2018 05:53 14,9 °C 87 % 1012,2 hPa 0,0 mm 2,9 km/h (1 Bft) S 178 ° 0 min 0,000 mm 0,0 UV-I 26 W/m² 12,8 °C 14,9 °C 8,0 km/h (2 Bft)
07.06.2018 05:54 14,9 °C 87 % 1012,3 hPa 0,0 mm 2,0 km/h (1 Bft) S-SW 209 ° 0 min 0,000 mm 0,0 UV-I 26 W/m² 12,8 °C 14,9 °C 4,8 km/h (1 Bft)
07.06.2018 05:55 15,0 °C 87 % 1012,3 hPa 0,0 mm 2,3 km/h (1 Bft) S-SW 204 ° 0 min 0,000 mm 0,0 UV-I 26 W/m² 12,9 °C 15,0 °C 4,8 km/h (1 Bft)
07.06.2018 05:56 15,0 °C 87 % 1012,3 hPa 0,0 mm 2,1 km/h (1 Bft) W-SW 240 ° 0 min 0,000 mm 0,0 UV-I 26 W/m² 12,9 °C 15,0 °C 4,8 km/h (1 Bft)
07.06.2018 05:57 15,0 °C 87 % 1012,4 hPa 0,0 mm 0,9 km/h (0 Bft) W-SW 240 ° 0 min 0,000 mm 0,0 UV-I 26 W/m² 12,9 °C 15,0 °C 3,2 km/h (1 Bft)
07.06.2018 05:58 15,1 °C 87 % 1012,3 hPa 0,0 mm 0,7 km/h (0 Bft) W-SW 240 ° 0 min 0,000 mm 0,0 UV-I 26 W/m² 13,0 °C 15,1 °C 3,2 km/h (1 Bft)
07.06.2018 05:59 15,0 °C 87 % 1012,4 hPa 0,0 mm 3,6 km/h (1 Bft) W-SW 243 ° 0 min 0,000 mm 0,0 UV-I 26 W/m² 12,9 °C 15,0 °C 4,8 km/h (1 Bft)
07.06.2018 06:00 15,1 °C 86 % 1012,3 hPa 0,0 mm 2,5 km/h (1 Bft) W-SW 243 ° 0 min 0,000 mm 0,0 UV-I 26 W/m² 12,8 °C 15,1 °C 3,2 km/h (1 Bft)
07.06.2018 06:01 15,1 °C 86 % 1012,4 hPa 0,0 mm 1,1 km/h (1 Bft) W-SW 243 ° 0 min 0,000 mm 0,0 UV-I 26 W/m² 12,8 °C 15,1 °C 3,2 km/h (1 Bft)
07.06.2018 06:02 15,1 °C 86 % 1012,4 hPa 0,0 mm 0,1 km/h (0 Bft) W-SW 243 ° 0 min 0,000 mm 0,0 UV-I 26 W/m² 12,8 °C 15,1 °C 1,6 km/h (1 Bft)
07.06.2018 06:03 15,1 °C 86 % 1012,4 hPa 0,0 mm 2,6 km/h (1 Bft) S-SW 207 ° 0 min 0,000 mm 0,0 UV-I 28 W/m² 12,8 °C 15,1 °C 4,8 km/h (1 Bft)
07.06.2018 06:04 15,0 °C 86 % 1012,5 hPa 0,0 mm 6,5 km/h (2 Bft) S-SW 196 ° 0 min 0,000 mm 0,0 UV-I 28 W/m² 12,7 °C 15,0 °C 9,7 km/h (2 Bft)
07.06.2018 06:05 15,0 °C 87 % 1012,5 hPa 0,0 mm 5,6 km/h (1 Bft) S-SW 197 ° 0 min 0,000 mm 0,0 UV-I 30 W/m² 12,9 °C 15,0 °C 8,0 km/h (2 Bft)
07.06.2018 06:06 15,0 °C 87 % 1012,5 hPa 0,0 mm 8,2 km/h (2 Bft) S-SW 207 ° 0 min 0,000 mm 0,0 UV-I 32 W/m² 12,9 °C 15,0 °C 11,3 km/h (2 Bft)
07.06.2018 06:07 14,9 °C 87 % 1012,5 hPa 0,0 mm 6,5 km/h (2 Bft) S-SW 194 ° 0 min 0,000 mm 0,0 UV-I 33 W/m² 12,8 °C 14,9 °C 9,7 km/h (2 Bft)
07.06.2018 06:08 14,9 °C 87 % 1012,5 hPa 0,0 mm 5,4 km/h (1 Bft) S-SW 205 ° 0 min 0,000 mm 0,0 UV-I 33 W/m² 12,8 °C 14,9 °C 9,7 km/h (2 Bft)
07.06.2018 06:09 14,9 °C 87 % 1012,5 hPa 0,0 mm 1,8 km/h (1 Bft) S-SW 198 ° 0 min 0,000 mm 0,0 UV-I 35 W/m² 12,8 °C 14,9 °C 6,4 km/h (2 Bft)
07.06.2018 06:10 14,9 °C 87 % 1012,6 hPa 0,0 mm 0,1 km/h (0 Bft) S-SW 198 ° 0 min 0,000 mm 0,0 UV-I 35 W/m² 12,8 °C 14,9 °C 1,6 km/h (1 Bft)
07.06.2018 06:11 14,9 °C 87 % 1012,6 hPa 0,0 mm 4,9 km/h (1 Bft) S-SW 202 ° 0 min 0,000 mm 0,0 UV-I 35 W/m² 12,8 °C 14,9 °C 9,7 km/h (2 Bft)
07.06.2018 06:12 14,9 °C 87 % 1012,6 hPa 0,0 mm 2,4 km/h (1 Bft) S 188 ° 0 min 0,000 mm 0,0 UV-I 35 W/m² 12,8 °C 14,9 °C 6,4 km/h (2 Bft)
07.06.2018 06:13 14,9 °C 87 % 1012,6 hPa 0,0 mm 2,4 km/h (1 Bft) S 188 ° 0 min 0,000 mm 0,0 UV-I 35 W/m² 12,8 °C 14,9 °C 3,2 km/h (1 Bft)
07.06.2018 06:14 14,9 °C 87 % 1012,6 hPa 0,0 mm 4,0 km/h (1 Bft) SW 221 ° 0 min 0,000 mm 0,0 UV-I 37 W/m² 12,8 °C 14,9 °C 4,8 km/h (1 Bft)
07.06.2018 06:15 14,9 °C 87 % 1012,7 hPa 0,0 mm 3,8 km/h (1 Bft) SW 217 ° 0 min 0,000 mm 0,0 UV-I 37 W/m² 12,8 °C 14,9 °C 4,8 km/h (1 Bft)
07.06.2018 06:16 14,9 °C 87 % 1012,7 hPa 0,0 mm 3,6 km/h (1 Bft) S 190 ° 0 min 0,000 mm 0,0 UV-I 39 W/m² 12,8 °C 14,9 °C 6,4 km/h (2 Bft)
07.06.2018 06:17 14,9 °C 88 % 1012,6 hPa 0,0 mm 2,2 km/h (1 Bft) S 190 ° 0 min 0,000 mm 0,0 UV-I 39 W/m² 12,9 °C 14,9 °C 4,8 km/h (1 Bft)
07.06.2018 06:18 14,8 °C 88 % 1012,7 hPa 0,0 mm 3,3 km/h (1 Bft) S 190 ° 0 min 0,000 mm 0,0 UV-I 40 W/m² 12,8 °C 14,8 °C 4,8 km/h (1 Bft)
07.06.2018 06:19 14,8 °C 88 % 1012,6 hPa 0,0 mm 1,4 km/h (1 Bft) W-SW 238 ° 0 min 0,000 mm 0,0 UV-I 42 W/m² 12,8 °C 14,8 °C 4,8 km/h (1 Bft)
07.06.2018 06:20 14,8 °C 88 % 1012,7 hPa 0,0 mm 1,1 km/h (1 Bft) W-SW 238 ° 0 min 0,000 mm 0,0 UV-I 44 W/m² 12,8 °C 14,8 °C 3,2 km/h (1 Bft)
07.06.2018 06:21 14,8 °C 88 % 1012,7 hPa 0,0 mm 0,6 km/h (0 Bft) W-SW 238 ° 0 min 0,000 mm 0,0 UV-I 46 W/m² 12,8 °C 14,8 °C 3,2 km/h (1 Bft)
07.06.2018 06:22 14,9 °C 88 % 1012,6 hPa 0,0 mm 4,0 km/h (1 Bft) S-SW 193 ° 0 min 0,000 mm 0,0 UV-I 46 W/m² 12,9 °C 14,9 °C 6,4 km/h (2 Bft)
07.06.2018 06:23 14,9 °C 88 % 1012,7 hPa 0,0 mm 0,7 km/h (0 Bft) S-SW 193 ° 0 min 0,000 mm 0,0 UV-I 47 W/m² 12,9 °C 14,9 °C 3,2 km/h (1 Bft)
07.06.2018 06:24 15,0 °C 88 % 1012,7 hPa 0,0 mm 3,4 km/h (1 Bft) S 190 ° 0 min 0,000 mm 0,0 UV-I 47 W/m² 13,0 °C 15,0 °C 4,8 km/h (1 Bft)
07.06.2018 06:25 15,0 °C 88 % 1012,6 hPa 0,0 mm 2,2 km/h (1 Bft) S 190 ° 0 min 0,000 mm 0,0 UV-I 47 W/m² 13,0 °C 15,0 °C 4,8 km/h (1 Bft)
07.06.2018 06:26 15,1 °C 88 % 1012,7 hPa 0,0 mm 2,7 km/h (1 Bft) S 176 ° 0 min 0,000 mm 0,0 UV-I 47 W/m² 13,1 °C 15,1 °C 6,4 km/h (2 Bft)
07.06.2018 06:27 15,1 °C 88 % 1012,7 hPa 0,0 mm 2,9 km/h (1 Bft) S 175 ° 0 min 0,000 mm 0,0 UV-I 47 W/m² 13,1 °C 15,1 °C 6,4 km/h (2 Bft)
07.06.2018 06:28 15,2 °C 88 % 1012,7 hPa 0,0 mm 0,5 km/h (0 Bft) S 175 ° 0 min 0,000 mm 0,0 UV-I 47 W/m² 13,2 °C 15,2 °C 3,2 km/h (1 Bft)
07.06.2018 06:29 15,2 °C 88 % 1012,7 hPa 0,0 mm 1,5 km/h (1 Bft) S 175 ° 0 min 0,000 mm 0,0 UV-I 47 W/m² 13,2 °C 15,2 °C 3,2 km/h (1 Bft)
07.06.2018 06:30 15,2 °C 88 % 1012,7 hPa 0,0 mm 0,1 km/h (0 Bft) S 175 ° 0 min 0,000 mm 0,0 UV-I 47 W/m² 13,2 °C 15,2 °C 1,6 km/h (1 Bft)
07.06.2018 06:31 15,2 °C 88 % 1012,7 hPa 0,0 mm 1,0 km/h (0 Bft) S 175 ° 0 min 0,000 mm 0,0 UV-I 49 W/m² 13,2 °C 15,2 °C 3,2 km/h (1 Bft)
07.06.2018 06:32 15,2 °C 88 % 1012,7 hPa 0,0 mm 0,0 km/h (0 Bft) S 175 ° 0 min 0,000 mm 0,0 UV-I 49 W/m² 13,2 °C 15,2 °C 0,0 km/h (0 Bft)
07.06.2018 06:33 15,3 °C 88 % 1012,7 hPa 0,0 mm 0,0 km/h (0 Bft) S 175 ° 0 min 0,000 mm 0,0 UV-I 49 W/m² 13,3 °C 15,3 °C 0,0 km/h (0 Bft)
07.06.2018 06:34 15,3 °C 88 % 1012,8 hPa 0,0 mm 3,4 km/h (1 Bft) S-SW 192 ° 0 min 0,000 mm 0,0 UV-I 51 W/m² 13,3 °C 15,3 °C 6,4 km/h (2 Bft)
07.06.2018 06:35 15,3 °C 87 % 1012,8 hPa 0,0 mm 1,9 km/h (1 Bft) S-SW 192 ° 0 min 0,000 mm 0,0 UV-I 53 W/m² 13,1 °C 15,3 °C 4,8 km/h (1 Bft)
07.06.2018 06:36 15,3 °C 87 % 1012,8 hPa 0,0 mm 0,0 km/h (0 Bft) S-SW 192 ° 0 min 0,000 mm 0,0 UV-I 53 W/m² 13,1 °C 15,3 °C 0,0 km/h (0 Bft)
07.06.2018 06:37 15,4 °C 87 % 1012,8 hPa 0,0 mm 0,4 km/h (0 Bft) S-SW 192 ° 0 min 0,000 mm 0,0 UV-I 58 W/m² 13,2 °C 15,4 °C 1,6 km/h (1 Bft)
07.06.2018 06:38 15,4 °C 87 % 1012,8 hPa 0,0 mm 1,5 km/h (1 Bft) S-SW 193 ° 0 min 0,000 mm 0,0 UV-I 60 W/m² 13,2 °C 15,4 °C 3,2 km/h (1 Bft)
07.06.2018 06:39 15,4 °C 87 % 1012,8 hPa 0,0 mm 1,2 km/h (1 Bft) S-SW 210 ° 0 min 0,000 mm 0,0 UV-I 62 W/m² 13,2 °C 15,4 °C 3,2 km/h (1 Bft)
07.06.2018 06:40 15,4 °C 87 % 1012,8 hPa 0,0 mm 1,8 km/h (1 Bft) S-SW 210 ° 0 min 0,000 mm 0,0 UV-I 62 W/m² 13,2 °C 15,4 °C 3,2 km/h (1 Bft)
07.06.2018 06:41 15,4 °C 87 % 1012,8 hPa 0,0 mm 3,8 km/h (1 Bft) W-SW 246 ° 0 min 0,000 mm 0,0 UV-I 63 W/m² 13,2 °C 15,4 °C 8,0 km/h (2 Bft)
07.06.2018 06:42 15,5 °C 87 % 1012,8 hPa 0,0 mm 0,9 km/h (0 Bft) W-SW 246 ° 0 min 0,000 mm 0,0 UV-I 65 W/m² 13,3 °C 15,5 °C 3,2 km/h (1 Bft)
07.06.2018 06:43 15,5 °C 87 % 1012,8 hPa 0,0 mm 2,1 km/h (1 Bft) W-SW 247 ° 0 min 0,000 mm 0,0 UV-I 65 W/m² 13,3 °C 15,5 °C 4,8 km/h (1 Bft)
07.06.2018 06:44 15,5 °C 88 % 1012,8 hPa 0,0 mm 4,3 km/h (1 Bft) S-SW 192 ° 0 min 0,000 mm 0,0 UV-I 65 W/m² 13,5 °C 15,5 °C 8,0 km/h (2 Bft)
07.06.2018 06:45 15,5 °C 88 % 1012,8 hPa 0,0 mm 1,6 km/h (1 Bft) S-SW 207 ° 0 min 0,000 mm 0,0 UV-I 65 W/m² 13,5 °C 15,5 °C 3,2 km/h (1 Bft)
07.06.2018 06:46 15,6 °C 88 % 1012,8 hPa 0,0 mm 3,8 km/h (1 Bft) S 183 ° 0 min 0,000 mm 0,0 UV-I 65 W/m² 13,6 °C 15,6 °C 8,0 km/h (2 Bft)
07.06.2018 06:47 15,6 °C 88 % 1012,9 hPa 0,0 mm 3,7 km/h (1 Bft) S 184 ° 0 min 0,000 mm 0,0 UV-I 63 W/m² 13,6 °C 15,6 °C 6,4 km/h (2 Bft)
07.06.2018 06:48 15,6 °C 88 % 1012,9 hPa 0,0 mm 5,6 km/h (1 Bft) W-SW 257 ° 0 min 0,000 mm 0,0 UV-I 65 W/m² 13,6 °C 15,6 °C 11,3 km/h (2 Bft)
07.06.2018 06:49 15,6 °C 88 % 1012,9 hPa 0,0 mm 3,3 km/h (1 Bft) S-SW 206 ° 0 min 0,000 mm 0,0 UV-I 65 W/m² 13,6 °C 15,6 °C 4,8 km/h (1 Bft)
07.06.2018 06:50 15,7 °C 88 % 1012,9 hPa 0,0 mm 2,5 km/h (1 Bft) SW 221 ° 0 min 0,000 mm 0,0 UV-I 67 W/m² 13,7 °C 15,7 °C 4,8 km/h (1 Bft)
07.06.2018 06:51 15,7 °C 88 % 1012,9 hPa 0,0 mm 3,1 km/h (1 Bft) SW 229 ° 0 min 0,000 mm 0,0 UV-I 67 W/m² 13,7 °C 15,7 °C 4,8 km/h (1 Bft)
07.06.2018 06:52 15,7 °C 88 % 1012,9 hPa 0,0 mm 1,9 km/h (1 Bft) W-SW 240 ° 0 min 0,000 mm 0,0 UV-I 69 W/m² 13,7 °C 15,7 °C 4,8 km/h (1 Bft)
07.06.2018 06:53 15,8 °C 88 % 1012,9 hPa 0,0 mm 0,0 km/h (0 Bft) W-SW 240 ° 0 min 0,000 mm 0,0 UV-I 69 W/m² 13,8 °C 15,8 °C 0,0 km/h (0 Bft)
07.06.2018 06:54 15,8 °C 89 % 1012,9 hPa 0,0 mm 2,3 km/h (1 Bft) W-SW 246 ° 0 min 0,000 mm 0,0 UV-I 69 W/m² 14,0 °C 15,8 °C 9,7 km/h (2 Bft)
07.06.2018 06:55 15,8 °C 89 % 1012,9 hPa 0,0 mm 2,1 km/h (1 Bft) S-SW 203 ° 0 min 0,000 mm 0,0 UV-I 69 W/m² 14,0 °C 15,8 °C 4,8 km/h (1 Bft)
07.06.2018 06:56 15,8 °C 89 % 1012,9 hPa 0,0 mm 0,5 km/h (0 Bft) S-SW 203 ° 0 min 0,000 mm 0,0 UV-I 69 W/m² 14,0 °C 15,8 °C 3,2 km/h (1 Bft)
07.06.2018 06:57 15,8 °C 89 % 1012,9 hPa 0,0 mm 1,0 km/h (0 Bft) S-SW 203 ° 0 min 0,000 mm 0,0 UV-I 69 W/m² 14,0 °C 15,8 °C 3,2 km/h (1 Bft)
07.06.2018 06:58 15,9 °C 88 % 1013,0 hPa 0,0 mm 2,3 km/h (1 Bft) S-SW 202 ° 0 min 0,000 mm 0,0 UV-I 70 W/m² 13,9 °C 15,9 °C 4,8 km/h (1 Bft)
07.06.2018 06:59 15,9 °C 88 % 1012,9 hPa 0,0 mm 2,3 km/h (1 Bft) S 178 ° 0 min 0,000 mm 0,0 UV-I 70 W/m² 13,9 °C 15,9 °C 4,8 km/h (1 Bft)
07.06.2018 07:00 15,9 °C 89 % 1012,8 hPa 0,0 mm 0,5 km/h (0 Bft) S 177 ° 0 min 0,000 mm 0,0 UV-I 72 W/m² 14,1 °C 15,9 °C 1,6 km/h (1 Bft)
07.06.2018 07:01 15,9 °C 88 % 1012,9 hPa 0,0 mm 4,8 km/h (1 Bft) SW 227 ° 0 min 0,025 mm 0,0 UV-I 76 W/m² 13,9 °C 15,9 °C 6,4 km/h (2 Bft)
07.06.2018 07:02 15,9 °C 88 % 1012,9 hPa 0,0 mm 1,9 km/h (1 Bft) SW 217 ° 0 min 0,000 mm 0,5 UV-I 76 W/m² 13,9 °C 15,9 °C 4,8 km/h (1 Bft)
07.06.2018 07:03 15,9 °C 88 % 1012,9 hPa 0,0 mm 2,1 km/h (1 Bft) SW 222 ° 0 min 0,000 mm 0,5 UV-I 77 W/m² 13,9 °C 15,9 °C 3,2 km/h (1 Bft)
07.06.2018 07:04 15,9 °C 88 % 1013,0 hPa 0,0 mm 2,8 km/h (1 Bft) S 182 ° 0 min 0,000 mm 0,5 UV-I 77 W/m² 13,9 °C 15,9 °C 6,4 km/h (2 Bft)
07.06.2018 07:05 15,9 °C 88 % 1012,9 hPa 0,0 mm 0,0 km/h (0 Bft) S 182 ° 0 min 0,000 mm 0,5 UV-I 77 W/m² 13,9 °C 15,9 °C 0,0 km/h (0 Bft)
07.06.2018 07:06 16,0 °C 88 % 1012,9 hPa 0,0 mm 0,2 km/h (0 Bft) S 182 ° 0 min 0,000 mm 0,5 UV-I 77 W/m² 14,0 °C 16,0 °C 1,6 km/h (1 Bft)
07.06.2018 07:07 16,0 °C 88 % 1012,9 hPa 0,0 mm 3,8 km/h (1 Bft) W 259 ° 0 min 0,000 mm 0,5 UV-I 76 W/m² 14,0 °C 16,0 °C 6,4 km/h (2 Bft)
07.06.2018 07:08 16,1 °C 88 % 1012,9 hPa 0,0 mm 0,9 km/h (0 Bft) SW 224 ° 0 min 0,000 mm 0,5 UV-I 76 W/m² 14,1 °C 16,1 °C 3,2 km/h (1 Bft)
07.06.2018 07:09 16,1 °C 88 % 1012,9 hPa 0,0 mm 2,1 km/h (1 Bft) S-SW 198 ° 0 min 0,000 mm 0,5 UV-I 76 W/m² 14,1 °C 16,1 °C 4,8 km/h (1 Bft)
07.06.2018 07:10 16,1 °C 88 % 1012,9 hPa 0,0 mm 4,4 km/h (1 Bft) S-SW 194 ° 0 min 0,000 mm 0,5 UV-I 76 W/m² 14,1 °C 16,1 °C 6,4 km/h (2 Bft)
07.06.2018 07:11 16,1 °C 88 % 1012,9 hPa 0,0 mm 2,6 km/h (1 Bft) S-SW 194 ° 0 min 0,000 mm 0,5 UV-I 77 W/m² 14,1 °C 16,1 °C 4,8 km/h (1 Bft)
07.06.2018 07:12 16,1 °C 88 % 1012,9 hPa 0,0 mm 1,9 km/h (1 Bft) S-SW 194 ° 0 min 0,000 mm 0,5 UV-I 77 W/m² 14,1 °C 16,1 °C 4,8 km/h (1 Bft)
07.06.2018 07:13 16,1 °C 88 % 1012,9 hPa 0,0 mm 3,1 km/h (1 Bft) S-SW 192 ° 0 min 0,000 mm 0,5 UV-I 77 W/m² 14,1 °C 16,1 °C 6,4 km/h (2 Bft)
07.06.2018 07:14 16,0 °C 88 % 1012,9 hPa 0,0 mm 1,2 km/h (1 Bft) S-SW 197 ° 0 min 0,000 mm 0,5 UV-I 77 W/m² 14,0 °C 16,0 °C 3,2 km/h (1 Bft)
07.06.2018 07:15 16,0 °C 88 % 1012,9 hPa 0,0 mm 1,3 km/h (1 Bft) S-SW 194 ° 0 min 0,000 mm 0,5 UV-I 77 W/m² 14,0 °C 16,0 °C 3,2 km/h (1 Bft)
07.06.2018 07:16 16,1 °C 88 % 1012,9 hPa 0,0 mm 0,5 km/h (0 Bft) S-SW 194 ° 0 min 0,000 mm 0,5 UV-I 77 W/m² 14,1 °C 16,1 °C 1,6 km/h (1 Bft)
07.06.2018 07:17 16,1 °C 88 % 1012,9 hPa 0,0 mm 0,0 km/h (0 Bft) S-SW 194 ° 0 min 0,000 mm 0,5 UV-I 77 W/m² 14,1 °C 16,1 °C 0,0 km/h (0 Bft)
07.06.2018 07:18 16,1 °C 88 % 1012,9 hPa 0,0 mm 1,0 km/h (0 Bft) S-SW 194 ° 0 min 0,000 mm 0,5 UV-I 79 W/m² 14,1 °C 16,1 °C 4,8 km/h (1 Bft)
07.06.2018 07:19 16,1 °C 88 % 1012,8 hPa 0,0 mm 4,9 km/h (1 Bft) S-SW 196 ° 0 min 0,000 mm 0,5 UV-I 81 W/m² 14,1 °C 16,1 °C 9,7 km/h (2 Bft)
07.06.2018 07:20 16,1 °C 88 % 1012,9 hPa 0,0 mm 0,8 km/h (0 Bft) S-SW 196 ° 0 min 0,000 mm 0,6 UV-I 81 W/m² 14,1 °C 16,1 °C 3,2 km/h (1 Bft)
07.06.2018 07:21 16,1 °C 88 % 1012,9 hPa 0,0 mm 2,1 km/h (1 Bft) S-SW 196 ° 0 min 0,000 mm 0,6 UV-I 83 W/m² 14,1 °C 16,1 °C 4,8 km/h (1 Bft)
07.06.2018 07:22 16,1 °C 88 % 1012,9 hPa 0,0 mm 3,5 km/h (1 Bft) S-SW 197 ° 0 min 0,000 mm 0,6 UV-I 83 W/m² 14,1 °C 16,1 °C 6,4 km/h (2 Bft)
07.06.2018 07:23 16,1 °C 88 % 1012,9 hPa 0,0 mm 5,3 km/h (1 Bft) S 188 ° 0 min 0,000 mm 0,6 UV-I 84 W/m² 14,1 °C 16,1 °C 8,0 km/h (2 Bft)
07.06.2018 07:24 16,1 °C 88 % 1012,9 hPa 0,0 mm 1,2 km/h (1 Bft) S 188 ° 0 min 0,000 mm 0,6 UV-I 84 W/m² 14,1 °C 16,1 °C 3,2 km/h (1 Bft)
07.06.2018 07:25 16,2 °C 88 % 1012,9 hPa 0,0 mm 1,3 km/h (1 Bft) S 188 ° 0 min 0,000 mm 0,6 UV-I 84 W/m² 14,2 °C 16,2 °C 3,2 km/h (1 Bft)
07.06.2018 07:26 16,1 °C 88 % 1012,9 hPa 0,0 mm 1,9 km/h (1 Bft) S-SW 204 ° 0 min 0,000 mm 0,6 UV-I 84 W/m² 14,1 °C 16,1 °C 3,2 km/h (1 Bft)
07.06.2018 07:27 16,1 °C 88 % 1012,9 hPa 0,0 mm 1,9 km/h (1 Bft) SW 222 ° 0 min 0,000 mm 0,6 UV-I 84 W/m² 14,1 °C 16,1 °C 4,8 km/h (1 Bft)
07.06.2018 07:28 16,2 °C 89 % 1012,9 hPa 0,0 mm 0,0 km/h (0 Bft) SW 222 ° 0 min 0,000 mm 0,6 UV-I 84 W/m² 14,4 °C 16,2 °C 0,0 km/h (0 Bft)
07.06.2018 07:29 16,1 °C 89 % 1012,9 hPa 0,0 mm 2,5 km/h (1 Bft) SW 216 ° 0 min 0,000 mm 0,6 UV-I 86 W/m² 14,3 °C 16,1 °C 4,8 km/h (1 Bft)
07.06.2018 07:30 16,1 °C 89 % 1012,9 hPa 0,0 mm 3,6 km/h (1 Bft) S 184 ° 0 min 0,000 mm 0,6 UV-I 88 W/m² 14,3 °C 16,1 °C 4,8 km/h (1 Bft)
07.06.2018 07:31 16,1 °C 89 % 1012,9 hPa 0,0 mm 2,2 km/h (1 Bft) S-SW 205 ° 0 min 0,000 mm 0,6 UV-I 90 W/m² 14,3 °C 16,1 °C 3,2 km/h (1 Bft)
07.06.2018 07:32 16,1 °C 89 % 1012,9 hPa 0,0 mm 0,3 km/h (0 Bft) SW 216 ° 0 min 0,000 mm 0,6 UV-I 90 W/m² 14,3 °C 16,1 °C 1,6 km/h (1 Bft)
07.06.2018 07:33 16,1 °C 89 % 1012,9 hPa 0,0 mm 2,5 km/h (1 Bft) S 191 ° 0 min 0,000 mm 0,6 UV-I 91 W/m² 14,3 °C 16,1 °C 6,4 km/h (2 Bft)
07.06.2018 07:34 16,1 °C 89 % 1013,0 hPa 0,0 mm 2,5 km/h (1 Bft) S 188 ° 0 min 0,000 mm 0,6 UV-I 91 W/m² 14,3 °C 16,1 °C 4,8 km/h (1 Bft)
07.06.2018 07:35 16,2 °C 89 % 1013,0 hPa 0,0 mm 3,0 km/h (1 Bft) S-SW 200 ° 0 min 0,000 mm 0,6 UV-I 93 W/m² 14,4 °C 16,2 °C 8,0 km/h (2 Bft)
07.06.2018 07:36 16,2 °C 89 % 1013,0 hPa 0,0 mm 1,7 km/h (1 Bft) S-SW 200 ° 0 min 0,000 mm 0,6 UV-I 93 W/m² 14,4 °C 16,2 °C 4,8 km/h (1 Bft)
07.06.2018 07:37 16,2 °C 88 % 1013,0 hPa 0,0 mm 2,3 km/h (1 Bft) S-SW 196 ° 0 min 0,000 mm 0,6 UV-I 93 W/m² 14,2 °C 16,2 °C 4,8 km/h (1 Bft)
07.06.2018 07:38 16,3 °C 88 % 1013,0 hPa 0,0 mm 2,6 km/h (1 Bft) S 176 ° 0 min 0,000 mm 0,6 UV-I 93 W/m² 14,3 °C 16,3 °C 11,3 km/h (2 Bft)
07.06.2018 07:39 16,3 °C 88 % 1013,0 hPa 0,0 mm 5,9 km/h (2 Bft) W-SW 243 ° 0 min 0,000 mm 0,6 UV-I 93 W/m² 14,3 °C 16,3 °C 11,3 km/h (2 Bft)
07.06.2018 07:40 16,3 °C 88 % 1013,1 hPa 0,0 mm 3,0 km/h (1 Bft) W-SW 244 ° 0 min 0,000 mm 0,6 UV-I 91 W/m² 14,3 °C 16,3 °C 6,4 km/h (2 Bft)
07.06.2018 07:41 16,3 °C 88 % 1013,1 hPa 0,0 mm 0,6 km/h (0 Bft) W-SW 244 ° 0 min 0,000 mm 0,6 UV-I 91 W/m² 14,3 °C 16,3 °C 1,6 km/h (1 Bft)
07.06.2018 07:42 16,3 °C 88 % 1013,1 hPa 0,0 mm 1,8 km/h (1 Bft) W-SW 250 ° 0 min 0,000 mm 0,6 UV-I 91 W/m² 14,3 °C 16,3 °C 3,2 km/h (1 Bft)
07.06.2018 07:43 16,3 °C 88 % 1013,1 hPa 0,0 mm 0,0 km/h (0 Bft) W-SW 250 ° 0 min 0,000 mm 0,6 UV-I 91 W/m² 14,3 °C 16,3 °C 0,0 km/h (0 Bft)
07.06.2018 07:44 16,3 °C 88 % 1013,0 hPa 0,0 mm 0,0 km/h (0 Bft) W-SW 250 ° 0 min 0,000 mm 0,6 UV-I 93 W/m² 14,3 °C 16,3 °C 0,0 km/h (0 Bft)
07.06.2018 07:45 16,3 °C 88 % 1013,1 hPa 0,0 mm 0,8 km/h (0 Bft) W-SW 250 ° 0 min 0,000 mm 0,6 UV-I 93 W/m² 14,3 °C 16,3 °C 3,2 km/h (1 Bft)
07.06.2018 07:46 16,3 °C 88 % 1013,0 hPa 0,0 mm 1,1 km/h (1 Bft) W-SW 250 ° 0 min 0,000 mm 0,6 UV-I 95 W/m² 14,3 °C 16,3 °C 3,2 km/h (1 Bft)
07.06.2018 07:47 16,3 °C 88 % 1013,0 hPa 0,0 mm 2,9 km/h (1 Bft) S-SW 197 ° 0 min 0,000 mm 0,6 UV-I 98 W/m² 14,3 °C 16,3 °C 4,8 km/h (1 Bft)
07.06.2018 07:48 16,3 °C 88 % 1013,1 hPa 0,0 mm 2,9 km/h (1 Bft) S-SW 195 ° 0 min 0,000 mm 0,6 UV-I 102 W/m² 14,3 °C 16,3 °C 4,8 km/h (1 Bft)
07.06.2018 07:49 16,3 °C 88 % 1013,1 hPa 0,0 mm 2,9 km/h (1 Bft) S-SW 195 ° 0 min 0,000 mm 0,7 UV-I 104 W/m² 14,3 °C 16,3 °C 4,8 km/h (1 Bft)
07.06.2018 07:50 16,3 °C 88 % 1013,1 hPa 0,0 mm 1,5 km/h (1 Bft) S-SW 196 ° 0 min 0,000 mm 0,7 UV-I 105 W/m² 14,3 °C 16,3 °C 3,2 km/h (1 Bft)
07.06.2018 07:51 16,3 °C 88 % 1013,1 hPa 0,0 mm 0,1 km/h (0 Bft) S-SW 196 ° 0 min 0,000 mm 0,7 UV-I 105 W/m² 14,3 °C 16,3 °C 1,6 km/h (1 Bft)
07.06.2018 07:52 16,4 °C 88 % 1013,1 hPa 0,0 mm 0,7 km/h (0 Bft) S-SW 199 ° 0 min 0,000 mm 0,7 UV-I 107 W/m² 14,4 °C 16,4 °C 3,2 km/h (1 Bft)
07.06.2018 07:53 16,4 °C 88 % 1013,1 hPa 0,0 mm 0,0 km/h (0 Bft) S-SW 199 ° 0 min 0,000 mm 0,7 UV-I 107 W/m² 14,4 °C 16,4 °C 0,0 km/h (0 Bft)
07.06.2018 07:54 16,4 °C 88 % 1013,2 hPa 0,0 mm 1,2 km/h (1 Bft) S-SW 199 ° 0 min 0,000 mm 0,7 UV-I 107 W/m² 14,4 °C 16,4 °C 3,2 km/h (1 Bft)
07.06.2018 07:55 16,4 °C 88 % 1013,1 hPa 0,0 mm 1,4 km/h (1 Bft) S-SW 199 ° 0 min 0,000 mm 0,7 UV-I 107 W/m² 14,4 °C 16,4 °C 3,2 km/h (1 Bft)
07.06.2018 07:56 16,4 °C 88 % 1013,2 hPa 0,0 mm 0,2 km/h (0 Bft) S-SW 199 ° 0 min 0,000 mm 0,7 UV-I 107 W/m² 14,4 °C 16,4 °C 1,6 km/h (1 Bft)
07.06.2018 07:57 16,4 °C 88 % 1013,2 hPa 0,0 mm 1,1 km/h (1 Bft) S-SW 199 ° 0 min 0,000 mm 0,7 UV-I 109 W/m² 14,4 °C 16,4 °C 3,2 km/h (1 Bft)
07.06.2018 07:58 16,4 °C 88 % 1013,2 hPa 0,0 mm 0,0 km/h (0 Bft) S-SW 199 ° 0 min 0,000 mm 0,7 UV-I 111 W/m² 14,4 °C 16,4 °C 0,0 km/h (0 Bft)
07.06.2018 07:59 16,5 °C 89 % 1013,2 hPa 0,0 mm 0,5 km/h (0 Bft) S-SW 199 ° 0 min 0,000 mm 0,8 UV-I 118 W/m² 14,7 °C 16,5 °C 3,2 km/h (1 Bft)
07.06.2018 08:00 16,5 °C 88 % 1013,2 hPa 0,0 mm 3,4 km/h (1 Bft) SW 230 ° 0 min 0,000 mm 0,8 UV-I 121 W/m² 14,5 °C 16,5 °C 4,8 km/h (1 Bft)
07.06.2018 08:01 16,6 °C 88 % 1013,2 hPa 0,0 mm 1,5 km/h (1 Bft) SW 230 ° 0 min 0,051 mm 0,8 UV-I 125 W/m² 14,6 °C 16,6 °C 3,2 km/h (1 Bft)
07.06.2018 08:02 16,6 °C 88 % 1013,2 hPa 0,0 mm 1,5 km/h (1 Bft) SW 230 ° 0 min 0,000 mm 0,8 UV-I 128 W/m² 14,6 °C 16,6 °C 4,8 km/h (1 Bft)
07.06.2018 08:03 16,6 °C 88 % 1013,1 hPa 0,0 mm 2,9 km/h (1 Bft) SW 230 ° 0 min 0,000 mm 0,9 UV-I 132 W/m² 14,6 °C 16,6 °C 4,8 km/h (1 Bft)
07.06.2018 08:04 16,6 °C 87 % 1013,1 hPa 0,0 mm 1,0 km/h (0 Bft) W-SW 240 ° 0 min 0,000 mm 0,9 UV-I 135 W/m² 14,4 °C 16,6 °C 4,8 km/h (1 Bft)
07.06.2018 08:05 16,6 °C 88 % 1013,1 hPa 0,0 mm 2,3 km/h (1 Bft) W-SW 240 ° 0 min 0,000 mm 0,9 UV-I 139 W/m² 14,6 °C 16,6 °C 4,8 km/h (1 Bft)
07.06.2018 08:06 16,7 °C 88 % 1013,1 hPa 0,0 mm 1,9 km/h (1 Bft) W-SW 240 ° 0 min 0,000 mm 0,9 UV-I 141 W/m² 14,7 °C 16,7 °C 3,2 km/h (1 Bft)
07.06.2018 08:07 16,7 °C 88 % 1013,1 hPa 0,0 mm 0,7 km/h (0 Bft) W-SW 240 ° 0 min 0,000 mm 0,9 UV-I 142 W/m² 14,7 °C 16,7 °C 3,2 km/h (1 Bft)
07.06.2018 08:08 16,7 °C 88 % 1013,1 hPa 0,0 mm 0,9 km/h (0 Bft) W-SW 240 ° 0 min 0,000 mm 1,0 UV-I 142 W/m² 14,7 °C 16,7 °C 3,2 km/h (1 Bft)
07.06.2018 08:09 16,7 °C 88 % 1013,1 hPa 0,0 mm 2,4 km/h (1 Bft) S 175 ° 0 min 0,000 mm 1,0 UV-I 144 W/m² 14,7 °C 16,7 °C 6,4 km/h (2 Bft)
07.06.2018 08:10 16,7 °C 88 % 1013,1 hPa 0,0 mm 2,1 km/h (1 Bft) S 176 ° 0 min 0,000 mm 1,0 UV-I 146 W/m² 14,7 °C 16,7 °C 6,4 km/h (2 Bft)
07.06.2018 08:11 16,8 °C 88 % 1013,1 hPa 0,0 mm 2,0 km/h (1 Bft) S-SW 213 ° 0 min 0,000 mm 1,0 UV-I 148 W/m² 14,8 °C 16,8 °C 4,8 km/h (1 Bft)
07.06.2018 08:12 16,8 °C 88 % 1013,1 hPa 0,0 mm 1,1 km/h (1 Bft) S-SW 213 ° 0 min 0,000 mm 1,0 UV-I 149 W/m² 14,8 °C 16,8 °C 3,2 km/h (1 Bft)
07.06.2018 08:13 16,8 °C 88 % 1013,2 hPa 0,0 mm 0,1 km/h (0 Bft) S-SW 213 ° 0 min 0,000 mm 1,0 UV-I 151 W/m² 14,8 °C 16,8 °C 1,6 km/h (1 Bft)
07.06.2018 08:14 16,8 °C 88 % 1013,2 hPa 0,0 mm 0,3 km/h (0 Bft) S-SW 213 ° 0 min 0,000 mm 1,1 UV-I 155 W/m² 14,8 °C 16,8 °C 1,6 km/h (1 Bft)
07.06.2018 08:15 16,9 °C 88 % 1013,2 hPa 0,0 mm 0,6 km/h (0 Bft) S-SW 213 ° 0 min 0,000 mm 1,1 UV-I 156 W/m² 14,9 °C 16,9 °C 1,6 km/h (1 Bft)
07.06.2018 08:16 16,9 °C 88 % 1013,2 hPa 0,0 mm 1,0 km/h (0 Bft) W-SW 252 ° 0 min 0,000 mm 1,1 UV-I 158 W/m² 14,9 °C 16,9 °C 4,8 km/h (1 Bft)
07.06.2018 08:17 16,9 °C 88 % 1013,2 hPa 0,0 mm 1,8 km/h (1 Bft) W-SW 252 ° 0 min 0,000 mm 1,1 UV-I 162 W/m² 14,9 °C 16,9 °C 4,8 km/h (1 Bft)
07.06.2018 08:18 17,0 °C 88 % 1013,2 hPa 0,0 mm 1,2 km/h (1 Bft) W 263 ° 0 min 0,000 mm 1,1 UV-I 163 W/m² 15,0 °C 17,0 °C 6,4 km/h (2 Bft)
07.06.2018 08:19 17,0 °C 88 % 1013,2 hPa 0,0 mm 4,9 km/h (1 Bft) W 262 ° 0 min 0,000 mm 1,1 UV-I 162 W/m² 15,0 °C 17,0 °C 9,7 km/h (2 Bft)
07.06.2018 08:20 17,0 °C 87 % 1013,2 hPa 0,0 mm 4,6 km/h (1 Bft) W 263 ° 0 min 0,000 mm 1,1 UV-I 163 W/m² 14,8 °C 17,0 °C 6,4 km/h (2 Bft)
07.06.2018 08:21 17,1 °C 87 % 1013,2 hPa 0,0 mm 2,3 km/h (1 Bft) W 263 ° 0 min 0,000 mm 1,1 UV-I 163 W/m² 14,9 °C 17,1 °C 3,2 km/h (1 Bft)
07.06.2018 08:22 17,1 °C 87 % 1013,1 hPa 0,0 mm 3,3 km/h (1 Bft) W 275 ° 0 min 0,000 mm 1,1 UV-I 167 W/m² 14,9 °C 17,1 °C 4,8 km/h (1 Bft)
07.06.2018 08:23 17,1 °C 88 % 1013,1 hPa 0,0 mm 2,8 km/h (1 Bft) W 275 ° 0 min 0,000 mm 1,2 UV-I 169 W/m² 15,1 °C 17,1 °C 4,8 km/h (1 Bft)
07.06.2018 08:24 17,1 °C 87 % 1013,2 hPa 0,0 mm 3,2 km/h (1 Bft) W 275 ° 0 min 0,000 mm 1,2 UV-I 172 W/m² 14,9 °C 17,1 °C 4,8 km/h (1 Bft)
07.06.2018 08:25 17,1 °C 87 % 1013,1 hPa 0,0 mm 4,9 km/h (1 Bft) W-NW 292 ° 0 min 0,000 mm 1,2 UV-I 178 W/m² 14,9 °C 17,1 °C 9,7 km/h (2 Bft)
07.06.2018 08:26 17,1 °C 87 % 1013,1 hPa 0,0 mm 1,9 km/h (1 Bft) W-NW 292 ° 0 min 0,000 mm 1,2 UV-I 181 W/m² 14,9 °C 17,1 °C 4,8 km/h (1 Bft)
07.06.2018 08:27 17,1 °C 87 % 1013,1 hPa 0,0 mm 2,8 km/h (1 Bft) W 271 ° 0 min 0,000 mm 1,3 UV-I 186 W/m² 14,9 °C 17,1 °C 4,8 km/h (1 Bft)
07.06.2018 08:28 17,2 °C 87 % 1013,1 hPa 0,0 mm 2,4 km/h (1 Bft) W 261 ° 0 min 0,000 mm 1,3 UV-I 192 W/m² 15,0 °C 17,2 °C 4,8 km/h (1 Bft)
07.06.2018 08:29 17,2 °C 87 % 1013,1 hPa 0,0 mm 3,9 km/h (1 Bft) W-NW 284 ° 0 min 0,000 mm 1,3 UV-I 193 W/m² 15,0 °C 17,2 °C 9,7 km/h (2 Bft)
07.06.2018 08:30 17,2 °C 87 % 1013,1 hPa 0,0 mm 3,3 km/h (1 Bft) W-NW 284 ° 0 min 0,000 mm 1,3 UV-I 193 W/m² 15,0 °C 17,2 °C 9,7 km/h (2 Bft)
07.06.2018 08:31 17,2 °C 87 % 1013,1 hPa 0,0 mm 6,2 km/h (2 Bft) W 266 ° 0 min 0,000 mm 1,3 UV-I 192 W/m² 15,0 °C 17,2 °C 9,7 km/h (2 Bft)
07.06.2018 08:32 17,3 °C 87 % 1013,1 hPa 0,0 mm 4,2 km/h (1 Bft) W 265 ° 0 min 0,000 mm 1,3 UV-I 190 W/m² 15,1 °C 17,3 °C 6,4 km/h (2 Bft)
07.06.2018 08:33 17,3 °C 88 % 1013,1 hPa 0,0 mm 4,9 km/h (1 Bft) W 265 ° 0 min 0,000 mm 1,3 UV-I 190 W/m² 15,3 °C 17,3 °C 6,4 km/h (2 Bft)
07.06.2018 08:34 17,3 °C 87 % 1013,0 hPa 0,0 mm 4,9 km/h (1 Bft) W-NW 282 ° 0 min 0,000 mm 1,3 UV-I 190 W/m² 15,1 °C 17,3 °C 9,7 km/h (2 Bft)
07.06.2018 08:35 17,3 °C 87 % 1013,0 hPa 0,0 mm 3,2 km/h (1 Bft) W-NW 290 ° 0 min 0,000 mm 1,3 UV-I 190 W/m² 15,1 °C 17,3 °C 4,8 km/h (1 Bft)
07.06.2018 08:36 17,3 °C 87 % 1013,1 hPa 0,0 mm 3,0 km/h (1 Bft) W 275 ° 0 min 0,000 mm 1,3 UV-I 190 W/m² 15,1 °C 17,3 °C 4,8 km/h (1 Bft)
07.06.2018 08:37 17,3 °C 87 % 1013,1 hPa 0,0 mm 4,7 km/h (1 Bft) W-SW 240 ° 0 min 0,000 mm 1,4 UV-I 190 W/m² 15,1 °C 17,3 °C 6,4 km/h (2 Bft)
07.06.2018 08:38 17,3 °C 86 % 1013,1 hPa 0,0 mm 1,2 km/h (1 Bft) W-SW 240 ° 0 min 0,000 mm 1,4 UV-I 193 W/m² 14,9 °C 17,3 °C 4,8 km/h (1 Bft)
07.06.2018 08:39 17,3 °C 87 % 1013,0 hPa 0,0 mm 0,8 km/h (0 Bft) W-SW 240 ° 0 min 0,000 mm 1,4 UV-I 192 W/m² 15,1 °C 17,3 °C 1,6 km/h (1 Bft)
07.06.2018 08:40 17,3 °C 87 % 1013,1 hPa 0,0 mm 4,2 km/h (1 Bft) W 262 ° 0 min 0,000 mm 1,4 UV-I 192 W/m² 15,1 °C 17,3 °C 9,7 km/h (2 Bft)
07.06.2018 08:41 17,4 °C 87 % 1013,1 hPa 0,0 mm 4,7 km/h (1 Bft) W 259 ° 0 min 0,000 mm 1,4 UV-I 192 W/m² 15,2 °C 17,4 °C 6,4 km/h (2 Bft)
07.06.2018 08:42 17,4 °C 88 % 1013,0 hPa 0,0 mm 3,6 km/h (1 Bft) W 259 ° 0 min 0,000 mm 1,4 UV-I 193 W/m² 15,4 °C 17,4 °C 6,4 km/h (2 Bft)
07.06.2018 08:43 17,4 °C 86 % 1013,0 hPa 0,0 mm 0,9 km/h (0 Bft) W 259 ° 0 min 0,000 mm 1,4 UV-I 193 W/m² 15,0 °C 17,4 °C 1,6 km/h (1 Bft)
07.06.2018 08:44 17,4 °C 87 % 1013,0 hPa 0,0 mm 1,0 km/h (0 Bft) W 261 ° 0 min 0,000 mm 1,4 UV-I 193 W/m² 15,2 °C 17,4 °C 3,2 km/h (1 Bft)
07.06.2018 08:45 17,4 °C 87 % 1013,1 hPa 0,0 mm 3,4 km/h (1 Bft) W 263 ° 0 min 0,000 mm 1,4 UV-I 192 W/m² 15,2 °C 17,4 °C 4,8 km/h (1 Bft)
07.06.2018 08:46 17,5 °C 87 % 1013,0 hPa 0,0 mm 4,5 km/h (1 Bft) W-NW 282 ° 0 min 0,000 mm 1,4 UV-I 192 W/m² 15,3 °C 17,5 °C 6,4 km/h (2 Bft)
07.06.2018 08:47 17,6 °C 87 % 1013,0 hPa 0,0 mm 1,9 km/h (1 Bft) W-NW 282 ° 0 min 0,000 mm 1,5 UV-I 193 W/m² 15,4 °C 17,6 °C 3,2 km/h (1 Bft)
07.06.2018 08:48 17,6 °C 87 % 1013,0 hPa 0,0 mm 1,6 km/h (1 Bft) W-NW 282 ° 0 min 0,000 mm 1,5 UV-I 193 W/m² 15,4 °C 17,6 °C 3,2 km/h (1 Bft)
07.06.2018 08:49 17,6 °C 88 % 1013,0 hPa 0,0 mm 1,4 km/h (1 Bft) W-NW 282 ° 0 min 0,000 mm 1,5 UV-I 195 W/m² 15,6 °C 17,6 °C 3,2 km/h (1 Bft)
07.06.2018 08:50 17,6 °C 87 % 1013,0 hPa 0,0 mm 6,3 km/h (2 Bft) W-SW 247 ° 0 min 0,000 mm 1,5 UV-I 199 W/m² 15,4 °C 17,6 °C 11,3 km/h (2 Bft)
07.06.2018 08:51 17,7 °C 87 % 1013,0 hPa 0,0 mm 4,3 km/h (1 Bft) W-SW 252 ° 0 min 0,000 mm 1,5 UV-I 199 W/m² 15,5 °C 17,7 °C 6,4 km/h (2 Bft)
07.06.2018 08:52 17,7 °C 87 % 1013,0 hPa 0,0 mm 5,6 km/h (1 Bft) W 281 ° 0 min 0,000 mm 1,5 UV-I 199 W/m² 15,5 °C 17,7 °C 9,7 km/h (2 Bft)
07.06.2018 08:53 17,6 °C 86 % 1013,0 hPa 0,0 mm 3,3 km/h (1 Bft) W 281 ° 0 min 0,000 mm 1,5 UV-I 199 W/m² 15,2 °C 17,6 °C 4,8 km/h (1 Bft)
07.06.2018 08:54 17,7 °C 86 % 1013,0 hPa 0,0 mm 4,4 km/h (1 Bft) W-NW 295 ° 0 min 0,000 mm 1,5 UV-I 197 W/m² 15,3 °C 17,7 °C 6,4 km/h (2 Bft)
07.06.2018 08:55 17,7 °C 86 % 1013,0 hPa 0,0 mm 4,4 km/h (1 Bft) W-NW 295 ° 0 min 0,000 mm 1,5 UV-I 197 W/m² 15,3 °C 17,7 °C 6,4 km/h (2 Bft)
07.06.2018 08:56 17,7 °C 86 % 1013,0 hPa 0,0 mm 3,4 km/h (1 Bft) W-NW 292 ° 0 min 0,000 mm 1,5 UV-I 199 W/m² 15,3 °C 17,7 °C 4,8 km/h (1 Bft)
07.06.2018 08:57 17,7 °C 86 % 1012,9 hPa 0,0 mm 5,2 km/h (1 Bft) W-NW 288 ° 0 min 0,000 mm 1,5 UV-I 199 W/m² 15,3 °C 17,7 °C 8,0 km/h (2 Bft)
07.06.2018 08:58 17,7 °C 86 % 1013,0 hPa 0,0 mm 3,9 km/h (1 Bft) W-NW 288 ° 0 min 0,000 mm 1,5 UV-I 199 W/m² 15,3 °C 17,7 °C 6,4 km/h (2 Bft)
07.06.2018 08:59 17,7 °C 86 % 1013,0 hPa 0,0 mm 2,6 km/h (1 Bft) W-NW 288 ° 0 min 0,000 mm 1,5 UV-I 199 W/m² 15,3 °C 17,7 °C 4,8 km/h (1 Bft)
07.06.2018 09:00 17,7 °C 87 % 1013,0 hPa 0,0 mm 1,7 km/h (1 Bft) W-NW 288 ° 0 min 0,000 mm 1,5 UV-I 199 W/m² 15,5 °C 17,7 °C 3,2 km/h (1 Bft)
07.06.2018 09:01 17,7 °C 86 % 1013,0 hPa 0,0 mm 1,8 km/h (1 Bft) W-NW 291 ° 0 min 0,102 mm 1,5 UV-I 199 W/m² 15,3 °C 17,7 °C 4,8 km/h (1 Bft)
07.06.2018 09:02 17,7 °C 86 % 1013,0 hPa 0,0 mm 6,8 km/h (2 Bft) W-NW 284 ° 0 min 0,000 mm 1,6 UV-I 200 W/m² 15,3 °C 17,7 °C 11,3 km/h (2 Bft)
07.06.2018 09:03 17,7 °C 86 % 1013,0 hPa 0,0 mm 4,5 km/h (1 Bft) NW 313 ° 0 min 0,000 mm 1,6 UV-I 204 W/m² 15,3 °C 17,7 °C 6,4 km/h (2 Bft)
07.06.2018 09:04 17,7 °C 85 % 1013,0 hPa 0,0 mm 4,1 km/h (1 Bft) W-NW 299 ° 0 min 0,000 mm 1,6 UV-I 207 W/m² 15,1 °C 17,7 °C 6,4 km/h (2 Bft)
07.06.2018 09:05 17,7 °C 85 % 1013,0 hPa 0,0 mm 2,2 km/h (1 Bft) W-NW 299 ° 0 min 0,000 mm 1,6 UV-I 211 W/m² 15,1 °C 17,7 °C 3,2 km/h (1 Bft)
07.06.2018 09:06 17,7 °C 86 % 1013,0 hPa 0,0 mm 1,3 km/h (1 Bft) W-NW 299 ° 0 min 0,000 mm 1,6 UV-I 213 W/m² 15,3 °C 17,7 °C 3,2 km/h (1 Bft)
07.06.2018 09:07 17,7 °C 85 % 1013,0 hPa 0,0 mm 3,8 km/h (1 Bft) W-NW 288 ° 0 min 0,000 mm 1,6 UV-I 216 W/m² 15,1 °C 17,7 °C 6,4 km/h (2 Bft)
07.06.2018 09:08 17,8 °C 86 % 1013,0 hPa 0,0 mm 3,9 km/h (1 Bft) W 274 ° 0 min 0,000 mm 1,6 UV-I 218 W/m² 15,4 °C 17,8 °C 6,4 km/h (2 Bft)
07.06.2018 09:09 17,8 °C 86 % 1013,0 hPa 0,0 mm 2,3 km/h (1 Bft) W 275 ° 0 min 0,000 mm 1,7 UV-I 221 W/m² 15,4 °C 17,8 °C 3,2 km/h (1 Bft)
07.06.2018 09:10 17,9 °C 85 % 1013,0 hPa 0,0 mm 0,3 km/h (0 Bft) W 275 ° 0 min 0,000 mm 1,7 UV-I 223 W/m² 15,3 °C 17,9 °C 1,6 km/h (1 Bft)
07.06.2018 09:11 17,9 °C 85 % 1013,0 hPa 0,0 mm 0,5 km/h (0 Bft) W 275 ° 0 min 0,000 mm 1,7 UV-I 223 W/m² 15,3 °C 17,9 °C 1,6 km/h (1 Bft)
07.06.2018 09:12 18,0 °C 86 % 1013,0 hPa 0,0 mm 1,2 km/h (1 Bft) W 275 ° 0 min 0,000 mm 1,7 UV-I 223 W/m² 15,6 °C 18,0 °C 1,6 km/h (1 Bft)
07.06.2018 09:13 18,1 °C 86 % 1013,0 hPa 0,0 mm 2,1 km/h (1 Bft) W 275 ° 0 min 0,000 mm 1,7 UV-I 225 W/m² 15,7 °C 18,1 °C 3,2 km/h (1 Bft)
07.06.2018 09:14 18,1 °C 85 % 1013,0 hPa 0,0 mm 2,7 km/h (1 Bft) W 264 ° 0 min 0,000 mm 1,7 UV-I 227 W/m² 15,5 °C 18,1 °C 6,4 km/h (2 Bft)
07.06.2018 09:15 18,1 °C 84 % 1013,0 hPa 0,0 mm 3,4 km/h (1 Bft) W-SW 254 ° 0 min 0,000 mm 1,7 UV-I 232 W/m² 15,4 °C 18,1 °C 6,4 km/h (2 Bft)
07.06.2018 09:16 18,2 °C 85 % 1013,0 hPa 0,0 mm 9,9 km/h (2 Bft) W-NW 291 ° 0 min 0,000 mm 1,8 UV-I 236 W/m² 15,6 °C 18,2 °C 12,9 km/h (3 Bft)
07.06.2018 09:17 18,2 °C 84 % 1013,0 hPa 0,0 mm 4,9 km/h (1 Bft) W 260 ° 0 min 0,000 mm 1,8 UV-I 241 W/m² 15,4 °C 18,2 °C 9,7 km/h (2 Bft)
07.06.2018 09:18 18,2 °C 83 % 1013,1 hPa 0,0 mm 10,9 km/h (2 Bft) W-NW 292 ° 0 min 0,000 mm 1,9 UV-I 246 W/m² 15,3 °C 18,2 °C 17,7 km/h (3 Bft)
07.06.2018 09:19 18,2 °C 84 % 1013,0 hPa 0,0 mm 5,4 km/h (1 Bft) W-NW 282 ° 0 min 0,000 mm 1,9 UV-I 253 W/m² 15,4 °C 18,2 °C 9,7 km/h (2 Bft)
07.06.2018 09:20 18,2 °C 83 % 1013,1 hPa 0,0 mm 7,6 km/h (2 Bft) W 272 ° 0 min 0,000 mm 2,0 UV-I 260 W/m² 15,3 °C 18,2 °C 12,9 km/h (3 Bft)
07.06.2018 09:21 18,2 °C 83 % 1013,0 hPa 0,0 mm 3,8 km/h (1 Bft) W 272 ° 0 min 0,000 mm 2,0 UV-I 281 W/m² 15,3 °C 18,2 °C 4,8 km/h (1 Bft)
07.06.2018 09:22 18,2 °C 83 % 1013,0 hPa 0,0 mm 4,4 km/h (1 Bft) W 272 ° 0 min 0,000 mm 2,2 UV-I 297 W/m² 15,3 °C 18,2 °C 6,4 km/h (2 Bft)
07.06.2018 09:23 18,2 °C 83 % 1013,1 hPa 0,0 mm 4,5 km/h (1 Bft) W 277 ° 0 min 0,000 mm 2,3 UV-I 323 W/m² 15,3 °C 18,2 °C 6,4 km/h (2 Bft)
07.06.2018 09:24 18,2 °C 85 % 1013,1 hPa 0,0 mm 7,0 km/h (2 Bft) W 276 ° 0 min 0,000 mm 2,5 UV-I 350 W/m² 15,6 °C 18,2 °C 11,3 km/h (2 Bft)
07.06.2018 09:25 18,3 °C 85 % 1013,1 hPa 0,0 mm 1,2 km/h (1 Bft) W 275 ° 0 min 0,000 mm 2,5 UV-I 378 W/m² 15,7 °C 18,3 °C 3,2 km/h (1 Bft)
07.06.2018 09:26 18,4 °C 84 % 1013,1 hPa 0,0 mm 4,6 km/h (1 Bft) W-SW 251 ° 0 min 0,000 mm 2,6 UV-I 366 W/m² 15,6 °C 18,4 °C 6,4 km/h (2 Bft)
07.06.2018 09:27 18,5 °C 83 % 1013,1 hPa 0,0 mm 4,4 km/h (1 Bft) O-SO 117 ° 0 min 0,000 mm 2,7 UV-I 396 W/m² 15,6 °C 18,5 °C 6,4 km/h (2 Bft)
07.06.2018 09:28 18,6 °C 83 % 1013,1 hPa 0,0 mm 5,0 km/h (1 Bft) W 273 ° 0 min 0,000 mm 3,0 UV-I 427 W/m² 15,7 °C 18,6 °C 9,7 km/h (2 Bft)
07.06.2018 09:29 18,6 °C 83 % 1013,0 hPa 0,0 mm 3,8 km/h (1 Bft) W-SW 241 ° 0 min 0,000 mm 3,1 UV-I 501 W/m² 15,7 °C 18,6 °C 6,4 km/h (2 Bft)
07.06.2018 09:30 18,7 °C 83 % 1013,0 hPa 0,0 mm 5,6 km/h (1 Bft) W 269 ° 0 min 0,000 mm 4,0 UV-I 501 W/m² 15,8 °C 18,7 °C 9,7 km/h (2 Bft)
07.06.2018 09:31 18,8 °C 82 % 1013,1 hPa 0,0 mm 5,6 km/h (1 Bft) NW 314 ° 0 min 0,000 mm 3,5 UV-I 543 W/m² 15,7 °C 18,8 °C 11,3 km/h (2 Bft)
07.06.2018 09:32 18,9 °C 84 % 1013,0 hPa 0,0 mm 5,9 km/h (2 Bft) W 281 ° 0 min 0,000 mm 4,4 UV-I 543 W/m² 16,1 °C 18,9 °C 11,3 km/h (2 Bft)
07.06.2018 09:33 19,2 °C 84 % 1013,1 hPa 0,0 mm 6,9 km/h (2 Bft) W-SW 249 ° 1 min 0,000 mm 4,5 UV-I 914 W/m² 16,4 °C 19,2 °C 11,3 km/h (2 Bft)
07.06.2018 09:34 19,4 °C 84 % 1013,1 hPa 0,0 mm 5,2 km/h (1 Bft) W-NW 294 ° 1 min 0,000 mm 4,6 UV-I 889 W/m² 16,6 °C 19,4 °C 9,7 km/h (2 Bft)
07.06.2018 09:35 19,7 °C 83 % 1013,1 hPa 0,0 mm 7,4 km/h (2 Bft) W 267 ° 1 min 0,000 mm 4,7 UV-I 877 W/m² 16,7 °C 19,7 °C 11,3 km/h (2 Bft)
07.06.2018 09:36 19,8 °C 81 % 1013,0 hPa 0,0 mm 7,7 km/h (2 Bft) W-SW 250 ° 1 min 0,000 mm 4,5 UV-I 853 W/m² 16,4 °C 19,8 °C 16,1 km/h (3 Bft)
07.06.2018 09:37 19,8 °C 79 % 1013,0 hPa 0,0 mm 4,5 km/h (1 Bft) W-NW 284 ° 1 min 0,000 mm 4,0 UV-I 853 W/m² 16,0 °C 19,8 °C 9,7 km/h (2 Bft)
07.06.2018 09:38 19,8 °C 79 % 1013,1 hPa 0,0 mm 2,3 km/h (1 Bft) W-SW 242 ° 1 min 0,000 mm 4,2 UV-I 780 W/m² 16,0 °C 19,8 °C 8,0 km/h (2 Bft)
07.06.2018 09:39 19,7 °C 78 % 1013,1 hPa 0,0 mm 2,4 km/h (1 Bft) W-SW 252 ° 0 min 0,000 mm 4,0 UV-I 599 W/m² 15,8 °C 19,7 °C 8,0 km/h (2 Bft)
07.06.2018 09:40 19,8 °C 80 % 1013,0 hPa 0,0 mm 4,8 km/h (1 Bft) W-SW 255 ° 0 min 0,000 mm 3,7 UV-I 522 W/m² 16,2 °C 19,8 °C 6,4 km/h (2 Bft)
07.06.2018 09:41 19,9 °C 83 % 1013,0 hPa 0,0 mm 5,2 km/h (1 Bft) W-NW 288 ° 0 min 0,000 mm 3,8 UV-I 522 W/m² 16,9 °C 19,9 °C 8,0 km/h (2 Bft)
07.06.2018 09:42 19,8 °C 79 % 1013,0 hPa 0,0 mm 3,2 km/h (1 Bft) W-NW 288 ° 1 min 0,000 mm 4,1 UV-I 615 W/m² 16,0 °C 19,8 °C 4,8 km/h (1 Bft)
07.06.2018 09:43 19,8 °C 79 % 1013,1 hPa 0,0 mm 9,5 km/h (2 Bft) W-SW 246 ° 1 min 0,000 mm 3,4 UV-I 615 W/m² 16,0 °C 19,8 °C 16,1 km/h (3 Bft)
07.06.2018 09:44 19,7 °C 78 % 1013,0 hPa 0,0 mm 4,8 km/h (1 Bft) W 281 ° 0 min 0,000 mm 3,4 UV-I 418 W/m² 15,8 °C 19,7 °C 9,7 km/h (2 Bft)
07.06.2018 09:45 19,7 °C 79 % 1013,0 hPa 0,0 mm 6,2 km/h (2 Bft) W-NW 300 ° 0 min 0,000 mm 4,4 UV-I 418 W/m² 16,0 °C 19,7 °C 14,5 km/h (3 Bft)
07.06.2018 09:46 19,7 °C 80 % 1012,9 hPa 0,0 mm 3,4 km/h (1 Bft) NW 306 ° 1 min 0,000 mm 3,7 UV-I 661 W/m² 16,1 °C 19,7 °C 8,0 km/h (2 Bft)
07.06.2018 09:47 19,7 °C 80 % 1013,0 hPa 0,0 mm 3,6 km/h (1 Bft) W 279 ° 1 min 0,000 mm 4,0 UV-I 619 W/m² 16,1 °C 19,7 °C 9,7 km/h (2 Bft)
07.06.2018 09:48 19,8 °C 79 % 1013,0 hPa 0,0 mm 7,8 km/h (2 Bft) NW 311 ° 1 min 0,000 mm 4,4 UV-I 619 W/m² 16,0 °C 19,8 °C 12,9 km/h (3 Bft)
07.06.2018 09:49 19,8 °C 79 % 1012,9 hPa 0,0 mm 5,8 km/h (2 Bft) W-NW 286 ° 1 min 0,000 mm 3,6 UV-I 619 W/m² 16,0 °C 19,8 °C 11,3 km/h (2 Bft)
07.06.2018 09:50 19,7 °C 77 % 1013,0 hPa 0,0 mm 7,0 km/h (2 Bft) W 279 ° 1 min 0,000 mm 3,3 UV-I 619 W/m² 15,5 °C 19,7 °C 11,3 km/h (2 Bft)
07.06.2018 09:51 19,7 °C 78 % 1012,9 hPa 0,0 mm 10,8 km/h (2 Bft) W 263 ° 1 min 0,000 mm 4,1 UV-I 619 W/m² 15,8 °C 19,7 °C 17,7 km/h (3 Bft)
07.06.2018 09:52 19,7 °C 78 % 1012,9 hPa 0,0 mm 9,0 km/h (2 Bft) W-NW 303 ° 1 min 0,000 mm 3,4 UV-I 619 W/m² 15,8 °C 19,7 °C 14,5 km/h (3 Bft)
07.06.2018 09:53 19,7 °C 78 % 1012,9 hPa 0,0 mm 10,7 km/h (2 Bft) W 279 ° 0 min 0,000 mm 3,2 UV-I 413 W/m² 15,8 °C 19,7 °C 16,1 km/h (3 Bft)
07.06.2018 09:54 19,6 °C 79 % 1013,0 hPa 0,0 mm 6,7 km/h (2 Bft) NW 307 ° 0 min 0,000 mm 3,1 UV-I 422 W/m² 15,9 °C 19,6 °C 11,3 km/h (2 Bft)
07.06.2018 09:55 19,6 °C 78 % 1013,0 hPa 0,0 mm 3,9 km/h (1 Bft) N-NW 338 ° 0 min 0,000 mm 3,3 UV-I 487 W/m² 15,7 °C 19,6 °C 6,4 km/h (2 Bft)
07.06.2018 09:56 19,6 °C 79 % 1012,9 hPa 0,0 mm 1,1 km/h (1 Bft) N-NW 336 ° 0 min 0,000 mm 3,5 UV-I 373 W/m² 15,9 °C 19,6 °C 3,2 km/h (1 Bft)
07.06.2018 09:57 19,6 °C 78 % 1012,9 hPa 0,0 mm 0,2 km/h (0 Bft) N-NW 336 ° 0 min 0,000 mm 3,2 UV-I 399 W/m² 15,7 °C 19,6 °C 1,6 km/h (1 Bft)
07.06.2018 09:58 19,7 °C 79 % 1013,0 hPa 0,0 mm 1,0 km/h (0 Bft) W-NW 298 ° 0 min 0,000 mm 3,1 UV-I 380 W/m² 16,0 °C 19,7 °C 3,2 km/h (1 Bft)
07.06.2018 09:59 19,7 °C 77 % 1013,0 hPa 0,0 mm 3,2 km/h (1 Bft) NW 306 ° 0 min 0,000 mm 3,1 UV-I 323 W/m² 15,5 °C 19,7 °C 9,7 km/h (2 Bft)
07.06.2018 10:00 19,6 °C 77 % 1012,9 hPa 0,0 mm 7,6 km/h (2 Bft) W-SW 238 ° 0 min 0,000 mm 2,9 UV-I 378 W/m² 15,5 °C 19,6 °C 12,9 km/h (3 Bft)
07.06.2018 10:01 19,6 °C 77 % 1013,0 hPa 0,0 mm 9,5 km/h (2 Bft) W 259 ° 0 min 0,254 mm 2,8 UV-I 315 W/m² 15,5 °C 19,6 °C 14,5 km/h (3 Bft)
07.06.2018 10:02 19,5 °C 77 % 1012,9 hPa 0,0 mm 8,2 km/h (2 Bft) W-SW 258 ° 0 min 0,000 mm 2,7 UV-I 262 W/m² 15,4 °C 19,5 °C 16,1 km/h (3 Bft)
07.06.2018 10:03 19,4 °C 76 % 1013,0 hPa 0,0 mm 13,2 km/h (3 Bft) W-NW 302 ° 0 min 0,000 mm 2,6 UV-I 248 W/m² 15,1 °C 19,4 °C 17,7 km/h (3 Bft)
07.06.2018 10:04 19,4 °C 77 % 1013,0 hPa 0,0 mm 6,6 km/h (2 Bft) NW 310 ° 0 min 0,000 mm 2,6 UV-I 248 W/m² 15,3 °C 19,4 °C 16,1 km/h (3 Bft)
07.06.2018 10:05 19,3 °C 77 % 1013,0 hPa 0,0 mm 3,9 km/h (1 Bft) W 265 ° 0 min 0,000 mm 3,1 UV-I 294 W/m² 15,2 °C 19,3 °C 11,3 km/h (2 Bft)
07.06.2018 10:06 19,3 °C 77 % 1013,0 hPa 0,0 mm 9,4 km/h (2 Bft) W 281 ° 0 min 0,000 mm 2,7 UV-I 281 W/m² 15,2 °C 19,3 °C 14,5 km/h (3 Bft)
07.06.2018 10:07 19,2 °C 77 % 1013,0 hPa 0,0 mm 9,9 km/h (2 Bft) W-NW 290 ° 0 min 0,000 mm 2,8 UV-I 299 W/m² 15,1 °C 19,2 °C 12,9 km/h (3 Bft)
07.06.2018 10:08 19,2 °C 77 % 1013,0 hPa 0,0 mm 7,8 km/h (2 Bft) NW 313 ° 0 min 0,000 mm 3,1 UV-I 278 W/m² 15,1 °C 19,2 °C 12,9 km/h (3 Bft)
07.06.2018 10:09 19,2 °C 76 % 1013,0 hPa 0,0 mm 11,6 km/h (2 Bft) W-NW 295 ° 0 min 0,000 mm 2,7 UV-I 285 W/m² 14,9 °C 19,2 °C 14,5 km/h (3 Bft)
07.06.2018 10:10 19,3 °C 78 % 1013,0 hPa 0,0 mm 9,3 km/h (2 Bft) W 275 ° 0 min 0,000 mm 3,0 UV-I 336 W/m² 15,4 °C 19,3 °C 14,5 km/h (3 Bft)
07.06.2018 10:11 19,3 °C 77 % 1013,1 hPa 0,0 mm 7,6 km/h (2 Bft) W-NW 288 ° 0 min 0,000 mm 2,9 UV-I 320 W/m² 15,2 °C 19,3 °C 12,9 km/h (3 Bft)
07.06.2018 10:12 19,3 °C 76 % 1013,1 hPa 0,0 mm 10,7 km/h (2 Bft) W 263 ° 0 min 0,000 mm 2,9 UV-I 325 W/m² 15,0 °C 19,3 °C 14,5 km/h (3 Bft)
07.06.2018 10:13 19,2 °C 76 % 1013,1 hPa 0,0 mm 7,8 km/h (2 Bft) W-NW 290 ° 0 min 0,000 mm 2,9 UV-I 313 W/m² 14,9 °C 19,2 °C 12,9 km/h (3 Bft)
07.06.2018 10:14 19,2 °C 76 % 1013,1 hPa 0,0 mm 7,3 km/h (2 Bft) W-NW 298 ° 0 min 0,000 mm 2,8 UV-I 309 W/m² 14,9 °C 19,2 °C 11,3 km/h (2 Bft)
07.06.2018 10:15 19,2 °C 75 % 1013,1 hPa 0,0 mm 8,1 km/h (2 Bft) W-NW 292 ° 0 min 0,000 mm 2,9 UV-I 322 W/m² 14,7 °C 19,2 °C 12,9 km/h (3 Bft)
07.06.2018 10:16 19,2 °C 76 % 1013,1 hPa 0,0 mm 4,4 km/h (1 Bft) N 355 ° 0 min 0,000 mm 3,0 UV-I 332 W/m² 14,9 °C 19,2 °C 8,0 km/h (2 Bft)
07.06.2018 10:17 19,2 °C 77 % 1013,1 hPa 0,0 mm 10,8 km/h (2 Bft) W-NW 286 ° 0 min 0,000 mm 3,1 UV-I 346 W/m² 15,1 °C 19,2 °C 19,3 km/h (3 Bft)
07.06.2018 10:18 19,2 °C 76 % 1013,1 hPa 0,0 mm 8,2 km/h (2 Bft) N-NW 331 ° 0 min 0,000 mm 3,3 UV-I 392 W/m² 14,9 °C 19,2 °C 14,5 km/h (3 Bft)
07.06.2018 10:19 19,3 °C 76 % 1013,1 hPa 0,0 mm 8,6 km/h (2 Bft) W-NW 298 ° 0 min 0,000 mm 3,4 UV-I 464 W/m² 15,0 °C 19,3 °C 14,5 km/h (3 Bft)
07.06.2018 10:20 19,4 °C 78 % 1013,1 hPa 0,0 mm 9,2 km/h (2 Bft) W 271 ° 0 min 0,000 mm 4,3 UV-I 464 W/m² 15,5 °C 19,4 °C 12,9 km/h (3 Bft)
07.06.2018 10:21 19,6 °C 77 % 1013,1 hPa 0,0 mm 6,2 km/h (2 Bft) W-NW 283 ° 0 min 0,000 mm 3,8 UV-I 464 W/m² 15,5 °C 19,6 °C 9,7 km/h (2 Bft)
07.06.2018 10:22 19,7 °C 77 % 1013,1 hPa 0,0 mm 6,3 km/h (2 Bft) W 259 ° 0 min 0,000 mm 3,9 UV-I 504 W/m² 15,5 °C 19,7 °C 9,7 km/h (2 Bft)
07.06.2018 10:23 19,7 °C 75 % 1013,1 hPa 0,0 mm 6,3 km/h (2 Bft) W 273 ° 0 min 0,000 mm 4,3 UV-I 504 W/m² 15,1 °C 19,7 °C 9,7 km/h (2 Bft)
07.06.2018 10:24 19,8 °C 77 % 1013,1 hPa 0,0 mm 5,5 km/h (1 Bft) NW 306 ° 0 min 0,000 mm 3,5 UV-I 459 W/m² 15,6 °C 19,8 °C 11,3 km/h (2 Bft)
07.06.2018 10:25 19,8 °C 76 % 1013,1 hPa 0,0 mm 4,8 km/h (1 Bft) W-NW 302 ° 0 min 0,000 mm 3,5 UV-I 425 W/m² 15,4 °C 19,8 °C 8,0 km/h (2 Bft)
07.06.2018 10:26 19,8 °C 76 % 1013,1 hPa 0,0 mm 4,9 km/h (1 Bft) W-NW 284 ° 0 min 0,000 mm 3,6 UV-I 436 W/m² 15,4 °C 19,8 °C 6,4 km/h (2 Bft)
07.06.2018 10:27 19,9 °C 76 % 1013,1 hPa 0,0 mm 3,2 km/h (1 Bft) NW 304 ° 0 min 0,000 mm 3,7 UV-I 476 W/m² 15,5 °C 19,9 °C 4,8 km/h (1 Bft)
07.06.2018 10:28 20,0 °C 77 % 1013,1 hPa 0,0 mm 6,1 km/h (2 Bft) W 278 ° 0 min 0,000 mm 3,6 UV-I 432 W/m² 15,8 °C 20,0 °C 8,0 km/h (2 Bft)
07.06.2018 10:29 20,0 °C 76 % 1013,1 hPa 0,0 mm 8,4 km/h (2 Bft) NW 309 ° 0 min 0,000 mm 3,5 UV-I 424 W/m² 15,6 °C 20,0 °C 12,9 km/h (3 Bft)
07.06.2018 10:30 20,0 °C 75 % 1013,1 hPa 0,0 mm 5,9 km/h (2 Bft) NW 312 ° 0 min 0,000 mm 3,5 UV-I 418 W/m² 15,4 °C 20,0 °C 12,9 km/h (3 Bft)
07.06.2018 10:31 19,9 °C 76 % 1013,1 hPa 0,0 mm 6,4 km/h (2 Bft) W 279 ° 0 min 0,000 mm 3,5 UV-I 408 W/m² 15,5 °C 19,9 °C 11,3 km/h (2 Bft)
07.06.2018 10:32 20,0 °C 77 % 1013,1 hPa 0,0 mm 4,7 km/h (1 Bft) NW 310 ° 0 min 0,000 mm 3,4 UV-I 401 W/m² 15,8 °C 20,0 °C 9,7 km/h (2 Bft)
07.06.2018 10:33 20,0 °C 76 % 1013,1 hPa 0,0 mm 4,4 km/h (1 Bft) NW 309 ° 0 min 0,000 mm 3,3 UV-I 394 W/m² 15,6 °C 20,0 °C 6,4 km/h (2 Bft)
07.06.2018 10:34 20,0 °C 75 % 1013,2 hPa 0,0 mm 6,1 km/h (2 Bft) NW 306 ° 0 min 0,000 mm 3,3 UV-I 387 W/m² 15,4 °C 20,0 °C 9,7 km/h (2 Bft)
07.06.2018 10:35 19,9 °C 75 % 1013,2 hPa 0,0 mm 5,8 km/h (2 Bft) W-NW 285 ° 0 min 0,000 mm 3,3 UV-I 380 W/m² 15,3 °C 19,9 °C 8,0 km/h (2 Bft)
07.06.2018 10:36 19,9 °C 73 % 1013,2 hPa 0,0 mm 4,8 km/h (1 Bft) W-NW 284 ° 0 min 0,000 mm 3,2 UV-I 374 W/m² 14,9 °C 19,9 °C 6,4 km/h (2 Bft)
07.06.2018 10:37 19,8 °C 75 % 1013,2 hPa 0,0 mm 5,6 km/h (1 Bft) W-NW 300 ° 0 min 0,000 mm 3,2 UV-I 371 W/m² 15,2 °C 19,8 °C 6,4 km/h (2 Bft)
07.06.2018 10:38 19,8 °C 75 % 1013,2 hPa 0,0 mm 5,5 km/h (1 Bft) NW 325 ° 0 min 0,000 mm 3,2 UV-I 367 W/m² 15,2 °C 19,8 °C 8,0 km/h (2 Bft)
07.06.2018 10:39 19,8 °C 77 % 1013,2 hPa 0,0 mm 5,3 km/h (1 Bft) W-NW 288 ° 0 min 0,000 mm 3,2 UV-I 366 W/m² 15,6 °C 19,8 °C 9,7 km/h (2 Bft)
07.06.2018 10:40 19,8 °C 75 % 1013,2 hPa 0,0 mm 7,2 km/h (2 Bft) NW 304 ° 0 min 0,000 mm 3,1 UV-I 359 W/m² 15,2 °C 19,8 °C 12,9 km/h (3 Bft)
07.06.2018 10:41 19,8 °C 76 % 1013,2 hPa 0,0 mm 5,6 km/h (1 Bft) W-NW 292 ° 0 min 0,000 mm 3,1 UV-I 359 W/m² 15,4 °C 19,8 °C 9,7 km/h (2 Bft)
07.06.2018 10:42 19,7 °C 75 % 1013,1 hPa 0,0 mm 5,6 km/h (1 Bft) W 263 ° 0 min 0,000 mm 3,1 UV-I 343 W/m² 15,1 °C 19,7 °C 9,7 km/h (2 Bft)
07.06.2018 10:43 19,7 °C 75 % 1013,2 hPa 0,0 mm 6,1 km/h (2 Bft) W-NW 292 ° 0 min 0,000 mm 3,0 UV-I 341 W/m² 15,1 °C 19,7 °C 11,3 km/h (2 Bft)
07.06.2018 10:44 19,7 °C 75 % 1013,2 hPa 0,0 mm 8,1 km/h (2 Bft) W-NW 282 ° 0 min 0,000 mm 3,0 UV-I 339 W/m² 15,1 °C 19,7 °C 14,5 km/h (3 Bft)
07.06.2018 10:45 19,7 °C 74 % 1013,2 hPa 0,0 mm 8,0 km/h (2 Bft) W-NW 292 ° 0 min 0,000 mm 3,0 UV-I 338 W/m² 14,9 °C 19,7 °C 11,3 km/h (2 Bft)
07.06.2018 10:46 19,6 °C 76 % 1013,2 hPa 0,0 mm 5,4 km/h (1 Bft) W-NW 284 ° 0 min 0,000 mm 3,0 UV-I 338 W/m² 15,2 °C 19,6 °C 8,0 km/h (2 Bft)
07.06.2018 10:47 19,6 °C 76 % 1013,2 hPa 0,0 mm 6,9 km/h (2 Bft) W-NW 292 ° 0 min 0,000 mm 3,0 UV-I 338 W/m² 15,2 °C 19,6 °C 14,5 km/h (3 Bft)
07.06.2018 10:48 19,7 °C 76 % 1013,2 hPa 0,0 mm 5,4 km/h (1 Bft) W-NW 286 ° 0 min 0,000 mm 3,0 UV-I 338 W/m² 15,3 °C 19,7 °C 6,4 km/h (2 Bft)
07.06.2018 10:49 19,7 °C 76 % 1013,2 hPa 0,0 mm 5,0 km/h (1 Bft) W-NW 289 ° 0 min 0,000 mm 3,0 UV-I 338 W/m² 15,3 °C 19,7 °C 6,4 km/h (2 Bft)
07.06.2018 10:50 19,7 °C 77 % 1013,2 hPa 0,0 mm 4,0 km/h (1 Bft) W 274 ° 0 min 0,000 mm 3,0 UV-I 338 W/m² 15,5 °C 19,7 °C 6,4 km/h (2 Bft)
07.06.2018 10:51 19,7 °C 76 % 1013,1 hPa 0,0 mm 3,2 km/h (1 Bft) W 272 ° 0 min 0,000 mm 3,0 UV-I 338 W/m² 15,3 °C 19,7 °C 6,4 km/h (2 Bft)
07.06.2018 10:52 19,7 °C 76 % 1013,2 hPa 0,0 mm 6,2 km/h (2 Bft) W-SW 257 ° 0 min 0,000 mm 3,0 UV-I 339 W/m² 15,3 °C 19,7 °C 9,7 km/h (2 Bft)
07.06.2018 10:53 19,7 °C 77 % 1013,2 hPa 0,0 mm 3,8 km/h (1 Bft) W-NW 289 ° 0 min 0,000 mm 3,0 UV-I 339 W/m² 15,5 °C 19,7 °C 4,8 km/h (1 Bft)
07.06.2018 10:54 19,7 °C 77 % 1013,2 hPa 0,0 mm 5,7 km/h (1 Bft) W 278 ° 0 min 0,000 mm 3,0 UV-I 339 W/m² 15,5 °C 19,7 °C 11,3 km/h (2 Bft)
07.06.2018 10:55 19,7 °C 77 % 1013,1 hPa 0,0 mm 6,6 km/h (2 Bft) W-NW 300 ° 0 min 0,000 mm 3,0 UV-I 339 W/m² 15,5 °C 19,7 °C 12,9 km/h (3 Bft)
07.06.2018 10:56 19,8 °C 77 % 1013,2 hPa 0,0 mm 8,2 km/h (2 Bft) NW 321 ° 0 min 0,000 mm 2,9 UV-I 339 W/m² 15,6 °C 19,8 °C 14,5 km/h (3 Bft)
07.06.2018 10:57 19,8 °C 76 % 1013,2 hPa 0,0 mm 5,9 km/h (2 Bft) NW 309 ° 0 min 0,000 mm 2,9 UV-I 339 W/m² 15,4 °C 19,8 °C 9,7 km/h (2 Bft)
07.06.2018 10:58 19,8 °C 77 % 1013,2 hPa 0,0 mm 6,8 km/h (2 Bft) NW 321 ° 0 min 0,000 mm 2,9 UV-I 339 W/m² 15,6 °C 19,8 °C 9,7 km/h (2 Bft)
07.06.2018 10:59 19,8 °C 77 % 1013,2 hPa 0,0 mm 6,8 km/h (2 Bft) NW 308 ° 0 min 0,000 mm 2,9 UV-I 339 W/m² 15,6 °C 19,8 °C 8,0 km/h (2 Bft)
07.06.2018 11:00 19,8 °C 77 % 1013,2 hPa 0,0 mm 5,6 km/h (1 Bft) W-NW 300 ° 0 min 0,228 mm 2,9 UV-I 339 W/m² 15,6 °C 19,8 °C 9,7 km/h (2 Bft)
07.06.2018 11:01 19,8 °C 78 % 1013,2 hPa 0,0 mm 5,1 km/h (1 Bft) NW 320 ° 0 min 0,000 mm 3,0 UV-I 341 W/m² 15,8 °C 19,8 °C 8,0 km/h (2 Bft)
07.06.2018 11:02 19,9 °C 79 % 1013,2 hPa 0,0 mm 5,2 km/h (1 Bft) NW 313 ° 0 min 0,000 mm 3,0 UV-I 341 W/m² 16,1 °C 19,9 °C 8,0 km/h (2 Bft)
07.06.2018 11:03 19,9 °C 76 % 1013,2 hPa 0,0 mm 5,8 km/h (2 Bft) W-NW 296 ° 0 min 0,000 mm 3,0 UV-I 343 W/m² 15,5 °C 19,9 °C 9,7 km/h (2 Bft)
07.06.2018 11:04 19,8 °C 76 % 1013,3 hPa 0,0 mm 7,8 km/h (2 Bft) W 271 ° 0 min 0,000 mm 3,0 UV-I 343 W/m² 15,4 °C 19,8 °C 14,5 km/h (3 Bft)
07.06.2018 11:05 19,8 °C 76 % 1013,2 hPa 0,0 mm 9,4 km/h (2 Bft) W 268 ° 0 min 0,000 mm 3,0 UV-I 343 W/m² 15,4 °C 19,8 °C 14,5 km/h (3 Bft)
07.06.2018 11:06 19,8 °C 76 % 1013,3 hPa 0,0 mm 5,6 km/h (1 Bft) W-SW 257 ° 0 min 0,000 mm 3,0 UV-I 343 W/m² 15,4 °C 19,8 °C 8,0 km/h (2 Bft)
07.06.2018 11:07 19,7 °C 76 % 1013,2 hPa 0,0 mm 4,5 km/h (1 Bft) W-NW 296 ° 0 min 0,000 mm 3,0 UV-I 345 W/m² 15,3 °C 19,7 °C 6,4 km/h (2 Bft)
07.06.2018 11:08 19,7 °C 77 % 1013,3 hPa 0,0 mm 6,5 km/h (2 Bft) NW 305 ° 0 min 0,000 mm 3,0 UV-I 345 W/m² 15,5 °C 19,7 °C 11,3 km/h (2 Bft)
07.06.2018 11:09 19,7 °C 77 % 1013,2 hPa 0,0 mm 5,0 km/h (1 Bft) W-NW 294 ° 0 min 0,000 mm 3,0 UV-I 346 W/m² 15,5 °C 19,7 °C 9,7 km/h (2 Bft)
07.06.2018 11:10 19,7 °C 77 % 1013,2 hPa 0,0 mm 7,5 km/h (2 Bft) W-NW 302 ° 0 min 0,000 mm 3,0 UV-I 346 W/m² 15,5 °C 19,7 °C 11,3 km/h (2 Bft)
07.06.2018 11:11 19,7 °C 77 % 1013,3 hPa 0,0 mm 8,2 km/h (2 Bft) W 259 ° 0 min 0,000 mm 3,0 UV-I 348 W/m² 15,5 °C 19,7 °C 14,5 km/h (3 Bft)
07.06.2018 11:12 19,7 °C 75 % 1013,3 hPa 0,0 mm 8,0 km/h (2 Bft) W 263 ° 0 min 0,000 mm 3,0 UV-I 348 W/m² 15,1 °C 19,7 °C 12,9 km/h (3 Bft)
07.06.2018 11:13 19,7 °C 76 % 1013,2 hPa 0,0 mm 5,8 km/h (2 Bft) NW 323 ° 0 min 0,000 mm 3,0 UV-I 348 W/m² 15,3 °C 19,7 °C 11,3 km/h (2 Bft)
07.06.2018 11:14 19,7 °C 75 % 1013,2 hPa 0,0 mm 7,0 km/h (2 Bft) W 259 ° 0 min 0,000 mm 3,0 UV-I 350 W/m² 15,1 °C 19,7 °C 12,9 km/h (3 Bft)
07.06.2018 11:15 19,7 °C 76 % 1013,3 hPa 0,0 mm 4,5 km/h (1 Bft) W 275 ° 0 min 0,000 mm 3,0 UV-I 350 W/m² 15,3 °C 19,7 °C 6,4 km/h (2 Bft)
07.06.2018 11:16 19,7 °C 76 % 1013,3 hPa 0,0 mm 5,9 km/h (2 Bft) W-NW 282 ° 0 min 0,000 mm 3,0 UV-I 350 W/m² 15,3 °C 19,7 °C 9,7 km/h (2 Bft)
07.06.2018 11:17 19,7 °C 78 % 1013,3 hPa 0,0 mm 5,5 km/h (1 Bft) W-NW 292 ° 0 min 0,000 mm 3,0 UV-I 352 W/m² 15,8 °C 19,7 °C 9,7 km/h (2 Bft)
07.06.2018 11:18 19,8 °C 76 % 1013,3 hPa 0,0 mm 7,6 km/h (2 Bft) W-NW 286 ° 0 min 0,000 mm 3,1 UV-I 353 W/m² 15,4 °C 19,8 °C 11,3 km/h (2 Bft)
07.06.2018 11:19 19,8 °C 78 % 1013,3 hPa 0,0 mm 6,6 km/h (2 Bft) W-NW 294 ° 0 min 0,000 mm 3,1 UV-I 353 W/m² 15,8 °C 19,8 °C 11,3 km/h (2 Bft)
07.06.2018 11:20 19,8 °C 77 % 1013,3 hPa 0,0 mm 6,2 km/h (2 Bft) W-NW 298 ° 0 min 0,000 mm 3,1 UV-I 353 W/m² 15,6 °C 19,8 °C 9,7 km/h (2 Bft)
07.06.2018 11:21 19,8 °C 75 % 1013,3 hPa 0,0 mm 3,6 km/h (1 Bft) W-NW 298 ° 0 min 0,000 mm 3,1 UV-I 355 W/m² 15,2 °C 19,8 °C 6,4 km/h (2 Bft)
07.06.2018 11:22 19,8 °C 78 % 1013,3 hPa 0,0 mm 3,5 km/h (1 Bft) W-NW 302 ° 0 min 0,000 mm 3,1 UV-I 355 W/m² 15,8 °C 19,8 °C 6,4 km/h (2 Bft)
07.06.2018 11:23 19,9 °C 78 % 1013,3 hPa 0,0 mm 5,5 km/h (1 Bft) W-SW 257 ° 0 min 0,000 mm 3,1 UV-I 353 W/m² 15,9 °C 19,9 °C 6,4 km/h (2 Bft)
07.06.2018 11:24 19,9 °C 76 % 1013,3 hPa 0,0 mm 5,2 km/h (1 Bft) W 259 ° 0 min 0,000 mm 3,1 UV-I 353 W/m² 15,5 °C 19,9 °C 9,7 km/h (2 Bft)
07.06.2018 11:25 19,9 °C 77 % 1013,3 hPa 0,0 mm 4,2 km/h (1 Bft) W 271 ° 0 min 0,000 mm 3,1 UV-I 353 W/m² 15,7 °C 19,9 °C 6,4 km/h (2 Bft)
07.06.2018 11:26 19,9 °C 78 % 1013,3 hPa 0,0 mm 8,9 km/h (2 Bft) W 262 ° 0 min 0,000 mm 3,1 UV-I 352 W/m² 15,9 °C 19,9 °C 12,9 km/h (3 Bft)
07.06.2018 11:27 19,9 °C 76 % 1013,3 hPa 0,0 mm 7,4 km/h (2 Bft) W-NW 286 ° 0 min 0,000 mm 3,1 UV-I 353 W/m² 15,5 °C 19,9 °C 12,9 km/h (3 Bft)
07.06.2018 11:28 19,9 °C 76 % 1013,3 hPa 0,0 mm 5,5 km/h (1 Bft) W-NW 296 ° 0 min 0,000 mm 3,1 UV-I 353 W/m² 15,5 °C 19,9 °C 11,3 km/h (2 Bft)
07.06.2018 11:29 19,8 °C 75 % 1013,4 hPa 0,0 mm 5,6 km/h (1 Bft) W-NW 288 ° 0 min 0,000 mm 3,1 UV-I 355 W/m² 15,2 °C 19,8 °C 12,9 km/h (3 Bft)
07.06.2018 11:30 19,8 °C 75 % 1013,4 hPa 0,0 mm 6,0 km/h (2 Bft) W-NW 294 ° 0 min 0,000 mm 3,1 UV-I 360 W/m² 15,2 °C 19,8 °C 8,0 km/h (2 Bft)
07.06.2018 11:31 19,8 °C 75 % 1013,4 hPa 0,0 mm 4,4 km/h (1 Bft) W-NW 298 ° 0 min 0,000 mm 3,2 UV-I 364 W/m² 15,2 °C 19,8 °C 6,4 km/h (2 Bft)
07.06.2018 11:32 19,8 °C 75 % 1013,4 hPa 0,0 mm 4,1 km/h (1 Bft) W 279 ° 0 min 0,000 mm 3,2 UV-I 367 W/m² 15,2 °C 19,8 °C 6,4 km/h (2 Bft)
07.06.2018 11:33 19,8 °C 76 % 1013,3 hPa 0,0 mm 6,1 km/h (2 Bft) NW 319 ° 0 min 0,000 mm 3,2 UV-I 371 W/m² 15,4 °C 19,8 °C 8,0 km/h (2 Bft)
07.06.2018 11:34 19,9 °C 76 % 1013,3 hPa 0,0 mm 3,7 km/h (1 Bft) W-NW 301 ° 0 min 0,000 mm 3,3 UV-I 373 W/m² 15,5 °C 19,9 °C 6,4 km/h (2 Bft)
07.06.2018 11:35 20,0 °C 76 % 1013,4 hPa 0,0 mm 4,8 km/h (1 Bft) NW 325 ° 0 min 0,000 mm 3,3 UV-I 378 W/m² 15,6 °C 20,0 °C 6,4 km/h (2 Bft)
07.06.2018 11:36 20,0 °C 77 % 1013,4 hPa 0,0 mm 7,4 km/h (2 Bft) NW 323 ° 0 min 0,000 mm 3,3 UV-I 380 W/m² 15,8 °C 20,0 °C 11,3 km/h (2 Bft)
07.06.2018 11:37 20,1 °C 76 % 1013,4 hPa 0,0 mm 4,8 km/h (1 Bft) NW 311 ° 0 min 0,000 mm 3,3 UV-I 383 W/m² 15,7 °C 20,1 °C 6,4 km/h (2 Bft)
07.06.2018 11:38 20,1 °C 75 % 1013,4 hPa 0,0 mm 2,6 km/h (1 Bft) NW 317 ° 0 min 0,000 mm 3,4 UV-I 387 W/m² 15,5 °C 20,1 °C 6,4 km/h (2 Bft)
07.06.2018 11:39 20,1 °C 75 % 1013,3 hPa 0,0 mm 1,9 km/h (1 Bft) NW 317 ° 0 min 0,000 mm 3,4 UV-I 392 W/m² 15,5 °C 20,1 °C 4,8 km/h (1 Bft)
07.06.2018 11:40 20,1 °C 76 % 1013,4 hPa 0,0 mm 2,0 km/h (1 Bft) W-NW 303 ° 0 min 0,000 mm 3,5 UV-I 397 W/m² 15,7 °C 20,1 °C 4,8 km/h (1 Bft)
07.06.2018 11:41 20,1 °C 75 % 1013,4 hPa 0,0 mm 1,7 km/h (1 Bft) W-NW 303 ° 0 min 0,000 mm 3,5 UV-I 411 W/m² 15,5 °C 20,1 °C 4,8 km/h (1 Bft)
07.06.2018 11:42 20,1 °C 77 % 1013,3 hPa 0,0 mm 3,7 km/h (1 Bft) W 261 ° 0 min 0,000 mm 3,6 UV-I 418 W/m² 15,9 °C 20,1 °C 6,4 km/h (2 Bft)
07.06.2018 11:43 20,2 °C 78 % 1013,3 hPa 0,0 mm 4,2 km/h (1 Bft) W 261 ° 0 min 0,000 mm 3,7 UV-I 425 W/m² 16,2 °C 20,2 °C 4,8 km/h (1 Bft)
07.06.2018 11:44 20,1 °C 75 % 1013,3 hPa 0,0 mm 1,8 km/h (1 Bft) W 261 ° 0 min 0,000 mm 3,8 UV-I 434 W/m² 15,5 °C 20,1 °C 3,2 km/h (1 Bft)
07.06.2018 11:45 20,1 °C 75 % 1013,3 hPa 0,0 mm 1,4 km/h (1 Bft) W 268 ° 0 min 0,000 mm 3,8 UV-I 443 W/m² 15,5 °C 20,1 °C 9,7 km/h (2 Bft)
07.06.2018 11:46 20,1 °C 76 % 1013,4 hPa 0,0 mm 5,7 km/h (1 Bft) W-NW 287 ° 0 min 0,000 mm 3,9 UV-I 450 W/m² 15,7 °C 20,1 °C 12,9 km/h (3 Bft)
07.06.2018 11:47 20,1 °C 76 % 1013,4 hPa 0,0 mm 5,2 km/h (1 Bft) W-NW 287 ° 0 min 0,000 mm 4,0 UV-I 466 W/m² 15,7 °C 20,1 °C 11,3 km/h (2 Bft)
07.06.2018 11:48 20,2 °C 76 % 1013,3 hPa 0,0 mm 6,7 km/h (2 Bft) W 263 ° 0 min 0,000 mm 4,1 UV-I 476 W/m² 15,8 °C 20,2 °C 9,7 km/h (2 Bft)
07.06.2018 11:49 20,3 °C 76 % 1013,4 hPa 0,0 mm 5,4 km/h (1 Bft) W 275 ° 0 min 0,000 mm 4,3 UV-I 513 W/m² 15,9 °C 20,3 °C 6,4 km/h (2 Bft)
07.06.2018 11:50 20,3 °C 75 % 1013,3 hPa 0,0 mm 4,6 km/h (1 Bft) W-NW 294 ° 0 min 0,000 mm 4,2 UV-I 501 W/m² 15,7 °C 20,3 °C 6,4 km/h (2 Bft)
07.06.2018 11:51 20,3 °C 74 % 1013,4 hPa 0,0 mm 3,8 km/h (1 Bft) W-NW 294 ° 0 min 0,000 mm 4,3 UV-I 510 W/m² 15,5 °C 20,3 °C 4,8 km/h (1 Bft)
07.06.2018 11:52 20,2 °C 73 % 1013,4 hPa 0,0 mm 2,5 km/h (1 Bft) W-NW 294 ° 0 min 0,000 mm 4,4 UV-I 524 W/m² 15,2 °C 20,2 °C 3,2 km/h (1 Bft)
07.06.2018 11:53 20,2 °C 74 % 1013,3 hPa 0,0 mm 1,3 km/h (1 Bft) W-NW 294 ° 0 min 0,000 mm 4,4 UV-I 524 W/m² 15,4 °C 20,2 °C 4,8 km/h (1 Bft)
07.06.2018 11:54 20,1 °C 74 % 1013,4 hPa 0,0 mm 6,4 km/h (2 Bft) W 271 ° 0 min 0,000 mm 4,3 UV-I 508 W/m² 15,3 °C 20,1 °C 9,7 km/h (2 Bft)
07.06.2018 11:55 20,2 °C 75 % 1013,4 hPa 0,0 mm 3,6 km/h (1 Bft) W-NW 288 ° 0 min 0,000 mm 4,4 UV-I 508 W/m² 15,6 °C 20,2 °C 6,4 km/h (2 Bft)
07.06.2018 11:56 20,3 °C 77 % 1013,4 hPa 0,0 mm 4,4 km/h (1 Bft) NW 315 ° 0 min 0,000 mm 4,4 UV-I 512 W/m² 16,1 °C 20,3 °C 6,4 km/h (2 Bft)
07.06.2018 11:57 20,3 °C 75 % 1013,3 hPa 0,0 mm 1,9 km/h (1 Bft) W-NW 294 ° 0 min 0,000 mm 4,3 UV-I 497 W/m² 15,7 °C 20,3 °C 6,4 km/h (2 Bft)
07.06.2018 11:58 20,4 °C 75 % 1013,3 hPa 0,0 mm 4,1 km/h (1 Bft) NW 309 ° 0 min 0,000 mm 4,2 UV-I 483 W/m² 15,8 °C 20,4 °C 6,4 km/h (2 Bft)
07.06.2018 11:59 20,5 °C 76 % 1013,3 hPa 0,0 mm 6,5 km/h (2 Bft) NW 321 ° 0 min 0,000 mm 4,2 UV-I 485 W/m² 16,1 °C 20,5 °C 8,0 km/h (2 Bft)
07.06.2018 12:00 20,6 °C 75 % 1013,3 hPa 0,0 mm 5,1 km/h (1 Bft) NW 306 ° 0 min 0,000 mm 4,2 UV-I 494 W/m² 16,0 °C 20,6 °C 8,0 km/h (2 Bft)
07.06.2018 12:01 20,5 °C 74 % 1013,3 hPa 0,0 mm 3,8 km/h (1 Bft) NW 318 ° 0 min 0,254 mm 4,1 UV-I 473 W/m² 15,7 °C 20,5 °C 8,0 km/h (2 Bft)
07.06.2018 12:02 20,6 °C 75 % 1013,4 hPa 0,0 mm 4,0 km/h (1 Bft) NW 310 ° 0 min 0,000 mm 4,0 UV-I 454 W/m² 16,0 °C 20,6 °C 6,4 km/h (2 Bft)
07.06.2018 12:03 20,6 °C 76 % 1013,3 hPa 0,0 mm 1,5 km/h (1 Bft) NW 310 ° 0 min 0,000 mm 3,9 UV-I 439 W/m² 16,2 °C 20,6 °C 3,2 km/h (1 Bft)
07.06.2018 12:04 20,6 °C 77 % 1013,3 hPa 0,0 mm 4,2 km/h (1 Bft) NW 313 ° 0 min 0,000 mm 3,9 UV-I 429 W/m² 16,4 °C 20,6 °C 6,4 km/h (2 Bft)
07.06.2018 12:05 20,6 °C 75 % 1013,3 hPa 0,0 mm 5,0 km/h (1 Bft) N-NW 327 ° 0 min 0,000 mm 3,8 UV-I 415 W/m² 16,0 °C 20,6 °C 8,0 km/h (2 Bft)
07.06.2018 12:06 20,6 °C 76 % 1013,3 hPa 0,0 mm 7,6 km/h (2 Bft) N-NO 20 ° 0 min 0,000 mm 3,7 UV-I 408 W/m² 16,2 °C 20,6 °C 12,9 km/h (3 Bft)
07.06.2018 12:07 20,6 °C 75 % 1013,3 hPa 0,0 mm 6,3 km/h (2 Bft) N-NW 345 ° 0 min 0,000 mm 3,7 UV-I 401 W/m² 16,0 °C 20,6 °C 8,0 km/h (2 Bft)
07.06.2018 12:08 20,7 °C 75 % 1013,3 hPa 0,0 mm 5,7 km/h (1 Bft) NW 323 ° 0 min 0,000 mm 3,6 UV-I 394 W/m² 16,1 °C 20,7 °C 8,0 km/h (2 Bft)
07.06.2018 12:09 20,7 °C 73 % 1013,3 hPa 0,0 mm 1,9 km/h (1 Bft) NW 323 ° 0 min 0,000 mm 3,6 UV-I 388 W/m² 15,7 °C 20,7 °C 3,2 km/h (1 Bft)
07.06.2018 12:10 20,6 °C 73 % 1013,3 hPa 0,0 mm 2,0 km/h (1 Bft) NW 308 ° 0 min 0,000 mm 3,5 UV-I 388 W/m² 15,6 °C 20,6 °C 4,8 km/h (1 Bft)
07.06.2018 12:11 20,6 °C 74 % 1013,3 hPa 0,0 mm 0,7 km/h (0 Bft) W-NW 302 ° 0 min 0,000 mm 3,5 UV-I 374 W/m² 15,8 °C 20,6 °C 3,2 km/h (1 Bft)
07.06.2018 12:12 20,6 °C 75 % 1013,3 hPa 0,0 mm 5,3 km/h (1 Bft) NW 316 ° 0 min 0,000 mm 3,4 UV-I 371 W/m² 16,0 °C 20,6 °C 6,4 km/h (2 Bft)
07.06.2018 12:13 20,6 °C 76 % 1013,3 hPa 0,0 mm 5,1 km/h (1 Bft) NW 320 ° 0 min 0,000 mm 3,4 UV-I 367 W/m² 16,2 °C 20,6 °C 6,4 km/h (2 Bft)
07.06.2018 12:14 20,5 °C 73 % 1013,3 hPa 0,0 mm 4,1 km/h (1 Bft) N-NO 24 ° 0 min 0,000 mm 3,4 UV-I 366 W/m² 15,5 °C 20,5 °C 6,4 km/h (2 Bft)
07.06.2018 12:15 20,5 °C 75 % 1013,3 hPa 0,0 mm 5,7 km/h (1 Bft) N 355 ° 0 min 0,000 mm 3,3 UV-I 364 W/m² 15,9 °C 20,5 °C 6,4 km/h (2 Bft)
07.06.2018 12:16 20,6 °C 75 % 1013,3 hPa 0,0 mm 3,5 km/h (1 Bft) N-NW 334 ° 0 min 0,000 mm 3,3 UV-I 362 W/m² 16,0 °C 20,6 °C 6,4 km/h (2 Bft)
07.06.2018 12:17 20,7 °C 76 % 1013,3 hPa 0,0 mm 4,6 km/h (1 Bft) N 355 ° 0 min 0,000 mm 3,3 UV-I 362 W/m² 16,3 °C 20,7 °C 6,4 km/h (2 Bft)
07.06.2018 12:18 20,7 °C 74 % 1013,3 hPa 0,0 mm 3,1 km/h (1 Bft) N 355 ° 0 min 0,000 mm 3,3 UV-I 360 W/m² 15,9 °C 20,7 °C 4,8 km/h (1 Bft)
07.06.2018 12:19 20,7 °C 74 % 1013,2 hPa 0,0 mm 2,7 km/h (1 Bft) N-NW 328 ° 0 min 0,000 mm 3,3 UV-I 362 W/m² 15,9 °C 20,7 °C 4,8 km/h (1 Bft)
07.06.2018 12:20 20,7 °C 74 % 1013,2 hPa 0,0 mm 3,2 km/h (1 Bft) N-NW 327 ° 0 min 0,000 mm 3,3 UV-I 362 W/m² 15,9 °C 20,7 °C 6,4 km/h (2 Bft)
07.06.2018 12:21 20,6 °C 72 % 1013,2 hPa 0,0 mm 4,1 km/h (1 Bft) W-NW 298 ° 0 min 0,000 mm 3,3 UV-I 362 W/m² 15,4 °C 20,6 °C 4,8 km/h (1 Bft)
07.06.2018 12:22 20,6 °C 74 % 1013,2 hPa 0,0 mm 4,0 km/h (1 Bft) W 276 ° 0 min 0,000 mm 3,3 UV-I 360 W/m² 15,8 °C 20,6 °C 8,0 km/h (2 Bft)
07.06.2018 12:23 20,5 °C 74 % 1013,2 hPa 0,0 mm 3,3 km/h (1 Bft) W 276 ° 0 min 0,000 mm 3,3 UV-I 359 W/m² 15,7 °C 20,5 °C 4,8 km/h (1 Bft)
07.06.2018 12:24 20,4 °C 73 % 1013,2 hPa 0,0 mm 2,4 km/h (1 Bft) W 276 ° 0 min 0,000 mm 3,3 UV-I 359 W/m² 15,4 °C 20,4 °C 3,2 km/h (1 Bft)
07.06.2018 12:25 20,3 °C 73 % 1013,2 hPa 0,0 mm 3,8 km/h (1 Bft) W-NW 283 ° 0 min 0,000 mm 3,2 UV-I 357 W/m² 15,3 °C 20,3 °C 6,4 km/h (2 Bft)
07.06.2018 12:26 20,4 °C 74 % 1013,2 hPa 0,0 mm 2,7 km/h (1 Bft) W 277 ° 0 min 0,000 mm 3,2 UV-I 355 W/m² 15,6 °C 20,4 °C 4,8 km/h (1 Bft)
07.06.2018 12:27 20,3 °C 75 % 1013,2 hPa 0,0 mm 1,6 km/h (1 Bft) W 277 ° 0 min 0,000 mm 3,2 UV-I 355 W/m² 15,7 °C 20,3 °C 3,2 km/h (1 Bft)
07.06.2018 12:28 20,3 °C 74 % 1013,2 hPa 0,0 mm 2,9 km/h (1 Bft) W 278 ° 0 min 0,000 mm 3,2 UV-I 353 W/m² 15,5 °C 20,3 °C 4,8 km/h (1 Bft)
07.06.2018 12:29 20,4 °C 75 % 1013,2 hPa 0,0 mm 4,2 km/h (1 Bft) N-NO 19 ° 0 min 0,000 mm 3,3 UV-I 353 W/m² 15,8 °C 20,4 °C 6,4 km/h (2 Bft)
07.06.2018 12:30 20,4 °C 74 % 1013,2 hPa 0,0 mm 2,9 km/h (1 Bft) N-NW 345 ° 0 min 0,000 mm 3,3 UV-I 357 W/m² 15,6 °C 20,4 °C 6,4 km/h (2 Bft)
07.06.2018 12:31 20,4 °C 75 % 1013,2 hPa 0,0 mm 1,4 km/h (1 Bft) N-NW 345 ° 0 min 0,000 mm 3,3 UV-I 362 W/m² 15,8 °C 20,4 °C 3,2 km/h (1 Bft)
07.06.2018 12:32 20,5 °C 75 % 1013,2 hPa 0,0 mm 2,1 km/h (1 Bft) N-NW 345 ° 0 min 0,000 mm 3,4 UV-I 371 W/m² 15,9 °C 20,5 °C 4,8 km/h (1 Bft)
07.06.2018 12:33 20,6 °C 75 % 1013,2 hPa 0,0 mm 5,7 km/h (1 Bft) NW 326 ° 0 min 0,000 mm 3,5 UV-I 383 W/m² 16,0 °C 20,6 °C 8,0 km/h (2 Bft)
07.06.2018 12:34 20,7 °C 76 % 1013,2 hPa 0,0 mm 5,0 km/h (1 Bft) NW 313 ° 0 min 0,000 mm 3,6 UV-I 410 W/m² 16,3 °C 20,7 °C 8,0 km/h (2 Bft)
07.06.2018 12:35 20,7 °C 72 % 1013,2 hPa 0,0 mm 2,5 km/h (1 Bft) NW 313 ° 0 min 0,000 mm 4,0 UV-I 443 W/m² 15,5 °C 20,7 °C 3,2 km/h (1 Bft)
07.06.2018 12:36 20,6 °C 72 % 1013,2 hPa 0,0 mm 1,2 km/h (1 Bft) NW 313 ° 0 min 0,000 mm 4,7 UV-I 506 W/m² 15,4 °C 20,6 °C 4,8 km/h (1 Bft)
07.06.2018 12:37 20,6 °C 75 % 1013,2 hPa 0,0 mm 6,5 km/h (2 Bft) NW 315 ° 0 min 0,000 mm 5,6 UV-I 506 W/m² 16,0 °C 20,6 °C 12,9 km/h (3 Bft)
07.06.2018 12:38 20,8 °C 74 % 1013,2 hPa 0,0 mm 8,6 km/h (2 Bft) NW 321 ° 0 min 0,000 mm 6,7 UV-I 506 W/m² 16,0 °C 20,8 °C 12,9 km/h (3 Bft)
07.06.2018 12:39 21,1 °C 76 % 1013,2 hPa 0,0 mm 5,7 km/h (1 Bft) NW 317 ° 1 min 0,000 mm 6,6 UV-I 1016 W/m² 16,7 °C 21,1 °C 12,9 km/h (3 Bft)
07.06.2018 12:40 21,2 °C 73 % 1013,2 hPa 0,0 mm 5,2 km/h (1 Bft) NW 317 ° 1 min 0,000 mm 5,3 UV-I 1016 W/m² 16,2 °C 21,2 °C 9,7 km/h (2 Bft)
07.06.2018 12:41 21,3 °C 73 % 1013,3 hPa 0,0 mm 8,1 km/h (2 Bft) N 350 ° 1 min 0,000 mm 8,1 UV-I 1016 W/m² 16,3 °C 21,3 °C 9,7 km/h (2 Bft)
07.06.2018 12:42 21,6 °C 76 % 1013,2 hPa 0,0 mm 7,3 km/h (2 Bft) NW 324 ° 1 min 0,000 mm 7,1 UV-I 1016 W/m² 17,2 °C 21,6 °C 12,9 km/h (3 Bft)
07.06.2018 12:43 21,7 °C 72 % 1013,2 hPa 0,0 mm 6,3 km/h (2 Bft) N-NW 339 ° 1 min 0,000 mm 7,1 UV-I 942 W/m² 16,4 °C 21,7 °C 14,5 km/h (3 Bft)
07.06.2018 12:44 21,8 °C 72 % 1013,3 hPa 0,0 mm 7,1 km/h (2 Bft) N 5 ° 1 min 0,000 mm 6,5 UV-I 942 W/m² 16,5 °C 21,8 °C 12,9 km/h (3 Bft)
07.06.2018 12:45 21,8 °C 71 % 1013,2 hPa 0,0 mm 6,8 km/h (2 Bft) W-NW 297 ° 1 min 0,000 mm 6,6 UV-I 751 W/m² 16,3 °C 21,8 °C 9,7 km/h (2 Bft)
07.06.2018 12:46 21,7 °C 67 % 1013,3 hPa 0,0 mm 4,2 km/h (1 Bft) W-NW 294 ° 1 min 0,000 mm 6,8 UV-I 796 W/m² 15,3 °C 21,7 °C 9,7 km/h (2 Bft)
07.06.2018 12:47 21,6 °C 69 % 1013,2 hPa 0,0 mm 7,2 km/h (2 Bft) W-NW 294 ° 1 min 0,000 mm 7,1 UV-I 863 W/m² 15,7 °C 21,6 °C 11,3 km/h (2 Bft)
07.06.2018 12:48 21,5 °C 69 % 1013,2 hPa 0,0 mm 6,4 km/h (2 Bft) N-NW 327 ° 1 min 0,000 mm 6,8 UV-I 863 W/m² 15,6 °C 21,5 °C 8,0 km/h (2 Bft)
07.06.2018 12:49 21,5 °C 72 % 1013,2 hPa 0,0 mm 4,6 km/h (1 Bft) W 259 ° 1 min 0,000 mm 7,5 UV-I 1065 W/m² 16,2 °C 21,5 °C 4,8 km/h (1 Bft)
07.06.2018 12:50 21,5 °C 70 % 1013,3 hPa 0,0 mm 4,7 km/h (1 Bft) N-NW 328 ° 1 min 0,000 mm 8,0 UV-I 1118 W/m² 15,8 °C 21,5 °C 6,4 km/h (2 Bft)
07.06.2018 12:51 21,6 °C 72 % 1013,2 hPa 0,0 mm 3,1 km/h (1 Bft) N-NW 327 ° 1 min 0,000 mm 7,0 UV-I 1118 W/m² 16,3 °C 21,6 °C 4,8 km/h (1 Bft)
07.06.2018 12:52 21,7 °C 71 % 1013,3 hPa 0,0 mm 2,8 km/h (1 Bft) N-NW 327 ° 1 min 0,000 mm 6,4 UV-I 663 W/m² 16,2 °C 21,7 °C 4,8 km/h (1 Bft)
07.06.2018 12:53 21,8 °C 71 % 1013,2 hPa 0,0 mm 6,1 km/h (2 Bft) N-NW 340 ° 1 min 0,000 mm 6,4 UV-I 689 W/m² 16,3 °C 21,8 °C 8,0 km/h (2 Bft)
07.06.2018 12:54 22,0 °C 73 % 1013,3 hPa 0,0 mm 5,8 km/h (2 Bft) NW 321 ° 1 min 0,000 mm 7,8 UV-I 689 W/m² 16,9 °C 22,0 °C 9,7 km/h (2 Bft)
07.06.2018 12:55 21,9 °C 70 % 1013,3 hPa 0,0 mm 5,3 km/h (1 Bft) N 9 ° 1 min 0,000 mm 7,7 UV-I 689 W/m² 16,2 °C 21,9 °C 11,3 km/h (2 Bft)
07.06.2018 12:56 22,1 °C 72 % 1013,2 hPa 0,0 mm 8,0 km/h (2 Bft) N-NW 328 ° 1 min 0,000 mm 8,0 UV-I 1053 W/m² 16,8 °C 22,1 °C 12,9 km/h (3 Bft)
07.06.2018 12:57 22,2 °C 70 % 1013,3 hPa 0,0 mm 3,8 km/h (1 Bft) NW 315 ° 1 min 0,000 mm 8,0 UV-I 1011 W/m² 16,5 °C 22,2 °C 6,4 km/h (2 Bft)
07.06.2018 12:58 22,2 °C 67 % 1013,2 hPa 0,0 mm 2,1 km/h (1 Bft) NW 317 ° 1 min 0,000 mm 7,5 UV-I 1046 W/m² 15,8 °C 22,2 °C 4,8 km/h (1 Bft)
07.06.2018 12:59 22,2 °C 71 % 1013,2 hPa 0,0 mm 4,4 km/h (1 Bft) W-NW 292 ° 1 min 0,000 mm 4,4 UV-I 1046 W/m² 16,7 °C 22,2 °C 8,0 km/h (2 Bft)
07.06.2018 13:00 22,1 °C 69 % 1013,2 hPa 0,0 mm 4,3 km/h (1 Bft) W-NW 289 ° 0 min 0,000 mm 4,1 UV-I 334 W/m² 16,1 °C 22,1 °C 8,0 km/h (2 Bft)
07.06.2018 13:01 21,9 °C 70 % 1013,2 hPa 0,0 mm 6,4 km/h (2 Bft) W 262 ° 0 min 0,356 mm 3,9 UV-I 308 W/m² 16,2 °C 21,9 °C 12,9 km/h (3 Bft)
07.06.2018 13:02 21,6 °C 69 % 1013,2 hPa 0,0 mm 8,4 km/h (2 Bft) W-NW 285 ° 0 min 0,000 mm 3,8 UV-I 295 W/m² 15,7 °C 21,6 °C 11,3 km/h (2 Bft)
07.06.2018 13:03 21,4 °C 68 % 1013,2 hPa 0,0 mm 8,5 km/h (2 Bft) W 273 ° 0 min 0,000 mm 3,7 UV-I 285 W/m² 15,2 °C 21,4 °C 12,9 km/h (3 Bft)
07.06.2018 13:04 21,2 °C 69 % 1013,2 hPa 0,0 mm 2,1 km/h (1 Bft) N-NW 331 ° 0 min 0,000 mm 3,6 UV-I 271 W/m² 15,3 °C 21,2 °C 4,8 km/h (1 Bft)
07.06.2018 13:05 21,0 °C 70 % 1013,2 hPa 0,0 mm 5,2 km/h (1 Bft) N-NO 14 ° 0 min 0,000 mm 3,7 UV-I 290 W/m² 15,3 °C 21,0 °C 6,4 km/h (2 Bft)
07.06.2018 13:06 20,9 °C 70 % 1013,2 hPa 0,0 mm 3,8 km/h (1 Bft) NW 308 ° 0 min 0,000 mm 3,8 UV-I 320 W/m² 15,2 °C 20,9 °C 8,0 km/h (2 Bft)
07.06.2018 13:07 20,8 °C 70 % 1013,2 hPa 0,0 mm 2,3 km/h (1 Bft) NW 308 ° 0 min 0,000 mm 4,0 UV-I 345 W/m² 15,1 °C 20,8 °C 3,2 km/h (1 Bft)
07.06.2018 13:08 20,8 °C 70 % 1013,2 hPa 0,0 mm 2,5 km/h (1 Bft) NW 308 ° 0 min 0,000 mm 4,1 UV-I 364 W/m² 15,1 °C 20,8 °C 4,8 km/h (1 Bft)
07.06.2018 13:09 20,7 °C 71 % 1013,2 hPa 0,0 mm 4,0 km/h (1 Bft) W-NW 296 ° 0 min 0,000 mm 4,2 UV-I 390 W/m² 15,2 °C 20,7 °C 6,4 km/h (2 Bft)
07.06.2018 13:10 20,7 °C 69 % 1013,2 hPa 0,0 mm 3,5 km/h (1 Bft) N-NW 342 ° 0 min 0,000 mm 4,3 UV-I 406 W/m² 14,8 °C 20,7 °C 4,8 km/h (1 Bft)
07.06.2018 13:11 20,7 °C 72 % 1013,2 hPa 0,0 mm 2,9 km/h (1 Bft) N-NW 342 ° 0 min 0,000 mm 4,5 UV-I 438 W/m² 15,5 °C 20,7 °C 3,2 km/h (1 Bft)
07.06.2018 13:12 20,8 °C 72 % 1013,2 hPa 0,0 mm 5,2 km/h (1 Bft) NW 308 ° 0 min 0,000 mm 5,1 UV-I 517 W/m² 15,6 °C 20,8 °C 8,0 km/h (2 Bft)
07.06.2018 13:13 20,8 °C 71 % 1013,2 hPa 0,0 mm 7,0 km/h (2 Bft) W-NW 298 ° 0 min 0,000 mm 5,1 UV-I 490 W/m² 15,3 °C 20,8 °C 11,3 km/h (2 Bft)
07.06.2018 13:14 20,9 °C 72 % 1013,3 hPa 0,0 mm 3,8 km/h (1 Bft) W 274 ° 0 min 0,000 mm 4,8 UV-I 492 W/m² 15,7 °C 20,9 °C 6,4 km/h (2 Bft)
07.06.2018 13:15 20,9 °C 72 % 1013,3 hPa 0,0 mm 3,9 km/h (1 Bft) N-NW 327 ° 0 min 0,000 mm 4,9 UV-I 499 W/m² 15,7 °C 20,9 °C 4,8 km/h (1 Bft)
07.06.2018 13:16 21,0 °C 71 % 1013,3 hPa 0,0 mm 6,6 km/h (2 Bft) W-NW 285 ° 0 min 0,000 mm 7,2 UV-I 499 W/m² 15,5 °C 21,0 °C 11,3 km/h (2 Bft)
07.06.2018 13:17 21,1 °C 70 % 1013,3 hPa 0,0 mm 8,6 km/h (2 Bft) W-NW 290 ° 0 min 0,000 mm 6,8 UV-I 499 W/m² 15,4 °C 21,1 °C 12,9 km/h (3 Bft)
07.06.2018 13:18 21,2 °C 70 % 1013,3 hPa 0,0 mm 3,6 km/h (1 Bft) NW 313 ° 1 min 0,000 mm 6,0 UV-I 671 W/m² 15,5 °C 21,2 °C 8,0 km/h (2 Bft)
07.06.2018 13:19 21,3 °C 74 % 1013,2 hPa 0,0 mm 2,8 km/h (1 Bft) W-SW 250 ° 1 min 0,000 mm 5,5 UV-I 671 W/m² 16,5 °C 21,3 °C 6,4 km/h (2 Bft)
07.06.2018 13:20 21,6 °C 73 % 1013,2 hPa 0,0 mm 4,1 km/h (1 Bft) NW 317 ° 1 min 0,000 mm 6,3 UV-I 671 W/m² 16,5 °C 21,6 °C 6,4 km/h (2 Bft)
07.06.2018 13:21 21,6 °C 72 % 1013,3 hPa 0,0 mm 4,1 km/h (1 Bft) W-NW 286 ° 0 min 0,000 mm 5,6 UV-I 587 W/m² 16,3 °C 21,6 °C 6,4 km/h (2 Bft)
07.06.2018 13:22 21,6 °C 68 % 1013,1 hPa 0,0 mm 1,6 km/h (1 Bft) W-NW 286 ° 0 min 0,000 mm 4,9 UV-I 587 W/m² 15,4 °C 21,6 °C 3,2 km/h (1 Bft)
07.06.2018 13:23 21,4 °C 68 % 1013,1 hPa 0,0 mm 2,8 km/h (1 Bft) W-NW 286 ° 0 min 0,000 mm 5,0 UV-I 587 W/m² 15,2 °C 21,4 °C 3,2 km/h (1 Bft)
07.06.2018 13:24 21,4 °C 73 % 1013,1 hPa 0,0 mm 9,5 km/h (2 Bft) W 264 ° 0 min 0,000 mm 5,0 UV-I 587 W/m² 16,4 °C 21,4 °C 14,5 km/h (3 Bft)
07.06.2018 13:25 21,4 °C 72 % 1013,1 hPa 0,0 mm 9,7 km/h (2 Bft) W-SW 257 ° 0 min 0,000 mm 4,7 UV-I 468 W/m² 16,1 °C 21,4 °C 12,9 km/h (3 Bft)
07.06.2018 13:26 21,4 °C 70 % 1013,1 hPa 0,0 mm 7,2 km/h (2 Bft) W 261 ° 0 min 0,000 mm 5,2 UV-I 487 W/m² 15,7 °C 21,4 °C 11,3 km/h (2 Bft)
07.06.2018 13:27 21,4 °C 70 % 1013,1 hPa 0,0 mm 7,7 km/h (2 Bft) W 260 ° 0 min 0,000 mm 4,9 UV-I 450 W/m² 15,7 °C 21,4 °C 11,3 km/h (2 Bft)
07.06.2018 13:28 21,3 °C 69 % 1013,1 hPa 0,0 mm 6,6 km/h (2 Bft) W 270 ° 0 min 0,000 mm 4,6 UV-I 466 W/m² 15,4 °C 21,3 °C 11,3 km/h (2 Bft)
07.06.2018 13:29 21,2 °C 69 % 1013,1 hPa 0,0 mm 3,8 km/h (1 Bft) W 281 ° 0 min 0,000 mm 4,4 UV-I 429 W/m² 15,3 °C 21,2 °C 4,8 km/h (1 Bft)
07.06.2018 13:30 21,2 °C 69 % 1013,1 hPa 0,0 mm 2,7 km/h (1 Bft) W 277 ° 0 min 0,000 mm 4,3 UV-I 404 W/m² 15,3 °C 21,2 °C 6,4 km/h (2 Bft)
07.06.2018 13:31 21,2 °C 71 % 1013,1 hPa 0,0 mm 6,8 km/h (2 Bft) NW 325 ° 0 min 0,000 mm 4,3 UV-I 406 W/m² 15,7 °C 21,2 °C 11,3 km/h (2 Bft)
07.06.2018 13:32 21,2 °C 69 % 1013,1 hPa 0,0 mm 5,7 km/h (1 Bft) N-NW 341 ° 0 min 0,000 mm 4,3 UV-I 431 W/m² 15,3 °C 21,2 °C 11,3 km/h (2 Bft)
07.06.2018 13:33 21,2 °C 70 % 1013,1 hPa 0,0 mm 3,0 km/h (1 Bft) N 355 ° 0 min 0,000 mm 4,3 UV-I 432 W/m² 15,5 °C 21,2 °C 4,8 km/h (1 Bft)
07.06.2018 13:34 21,2 °C 70 % 1013,0 hPa 0,0 mm 3,7 km/h (1 Bft) N-NW 329 ° 0 min 0,000 mm 4,4 UV-I 454 W/m² 15,5 °C 21,2 °C 4,8 km/h (1 Bft)
07.06.2018 13:35 21,2 °C 71 % 1013,1 hPa 0,0 mm 3,8 km/h (1 Bft) NW 313 ° 0 min 0,000 mm 4,5 UV-I 455 W/m² 15,7 °C 21,2 °C 6,4 km/h (2 Bft)
07.06.2018 13:36 21,3 °C 71 % 1013,1 hPa 0,0 mm 8,2 km/h (2 Bft) N-NW 345 ° 0 min 0,000 mm 4,6 UV-I 471 W/m² 15,8 °C 21,3 °C 14,5 km/h (3 Bft)
07.06.2018 13:37 21,4 °C 69 % 1013,1 hPa 0,0 mm 6,0 km/h (2 Bft) NW 317 ° 0 min 0,000 mm 4,7 UV-I 497 W/m² 15,5 °C 21,4 °C 8,0 km/h (2 Bft)
07.06.2018 13:38 21,5 °C 69 % 1013,1 hPa 0,0 mm 6,8 km/h (2 Bft) N-NW 341 ° 0 min 0,000 mm 5,1 UV-I 589 W/m² 15,6 °C 21,5 °C 12,9 km/h (3 Bft)
07.06.2018 13:39 21,6 °C 69 % 1013,0 hPa 0,0 mm 5,2 km/h (1 Bft) NW 318 ° 0 min 0,000 mm 5,4 UV-I 589 W/m² 15,7 °C 21,6 °C 14,5 km/h (3 Bft)
07.06.2018 13:40 21,7 °C 71 % 1013,1 hPa 0,0 mm 6,6 km/h (2 Bft) NW 309 ° 0 min 0,000 mm 6,3 UV-I 589 W/m² 16,2 °C 21,7 °C 9,7 km/h (2 Bft)
07.06.2018 13:41 21,8 °C 70 % 1013,1 hPa 0,0 mm 4,1 km/h (1 Bft) N-NW 342 ° 0 min 0,000 mm 8,0 UV-I 589 W/m² 16,1 °C 21,8 °C 6,4 km/h (2 Bft)
07.06.2018 13:42 21,8 °C 72 % 1013,0 hPa 0,0 mm 3,9 km/h (1 Bft) N-NW 327 ° 0 min 0,000 mm 8,1 UV-I 589 W/m² 16,5 °C 21,8 °C 8,0 km/h (2 Bft)
07.06.2018 13:43 21,9 °C 68 % 1013,0 hPa 0,0 mm 3,5 km/h (1 Bft) N-NW 335 ° 0 min 0,000 mm 6,9 UV-I 589 W/m² 15,7 °C 21,9 °C 8,0 km/h (2 Bft)
07.06.2018 13:44 22,0 °C 65 % 1013,0 hPa 0,0 mm 2,0 km/h (1 Bft) N-NW 336 ° 0 min 0,000 mm 6,3 UV-I 589 W/m² 15,1 °C 22,0 °C 4,8 km/h (1 Bft)
07.06.2018 13:45 22,0 °C 65 % 1013,0 hPa 0,0 mm 1,7 km/h (1 Bft) NW 304 ° 0 min 0,000 mm 5,5 UV-I 589 W/m² 15,1 °C 22,0 °C 4,8 km/h (1 Bft)
07.06.2018 13:46 22,0 °C 66 % 1013,0 hPa 0,0 mm 2,4 km/h (1 Bft) N-NW 346 ° 0 min 0,000 mm 4,6 UV-I 589 W/m² 15,3 °C 22,0 °C 6,4 km/h (2 Bft)
07.06.2018 13:47 22,1 °C 67 % 1013,0 hPa 0,0 mm 7,5 km/h (2 Bft) NW 309 ° 0 min 0,000 mm 4,2 UV-I 459 W/m² 15,7 °C 22,1 °C 16,1 km/h (3 Bft)
07.06.2018 13:48 21,9 °C 68 % 1012,9 hPa 0,0 mm 1,7 km/h (1 Bft) N-NW 338 ° 0 min 0,000 mm 3,9 UV-I 403 W/m² 15,7 °C 21,9 °C 3,2 km/h (1 Bft)
07.06.2018 13:49 21,9 °C 69 % 1012,9 hPa 0,0 mm 4,8 km/h (1 Bft) N 360 ° 0 min 0,000 mm 3,7 UV-I 366 W/m² 15,9 °C 21,9 °C 8,0 km/h (2 Bft)
07.06.2018 13:50 21,8 °C 68 % 1012,9 hPa 0,0 mm 6,5 km/h (2 Bft) N-NW 339 ° 0 min 0,000 mm 3,6 UV-I 353 W/m² 15,6 °C 21,8 °C 9,7 km/h (2 Bft)
07.06.2018 13:51 21,8 °C 70 % 1012,9 hPa 0,0 mm 2,5 km/h (1 Bft) NW 312 ° 0 min 0,000 mm 3,7 UV-I 352 W/m² 16,1 °C 21,8 °C 6,4 km/h (2 Bft)
07.06.2018 13:52 21,8 °C 68 % 1012,9 hPa 0,0 mm 4,2 km/h (1 Bft) W-NW 296 ° 0 min 0,000 mm 3,7 UV-I 359 W/m² 15,6 °C 21,8 °C 6,4 km/h (2 Bft)
07.06.2018 13:53 21,8 °C 68 % 1012,9 hPa 0,0 mm 3,8 km/h (1 Bft) W 279 ° 0 min 0,000 mm 3,9 UV-I 383 W/m² 15,6 °C 21,8 °C 4,8 km/h (1 Bft)
07.06.2018 13:54 21,7 °C 68 % 1012,8 hPa 0,0 mm 3,1 km/h (1 Bft) W-NW 298 ° 0 min 0,000 mm 3,8 UV-I 396 W/m² 15,5 °C 21,7 °C 4,8 km/h (1 Bft)
07.06.2018 13:55 21,6 °C 69 % 1012,8 hPa 0,0 mm 4,9 km/h (1 Bft) W-NW 289 ° 0 min 0,000 mm 3,9 UV-I 399 W/m² 15,7 °C 21,6 °C 11,3 km/h (2 Bft)
07.06.2018 13:56 21,5 °C 68 % 1012,8 hPa 0,0 mm 3,5 km/h (1 Bft) W-NW 290 ° 0 min 0,000 mm 4,0 UV-I 418 W/m² 15,3 °C 21,5 °C 8,0 km/h (2 Bft)
07.06.2018 13:57 21,5 °C 68 % 1012,8 hPa 0,0 mm 3,0 km/h (1 Bft) NW 310 ° 0 min 0,000 mm 4,1 UV-I 422 W/m² 15,3 °C 21,5 °C 6,4 km/h (2 Bft)
07.06.2018 13:58 21,5 °C 71 % 1012,8 hPa 0,0 mm 6,6 km/h (2 Bft) W 281 ° 0 min 0,000 mm 4,1 UV-I 424 W/m² 16,0 °C 21,5 °C 11,3 km/h (2 Bft)
07.06.2018 13:59 21,5 °C 70 % 1012,8 hPa 0,0 mm 4,7 km/h (1 Bft) W-NW 292 ° 0 min 0,000 mm 4,0 UV-I 415 W/m² 15,8 °C 21,5 °C 6,4 km/h (2 Bft)
07.06.2018 14:00 21,6 °C 70 % 1012,8 hPa 0,0 mm 2,6 km/h (1 Bft) W-NW 295 ° 0 min 0,000 mm 3,7 UV-I 387 W/m² 15,9 °C 21,6 °C 4,8 km/h (1 Bft)
07.06.2018 14:01 21,6 °C 72 % 1012,7 hPa 0,0 mm 5,4 km/h (1 Bft) N-NW 327 ° 0 min 0,305 mm 3,2 UV-I 360 W/m² 16,3 °C 21,6 °C 11,3 km/h (2 Bft)
07.06.2018 14:02 21,6 °C 69 % 1012,7 hPa 0,0 mm 5,9 km/h (2 Bft) NW 317 ° 0 min 0,000 mm 3,3 UV-I 329 W/m² 15,7 °C 21,6 °C 9,7 km/h (2 Bft)
07.06.2018 14:03 21,6 °C 69 % 1012,7 hPa 0,0 mm 4,4 km/h (1 Bft) NW 315 ° 0 min 0,000 mm 3,2 UV-I 336 W/m² 15,7 °C 21,6 °C 6,4 km/h (2 Bft)
07.06.2018 14:04 21,6 °C 71 % 1012,7 hPa 0,0 mm 5,4 km/h (1 Bft) NW 323 ° 0 min 0,000 mm 3,6 UV-I 434 W/m² 16,1 °C 21,6 °C 8,0 km/h (2 Bft)
07.06.2018 14:05 21,6 °C 70 % 1012,7 hPa 0,0 mm 7,4 km/h (2 Bft) NW 304 ° 0 min 0,000 mm 3,7 UV-I 445 W/m² 15,9 °C 21,6 °C 12,9 km/h (3 Bft)
07.06.2018 14:06 21,6 °C 69 % 1012,7 hPa 0,0 mm 4,4 km/h (1 Bft) NW 315 ° 0 min 0,000 mm 3,2 UV-I 355 W/m² 15,7 °C 21,6 °C 6,4 km/h (2 Bft)
07.06.2018 14:07 21,6 °C 70 % 1012,7 hPa 0,0 mm 3,0 km/h (1 Bft) NW 306 ° 0 min 0,000 mm 2,8 UV-I 285 W/m² 15,9 °C 21,6 °C 4,8 km/h (1 Bft)
07.06.2018 14:08 21,6 °C 72 % 1012,7 hPa 0,0 mm 2,9 km/h (1 Bft) NW 306 ° 0 min 0,000 mm 2,6 UV-I 253 W/m² 16,3 °C 21,6 °C 4,8 km/h (1 Bft)
07.06.2018 14:09 21,5 °C 71 % 1012,7 hPa 0,0 mm 3,4 km/h (1 Bft) N-NW 329 ° 0 min 0,000 mm 2,4 UV-I 244 W/m² 16,0 °C 21,5 °C 4,8 km/h (1 Bft)
07.06.2018 14:10 21,4 °C 70 % 1012,7 hPa 0,0 mm 0,8 km/h (0 Bft) N-NW 329 ° 0 min 0,000 mm 2,4 UV-I 237 W/m² 15,7 °C 21,4 °C 3,2 km/h (1 Bft)
07.06.2018 14:11 21,4 °C 70 % 1012,7 hPa 0,0 mm 4,5 km/h (1 Bft) N 351 ° 0 min 0,000 mm 2,3 UV-I 232 W/m² 15,7 °C 21,4 °C 6,4 km/h (2 Bft)
07.06.2018 14:12 21,4 °C 69 % 1012,7 hPa 0,0 mm 4,1 km/h (1 Bft) N 360 ° 0 min 0,000 mm 2,3 UV-I 232 W/m² 15,5 °C 21,4 °C 6,4 km/h (2 Bft)
07.06.2018 14:13 21,4 °C 70 % 1012,7 hPa 0,0 mm 2,1 km/h (1 Bft) N 360 ° 0 min 0,000 mm 2,2 UV-I 229 W/m² 15,7 °C 21,4 °C 4,8 km/h (1 Bft)
07.06.2018 14:14 21,3 °C 67 % 1012,6 hPa 0,0 mm 0,0 km/h (0 Bft) N 360 ° 0 min 0,000 mm 2,2 UV-I 229 W/m² 14,9 °C 21,3 °C 0,0 km/h (0 Bft)
07.06.2018 14:15 21,3 °C 70 % 1012,7 hPa 0,0 mm 1,9 km/h (1 Bft) N 360 ° 0 min 0,000 mm 2,1 UV-I 225 W/m² 15,6 °C 21,3 °C 3,2 km/h (1 Bft)
07.06.2018 14:16 21,3 °C 71 % 1012,6 hPa 0,0 mm 0,4 km/h (0 Bft) N 360 ° 0 min 0,000 mm 2,1 UV-I 225 W/m² 15,8 °C 21,3 °C 3,2 km/h (1 Bft)
07.06.2018 14:17 21,3 °C 70 % 1012,6 hPa 0,0 mm 2,6 km/h (1 Bft) N-NO 16 ° 0 min 0,000 mm 2,1 UV-I 229 W/m² 15,6 °C 21,3 °C 4,8 km/h (1 Bft)
07.06.2018 14:18 21,2 °C 70 % 1012,6 hPa 0,0 mm 0,7 km/h (0 Bft) N-NO 16 ° 0 min 0,000 mm 2,1 UV-I 230 W/m² 15,5 °C 21,2 °C 3,2 km/h (1 Bft)
07.06.2018 14:19 21,2 °C 71 % 1012,6 hPa 0,0 mm 0,6 km/h (0 Bft) N-NO 16 ° 0 min 0,000 mm 2,0 UV-I 220 W/m² 15,7 °C 21,2 °C 3,2 km/h (1 Bft)
07.06.2018 14:20 21,1 °C 68 % 1012,7 hPa 0,0 mm 0,3 km/h (0 Bft) N-NO 16 ° 0 min 0,000 mm 1,9 UV-I 209 W/m² 15,0 °C 21,1 °C 1,6 km/h (1 Bft)
07.06.2018 14:21 21,1 °C 69 % 1012,7 hPa 0,0 mm 1,9 km/h (1 Bft) N-NO 16 ° 0 min 0,000 mm 1,6 UV-I 190 W/m² 15,2 °C 21,1 °C 3,2 km/h (1 Bft)
07.06.2018 14:22 21,1 °C 69 % 1012,6 hPa 0,0 mm 0,8 km/h (0 Bft) N-NO 16 ° 0 min 0,000 mm 1,4 UV-I 172 W/m² 15,2 °C 21,1 °C 3,2 km/h (1 Bft)
07.06.2018 14:23 21,1 °C 71 % 1012,6 hPa 0,0 mm 0,0 km/h (0 Bft) N-NO 16 ° 0 min 0,000 mm 1,3 UV-I 158 W/m² 15,6 °C 21,1 °C 0,0 km/h (0 Bft)
07.06.2018 14:24 21,1 °C 71 % 1012,6 hPa 0,0 mm 0,0 km/h (0 Bft) N-NO 16 ° 0 min 0,000 mm 1,2 UV-I 148 W/m² 15,6 °C 21,1 °C 0,0 km/h (0 Bft)
07.06.2018 14:25 21,1 °C 71 % 1012,6 hPa 0,0 mm 0,5 km/h (0 Bft) N-NO 16 ° 0 min 0,000 mm 1,2 UV-I 139 W/m² 15,6 °C 21,1 °C 1,6 km/h (1 Bft)
07.06.2018 14:26 20,9 °C 70 % 1012,6 hPa 0,0 mm 0,3 km/h (0 Bft) N-NO 16 ° 0 min 0,000 mm 1,2 UV-I 141 W/m² 15,2 °C 20,9 °C 1,6 km/h (1 Bft)
07.06.2018 14:27 20,8 °C 70 % 1012,6 hPa 0,0 mm 0,1 km/h (0 Bft) N-NO 16 ° 0 min 0,000 mm 1,2 UV-I 144 W/m² 15,1 °C 20,8 °C 1,6 km/h (1 Bft)
07.06.2018 14:28 20,8 °C 72 % 1012,6 hPa 0,0 mm 0,4 km/h (0 Bft) N-NO 16 ° 0 min 0,000 mm 1,2 UV-I 149 W/m² 15,6 °C 20,8 °C 1,6 km/h (1 Bft)
07.06.2018 14:29 20,8 °C 73 % 1012,6 hPa 0,0 mm 1,5 km/h (1 Bft) N-NW 348 ° 0 min 0,000 mm 1,2 UV-I 151 W/m² 15,8 °C 20,8 °C 4,8 km/h (1 Bft)
07.06.2018 14:30 20,8 °C 74 % 1012,6 hPa 0,0 mm 2,6 km/h (1 Bft) N-NW 348 ° 0 min 0,000 mm 1,3 UV-I 155 W/m² 16,0 °C 20,8 °C 4,8 km/h (1 Bft)
07.06.2018 14:31 20,8 °C 75 % 1012,5 hPa 0,0 mm 3,6 km/h (1 Bft) N 5 ° 0 min 0,000 mm 1,3 UV-I 156 W/m² 16,2 °C 20,8 °C 4,8 km/h (1 Bft)
07.06.2018 14:32 20,8 °C 75 % 1012,5 hPa 0,0 mm 3,7 km/h (1 Bft) N-NO 18 ° 0 min 0,000 mm 1,4 UV-I 162 W/m² 16,2 °C 20,8 °C 8,0 km/h (2 Bft)
07.06.2018 14:33 20,7 °C 76 % 1012,5 hPa 0,0 mm 5,7 km/h (1 Bft) N-NO 30 ° 0 min 0,000 mm 1,5 UV-I 172 W/m² 16,3 °C 20,7 °C 8,0 km/h (2 Bft)
07.06.2018 14:34 20,7 °C 75 % 1012,5 hPa 0,0 mm 3,7 km/h (1 Bft) N-NO 31 ° 0 min 0,000 mm 1,6 UV-I 192 W/m² 16,1 °C 20,7 °C 6,4 km/h (2 Bft)
07.06.2018 14:35 20,7 °C 74 % 1012,5 hPa 0,0 mm 2,9 km/h (1 Bft) N 355 ° 0 min 0,000 mm 1,9 UV-I 225 W/m² 15,9 °C 20,7 °C 4,8 km/h (1 Bft)
07.06.2018 14:36 20,6 °C 75 % 1012,5 hPa 0,0 mm 1,6 km/h (1 Bft) N 355 ° 0 min 0,000 mm 2,2 UV-I 257 W/m² 16,0 °C 20,6 °C 3,2 km/h (1 Bft)
07.06.2018 14:37 20,5 °C 74 % 1012,4 hPa 0,0 mm 1,0 km/h (0 Bft) N 355 ° 0 min 0,000 mm 2,3 UV-I 274 W/m² 15,7 °C 20,5 °C 3,2 km/h (1 Bft)
07.06.2018 14:38 20,4 °C 74 % 1012,4 hPa 0,0 mm 0,1 km/h (0 Bft) N 355 ° 0 min 0,000 mm 2,6 UV-I 281 W/m² 15,6 °C 20,4 °C 1,6 km/h (1 Bft)
07.06.2018 14:39 20,4 °C 75 % 1012,4 hPa 0,0 mm 1,6 km/h (1 Bft) N 355 ° 0 min 0,000 mm 2,7 UV-I 301 W/m² 15,8 °C 20,4 °C 3,2 km/h (1 Bft)
07.06.2018 14:40 20,4 °C 76 % 1012,3 hPa 0,0 mm 3,5 km/h (1 Bft) N-NO 21 ° 0 min 0,000 mm 3,1 UV-I 348 W/m² 16,0 °C 20,4 °C 6,4 km/h (2 Bft)
07.06.2018 14:41 20,5 °C 76 % 1012,4 hPa 0,0 mm 3,0 km/h (1 Bft) NO 35 ° 0 min 0,000 mm 3,1 UV-I 364 W/m² 16,1 °C 20,5 °C 6,4 km/h (2 Bft)
07.06.2018 14:42 20,6 °C 77 % 1012,4 hPa 0,0 mm 4,0 km/h (1 Bft) N-NW 331 ° 0 min 0,000 mm 3,1 UV-I 369 W/m² 16,4 °C 20,6 °C 6,4 km/h (2 Bft)
07.06.2018 14:43 20,7 °C 78 % 1012,3 hPa 0,0 mm 2,4 km/h (1 Bft) N-NO 26 ° 0 min 0,000 mm 3,1 UV-I 329 W/m² 16,7 °C 20,7 °C 6,4 km/h (2 Bft)
07.06.2018 14:44 20,8 °C 77 % 1012,4 hPa 0,0 mm 4,4 km/h (1 Bft) N-NO 22 ° 0 min 0,000 mm 2,5 UV-I 311 W/m² 16,6 °C 20,8 °C 9,7 km/h (2 Bft)
07.06.2018 14:45 20,8 °C 76 % 1012,4 hPa 0,0 mm 7,6 km/h (2 Bft) NW 320 ° 0 min 0,000 mm 2,4 UV-I 297 W/m² 16,4 °C 20,8 °C 12,9 km/h (3 Bft)
07.06.2018 14:46 20,8 °C 75 % 1012,4 hPa 0,0 mm 7,5 km/h (2 Bft) N-NO 27 ° 0 min 0,000 mm 2,3 UV-I 288 W/m² 16,2 °C 20,8 °C 12,9 km/h (3 Bft)
07.06.2018 14:47 20,7 °C 75 % 1012,4 hPa 0,0 mm 11,8 km/h (2 Bft) N 360 ° 0 min 0,000 mm 2,3 UV-I 287 W/m² 16,1 °C 20,7 °C 16,1 km/h (3 Bft)
07.06.2018 14:48 20,7 °C 76 % 1012,4 hPa 0,0 mm 7,3 km/h (2 Bft) N 5 ° 0 min 0,000 mm 2,4 UV-I 288 W/m² 16,3 °C 20,7 °C 11,3 km/h (2 Bft)
07.06.2018 14:49 20,7 °C 77 % 1012,4 hPa 0,0 mm 2,7 km/h (1 Bft) N 355 ° 0 min 0,000 mm 2,4 UV-I 299 W/m² 16,5 °C 20,7 °C 4,8 km/h (1 Bft)
07.06.2018 14:50 20,6 °C 77 % 1012,4 hPa 0,0 mm 6,9 km/h (2 Bft) N 355 ° 0 min 0,000 mm 2,5 UV-I 299 W/m² 16,4 °C 20,6 °C 11,3 km/h (2 Bft)
07.06.2018 14:51 20,6 °C 76 % 1012,3 hPa 0,0 mm 6,1 km/h (2 Bft) NO 38 ° 0 min 0,000 mm 2,6 UV-I 295 W/m² 16,2 °C 20,6 °C 8,0 km/h (2 Bft)
07.06.2018 14:52 20,5 °C 77 % 1012,3 hPa 0,0 mm 7,4 km/h (2 Bft) NW 317 ° 0 min 0,000 mm 2,7 UV-I 299 W/m² 16,3 °C 20,5 °C 12,9 km/h (3 Bft)
07.06.2018 14:53 20,4 °C 77 % 1012,3 hPa 0,0 mm 8,8 km/h (2 Bft) NW 321 ° 0 min 0,000 mm 2,8 UV-I 308 W/m² 16,2 °C 20,4 °C 14,5 km/h (3 Bft)
07.06.2018 14:54 20,4 °C 77 % 1012,3 hPa 0,0 mm 5,0 km/h (1 Bft) N 355 ° 0 min 0,000 mm 2,9 UV-I 338 W/m² 16,2 °C 20,4 °C 6,4 km/h (2 Bft)
07.06.2018 14:55 20,3 °C 78 % 1012,3 hPa 0,0 mm 5,5 km/h (1 Bft) N 10 ° 0 min 0,000 mm 2,9 UV-I 318 W/m² 16,3 °C 20,3 °C 8,0 km/h (2 Bft)
07.06.2018 14:56 20,4 °C 78 % 1012,3 hPa 0,0 mm 2,4 km/h (1 Bft) N 360 ° 0 min 0,000 mm 2,6 UV-I 311 W/m² 16,4 °C 20,4 °C 6,4 km/h (2 Bft)
07.06.2018 14:57 20,4 °C 78 % 1012,2 hPa 0,0 mm 2,4 km/h (1 Bft) N 350 ° 0 min 0,000 mm 2,4 UV-I 287 W/m² 16,4 °C 20,4 °C 4,8 km/h (1 Bft)
07.06.2018 14:58 20,4 °C 75 % 1012,3 hPa 0,0 mm 8,2 km/h (2 Bft) N-NO 19 ° 0 min 0,000 mm 2,2 UV-I 250 W/m² 15,8 °C 20,4 °C 11,3 km/h (2 Bft)
07.06.2018 14:59 20,3 °C 75 % 1012,2 hPa 0,0 mm 8,4 km/h (2 Bft) N 5 ° 0 min 0,000 mm 1,9 UV-I 214 W/m² 15,7 °C 20,3 °C 11,3 km/h (2 Bft)
07.06.2018 15:00 20,3 °C 76 % 1012,3 hPa 0,0 mm 5,5 km/h (1 Bft) N 360 ° 0 min 0,000 mm 1,6 UV-I 155 W/m² 15,9 °C 20,3 °C 8,0 km/h (2 Bft)
07.06.2018 15:01 20,3 °C 76 % 1012,3 hPa 0,0 mm 6,6 km/h (2 Bft) N-NW 330 ° 0 min 0,178 mm 1,2 UV-I 130 W/m² 15,9 °C 20,3 °C 9,7 km/h (2 Bft)
07.06.2018 15:02 20,3 °C 75 % 1012,3 hPa 0,0 mm 9,0 km/h (2 Bft) NW 321 ° 0 min 0,000 mm 1,0 UV-I 114 W/m² 15,7 °C 20,3 °C 12,9 km/h (3 Bft)
07.06.2018 15:03 20,2 °C 75 % 1012,3 hPa 0,0 mm 4,5 km/h (1 Bft) NW 313 ° 0 min 0,000 mm 0,9 UV-I 98 W/m² 15,6 °C 20,2 °C 8,0 km/h (2 Bft)
07.06.2018 15:04 20,2 °C 77 % 1012,3 hPa 0,0 mm 4,3 km/h (1 Bft) W-NW 299 ° 0 min 0,000 mm 0,7 UV-I 81 W/m² 16,0 °C 20,2 °C 8,0 km/h (2 Bft)
07.06.2018 15:05 20,1 °C 78 % 1012,4 hPa 0,0 mm 7,8 km/h (2 Bft) N-NW 329 ° 0 min 0,000 mm 0,6 UV-I 67 W/m² 16,1 °C 20,1 °C 14,5 km/h (3 Bft)
07.06.2018 15:06 19,8 °C 79 % 1012,4 hPa 0,0 mm 6,0 km/h (2 Bft) NW 315 ° 0 min 0,000 mm 0,0 UV-I 46 W/m² 16,0 °C 19,8 °C 9,7 km/h (2 Bft)
07.06.2018 15:07 19,7 °C 80 % 1012,5 hPa 0,0 mm 3,8 km/h (1 Bft) NW 312 ° 0 min 0,000 mm 0,0 UV-I 39 W/m² 16,1 °C 19,7 °C 6,4 km/h (2 Bft)
07.06.2018 15:08 19,6 °C 81 % 1012,4 hPa 0,0 mm 1,6 km/h (1 Bft) NW 314 ° 0 min 0,000 mm 0,0 UV-I 33 W/m² 16,2 °C 19,6 °C 6,4 km/h (2 Bft)
07.06.2018 15:09 19,4 °C 81 % 1012,5 hPa 0,0 mm 4,1 km/h (1 Bft) NW 312 ° 0 min 0,000 mm 0,0 UV-I 30 W/m² 16,1 °C 19,4 °C 6,4 km/h (2 Bft)
07.06.2018 15:10 19,2 °C 82 % 1012,5 hPa 0,0 mm 6,3 km/h (2 Bft) W-NW 293 ° 0 min 0,000 mm 0,0 UV-I 26 W/m² 16,0 °C 19,2 °C 9,7 km/h (2 Bft)
07.06.2018 15:11 19,1 °C 82 % 1012,5 hPa 0,0 mm 7,6 km/h (2 Bft) NW 309 ° 0 min 0,000 mm 0,0 UV-I 23 W/m² 16,0 °C 19,1 °C 11,3 km/h (2 Bft)
07.06.2018 15:12 18,8 °C 82 % 1012,5 hPa 0,0 mm 7,5 km/h (2 Bft) W-NW 297 ° 0 min 0,000 mm 0,0 UV-I 19 W/m² 15,7 °C 18,8 °C 12,9 km/h (3 Bft)
07.06.2018 15:13 18,7 °C 83 % 1012,5 hPa 0,0 mm 8,2 km/h (2 Bft) W 268 ° 0 min 0,000 mm 0,0 UV-I 19 W/m² 15,8 °C 18,7 °C 11,3 km/h (2 Bft)
07.06.2018 15:14 18,4 °C 83 % 1012,5 hPa 0,0 mm 11,7 km/h (2 Bft) W-SW 255 ° 0 min 0,000 mm 0,0 UV-I 19 W/m² 15,5 °C 18,4 °C 17,7 km/h (3 Bft)
07.06.2018 15:15 18,3 °C 83 % 1012,6 hPa 0,0 mm 6,2 km/h (2 Bft) W 260 ° 0 min 0,000 mm 0,0 UV-I 21 W/m² 15,4 °C 18,3 °C 9,7 km/h (2 Bft)
07.06.2018 15:16 18,2 °C 84 % 1012,6 hPa 0,0 mm 5,4 km/h (1 Bft) W 277 ° 0 min 0,000 mm 0,0 UV-I 21 W/m² 15,4 °C 18,2 °C 9,7 km/h (2 Bft)
07.06.2018 15:17 18,1 °C 85 % 1012,7 hPa 0,0 mm 7,5 km/h (2 Bft) W-NW 284 ° 0 min 0,000 mm 0,0 UV-I 21 W/m² 15,5 °C 18,1 °C 12,9 km/h (3 Bft)
07.06.2018 15:18 18,0 °C 85 % 1012,7 hPa 0,0 mm 7,2 km/h (2 Bft) NW 308 ° 0 min 0,000 mm 0,0 UV-I 23 W/m² 15,4 °C 18,0 °C 12,9 km/h (3 Bft)
07.06.2018 15:19 17,9 °C 85 % 1012,7 hPa 0,0 mm 3,7 km/h (1 Bft) NW 318 ° 0 min 0,000 mm 0,0 UV-I 23 W/m² 15,3 °C 17,9 °C 6,4 km/h (2 Bft)
07.06.2018 15:20 17,8 °C 85 % 1012,6 hPa 0,0 mm 6,2 km/h (2 Bft) W-NW 285 ° 0 min 0,000 mm 0,0 UV-I 25 W/m² 15,2 °C 17,8 °C 12,9 km/h (3 Bft)
07.06.2018 15:21 17,7 °C 86 % 1012,6 hPa 0,0 mm 6,4 km/h (2 Bft) W 279 ° 0 min 0,000 mm 0,0 UV-I 25 W/m² 15,3 °C 17,7 °C 12,9 km/h (3 Bft)
07.06.2018 15:22 17,7 °C 85 % 1012,5 hPa 0,0 mm 5,4 km/h (1 Bft) W 259 ° 0 min 0,000 mm 0,0 UV-I 26 W/m² 15,1 °C 17,7 °C 9,7 km/h (2 Bft)
07.06.2018 15:23 17,6 °C 84 % 1012,5 hPa 0,0 mm 6,7 km/h (2 Bft) W-NW 294 ° 0 min 0,000 mm 0,0 UV-I 26 W/m² 14,9 °C 17,6 °C 12,9 km/h (3 Bft)
07.06.2018 15:24 17,5 °C 85 % 1012,5 hPa 0,0 mm 3,3 km/h (1 Bft) W-NW 295 ° 0 min 0,000 mm 0,0 UV-I 28 W/m² 14,9 °C 17,5 °C 4,8 km/h (1 Bft)
07.06.2018 15:25 17,5 °C 85 % 1012,4 hPa 0,0 mm 3,5 km/h (1 Bft) W 277 ° 0 min 0,000 mm 0,0 UV-I 30 W/m² 14,9 °C 17,5 °C 9,7 km/h (2 Bft)
07.06.2018 15:26 17,4 °C 85 % 1012,5 hPa 0,0 mm 7,8 km/h (2 Bft) NW 309 ° 0 min 0,000 mm 0,0 UV-I 32 W/m² 14,8 °C 17,4 °C 14,5 km/h (3 Bft)
07.06.2018 15:27 17,4 °C 84 % 1012,5 hPa 0,0 mm 6,0 km/h (2 Bft) W-NW 303 ° 0 min 0,000 mm 0,0 UV-I 33 W/m² 14,7 °C 17,4 °C 11,3 km/h (2 Bft)
07.06.2018 15:28 17,4 °C 85 % 1012,4 hPa 0,0 mm 3,6 km/h (1 Bft) NW 321 ° 0 min 0,000 mm 0,0 UV-I 37 W/m² 14,8 °C 17,4 °C 6,4 km/h (2 Bft)
07.06.2018 15:29 17,3 °C 85 % 1012,5 hPa 0,0 mm 5,4 km/h (1 Bft) W 277 ° 0 min 0,000 mm 0,0 UV-I 39 W/m² 14,8 °C 17,3 °C 11,3 km/h (2 Bft)
07.06.2018 15:30 17,3 °C 85 % 1012,4 hPa 0,0 mm 2,7 km/h (1 Bft) W 280 ° 0 min 0,000 mm 0,0 UV-I 47 W/m² 14,8 °C 17,3 °C 4,8 km/h (1 Bft)
07.06.2018 15:31 17,3 °C 85 % 1012,3 hPa 0,0 mm 3,9 km/h (1 Bft) W-SW 257 ° 0 min 0,000 mm 0,0 UV-I 53 W/m² 14,8 °C 17,3 °C 9,7 km/h (2 Bft)
07.06.2018 15:32 17,3 °C 85 % 1012,3 hPa 0,0 mm 2,5 km/h (1 Bft) W-SW 253 ° 0 min 0,000 mm 0,5 UV-I 60 W/m² 14,8 °C 17,3 °C 4,8 km/h (1 Bft)
07.06.2018 15:33 17,2 °C 85 % 1012,3 hPa 0,0 mm 0,0 km/h (0 Bft) W-SW 253 ° 0 min 0,000 mm 0,6 UV-I 65 W/m² 14,7 °C 17,2 °C 0,0 km/h (0 Bft)
07.06.2018 15:34 17,2 °C 85 % 1012,3 hPa 0,2 mm 0,7 km/h (0 Bft) W-NW 296 ° 0 min 0,000 mm 0,6 UV-I 72 W/m² 14,7 °C 17,2 °C 1,6 km/h (1 Bft)
07.06.2018 15:35 17,2 °C 86 % 1012,3 hPa 0,0 mm 0,0 km/h (0 Bft) W-NW 296 ° 0 min 0,000 mm 0,7 UV-I 81 W/m² 14,8 °C 17,2 °C 0,0 km/h (0 Bft)
07.06.2018 15:36 17,2 °C 87 % 1012,3 hPa 0,0 mm 3,1 km/h (1 Bft) W-NW 290 ° 0 min 0,000 mm 0,7 UV-I 83 W/m² 15,0 °C 17,2 °C 4,8 km/h (1 Bft)
07.06.2018 15:37 17,2 °C 87 % 1012,4 hPa 0,0 mm 5,0 km/h (1 Bft) W 281 ° 0 min 0,000 mm 0,7 UV-I 81 W/m² 15,0 °C 17,2 °C 9,7 km/h (2 Bft)
07.06.2018 15:38 17,3 °C 87 % 1012,4 hPa 0,2 mm 5,6 km/h (1 Bft) NW 310 ° 0 min 0,000 mm 0,6 UV-I 74 W/m² 15,1 °C 17,3 °C 9,7 km/h (2 Bft)
07.06.2018 15:39 17,2 °C 87 % 1012,4 hPa 0,0 mm 3,9 km/h (1 Bft) NW 312 ° 0 min 0,000 mm 0,6 UV-I 67 W/m² 15,0 °C 17,2 °C 4,8 km/h (1 Bft)
07.06.2018 15:40 17,1 °C 87 % 1012,4 hPa 0,2 mm 4,6 km/h (1 Bft) W-NW 294 ° 0 min 0,000 mm 0,5 UV-I 60 W/m² 14,9 °C 17,1 °C 6,4 km/h (2 Bft)
07.06.2018 15:41 17,0 °C 88 % 1012,4 hPa 0,0 mm 1,4 km/h (1 Bft) W-NW 294 ° 0 min 0,000 mm 0,0 UV-I 53 W/m² 15,0 °C 17,0 °C 3,2 km/h (1 Bft)
07.06.2018 15:42 16,9 °C 88 % 1012,4 hPa 0,2 mm 0,0 km/h (0 Bft) W-NW 294 ° 0 min 0,000 mm 0,0 UV-I 47 W/m² 14,9 °C 16,9 °C 0,0 km/h (0 Bft)
07.06.2018 15:43 16,8 °C 88 % 1012,5 hPa 0,2 mm 0,0 km/h (0 Bft) W-NW 294 ° 0 min 0,000 mm 0,0 UV-I 46 W/m² 14,8 °C 16,8 °C 0,0 km/h (0 Bft)
07.06.2018 15:44 16,7 °C 88 % 1012,4 hPa 0,0 mm 0,2 km/h (0 Bft) W-NW 294 ° 0 min 0,000 mm 0,0 UV-I 44 W/m² 14,7 °C 16,7 °C 1,6 km/h (1 Bft)
07.06.2018 15:45 16,7 °C 89 % 1012,4 hPa 0,0 mm 0,4 km/h (0 Bft) W-NW 294 ° 0 min 0,000 mm 0,0 UV-I 40 W/m² 14,9 °C 16,7 °C 3,2 km/h (1 Bft)
07.06.2018 15:46 16,6 °C 89 % 1012,4 hPa 0,0 mm 0,0 km/h (0 Bft) W-NW 294 ° 0 min 0,000 mm 0,0 UV-I 37 W/m² 14,8 °C 16,6 °C 0,0 km/h (0 Bft)
07.06.2018 15:47 16,6 °C 89 % 1012,5 hPa 0,0 mm 0,0 km/h (0 Bft) W-NW 294 ° 0 min 0,000 mm 0,0 UV-I 32 W/m² 14,8 °C 16,6 °C 0,0 km/h (0 Bft)
07.06.2018 15:48 16,5 °C 89 % 1012,6 hPa 0,0 mm 1,7 km/h (1 Bft) W 277 ° 0 min 0,000 mm 0,0 UV-I 32 W/m² 14,7 °C 16,5 °C 3,2 km/h (1 Bft)
07.06.2018 15:49 16,4 °C 89 % 1012,6 hPa 0,0 mm 2,3 km/h (1 Bft) SW 224 ° 0 min 0,000 mm 0,0 UV-I 32 W/m² 14,6 °C 16,4 °C 3,2 km/h (1 Bft)
07.06.2018 15:50 16,3 °C 90 % 1012,5 hPa 0,0 mm 3,0 km/h (1 Bft) S 174 ° 0 min 0,000 mm 0,0 UV-I 32 W/m² 14,7 °C 16,3 °C 4,8 km/h (1 Bft)
07.06.2018 15:51 16,3 °C 90 % 1012,6 hPa 0,0 mm 3,1 km/h (1 Bft) S 172 ° 0 min 0,000 mm 0,0 UV-I 33 W/m² 14,7 °C 16,3 °C 4,8 km/h (1 Bft)
07.06.2018 15:52 16,3 °C 90 % 1012,6 hPa 0,0 mm 2,0 km/h (1 Bft) S 172 ° 0 min 0,000 mm 0,0 UV-I 37 W/m² 14,7 °C 16,3 °C 3,2 km/h (1 Bft)
07.06.2018 15:53 16,2 °C 90 % 1012,7 hPa 0,0 mm 1,5 km/h (1 Bft) S 172 ° 0 min 0,000 mm 0,0 UV-I 47 W/m² 14,6 °C 16,2 °C 3,2 km/h (1 Bft)
07.06.2018 15:54 16,2 °C 91 % 1012,7 hPa 0,0 mm 0,0 km/h (0 Bft) S 172 ° 0 min 0,000 mm 0,0 UV-I 51 W/m² 14,7 °C 16,2 °C 0,0 km/h (0 Bft)
07.06.2018 15:55 16,2 °C 91 % 1012,7 hPa 0,0 mm 0,0 km/h (0 Bft) S 172 ° 0 min 0,000 mm 0,0 UV-I 54 W/m² 14,7 °C 16,2 °C 0,0 km/h (0 Bft)
07.06.2018 15:56 16,2 °C 91 % 1012,6 hPa 0,0 mm 0,0 km/h (0 Bft) S 172 ° 0 min 0,000 mm 0,5 UV-I 56 W/m² 14,7 °C 16,2 °C 0,0 km/h (0 Bft)
07.06.2018 15:57 16,2 °C 91 % 1012,7 hPa 0,0 mm 0,0 km/h (0 Bft) S 172 ° 0 min 0,000 mm 0,0 UV-I 54 W/m² 14,7 °C 16,2 °C 0,0 km/h (0 Bft)
07.06.2018 15:58 16,2 °C 91 % 1012,7 hPa 0,2 mm 0,0 km/h (0 Bft) S 172 ° 0 min 0,000 mm 0,0 UV-I 54 W/m² 14,7 °C 16,2 °C 0,0 km/h (0 Bft)
07.06.2018 15:59 16,3 °C 92 % 1012,7 hPa 0,2 mm 0,0 km/h (0 Bft) S 172 ° 0 min 0,000 mm 0,0 UV-I 49 W/m² 15,0 °C 16,3 °C 0,0 km/h (0 Bft)
07.06.2018 16:00 16,3 °C 92 % 1012,6 hPa 0,0 mm 0,0 km/h (0 Bft) S 172 ° 0 min 0,000 mm 0,0 UV-I 47 W/m² 15,0 °C 16,3 °C 0,0 km/h (0 Bft)
07.06.2018 16:01 16,2 °C 92 % 1012,6 hPa 0,2 mm 0,0 km/h (0 Bft) S 172 ° 0 min 0,025 mm 0,0 UV-I 44 W/m² 14,9 °C 16,2 °C 0,0 km/h (0 Bft)
07.06.2018 16:02 16,3 °C 92 % 1012,7 hPa 0,0 mm 0,0 km/h (0 Bft) S 172 ° 0 min 0,000 mm 0,0 UV-I 44 W/m² 15,0 °C 16,3 °C 0,0 km/h (0 Bft)
07.06.2018 16:03 16,3 °C 92 % 1012,6 hPa 0,0 mm 0,0 km/h (0 Bft) S 172 ° 0 min 0,000 mm 0,0 UV-I 39 W/m² 15,0 °C 16,3 °C 0,0 km/h (0 Bft)
07.06.2018 16:04 16,3 °C 92 % 1012,6 hPa 0,0 mm 0,0 km/h (0 Bft) S 172 ° 0 min 0,000 mm 0,0 UV-I 37 W/m² 15,0 °C 16,3 °C 0,0 km/h (0 Bft)
07.06.2018 16:05 16,3 °C 92 % 1012,6 hPa 0,2 mm 0,0 km/h (0 Bft) S 172 ° 0 min 0,000 mm 0,0 UV-I 35 W/m² 15,0 °C 16,3 °C 0,0 km/h (0 Bft)
07.06.2018 16:06 16,3 °C 92 % 1012,6 hPa 0,0 mm 0,0 km/h (0 Bft) S 172 ° 0 min 0,000 mm 0,0 UV-I 35 W/m² 15,0 °C 16,3 °C 0,0 km/h (0 Bft)
07.06.2018 16:07 16,3 °C 92 % 1012,6 hPa 0,0 mm 0,0 km/h (0 Bft) S 172 ° 0 min 0,000 mm 0,0 UV-I 35 W/m² 15,0 °C 16,3 °C 0,0 km/h (0 Bft)
07.06.2018 16:08 16,3 °C 93 % 1012,6 hPa 0,2 mm 0,0 km/h (0 Bft) S 172 ° 0 min 0,000 mm 0,0 UV-I 35 W/m² 15,2 °C 16,3 °C 0,0 km/h (0 Bft)
07.06.2018 16:09 16,3 °C 93 % 1012,6 hPa 0,0 mm 0,0 km/h (0 Bft) S 172 ° 0 min 0,000 mm 0,0 UV-I 35 W/m² 15,2 °C 16,3 °C 0,0 km/h (0 Bft)
07.06.2018 16:10 16,3 °C 93 % 1012,6 hPa 0,0 mm 0,0 km/h (0 Bft) S 172 ° 0 min 0,000 mm 0,0 UV-I 35 W/m² 15,2 °C 16,3 °C 0,0 km/h (0 Bft)
07.06.2018 16:11 16,3 °C 93 % 1012,7 hPa 0,0 mm 0,0 km/h (0 Bft) S 172 ° 0 min 0,000 mm 0,0 UV-I 33 W/m² 15,2 °C 16,3 °C 0,0 km/h (0 Bft)
07.06.2018 16:12 16,3 °C 93 % 1012,7 hPa 0,2 mm 0,0 km/h (0 Bft) S 172 ° 0 min 0,000 mm 0,0 UV-I 33 W/m² 15,2 °C 16,3 °C 0,0 km/h (0 Bft)
07.06.2018 16:13 16,3 °C 93 % 1012,7 hPa 0,0 mm 0,1 km/h (0 Bft) S 172 ° 0 min 0,000 mm 0,0 UV-I 32 W/m² 15,2 °C 16,3 °C 1,6 km/h (1 Bft)
07.06.2018 16:14 16,3 °C 93 % 1012,8 hPa 0,0 mm 1,9 km/h (1 Bft) S 172 ° 0 min 0,000 mm 0,0 UV-I 30 W/m² 15,2 °C 16,3 °C 3,2 km/h (1 Bft)
07.06.2018 16:15 16,3 °C 93 % 1012,8 hPa 0,0 mm 1,7 km/h (1 Bft) S 172 ° 0 min 0,000 mm 0,0 UV-I 28 W/m² 15,2 °C 16,3 °C 3,2 km/h (1 Bft)
07.06.2018 16:16 16,3 °C 93 % 1012,9 hPa 0,0 mm 1,1 km/h (1 Bft) S 172 ° 0 min 0,000 mm 0,0 UV-I 25 W/m² 15,2 °C 16,3 °C 1,6 km/h (1 Bft)
07.06.2018 16:17 16,3 °C 93 % 1012,9 hPa 0,2 mm 0,0 km/h (0 Bft) S 172 ° 0 min 0,000 mm 0,0 UV-I 25 W/m² 15,2 °C 16,3 °C 0,0 km/h (0 Bft)
07.06.2018 16:18 16,3 °C 93 % 1012,9 hPa 0,0 mm 0,0 km/h (0 Bft) S 172 ° 0 min 0,000 mm 0,0 UV-I 25 W/m² 15,2 °C 16,3 °C 0,0 km/h (0 Bft)
07.06.2018 16:19 16,4 °C 93 % 1012,9 hPa 0,0 mm 0,0 km/h (0 Bft) S 172 ° 0 min 0,000 mm 0,0 UV-I 23 W/m² 15,3 °C 16,4 °C 0,0 km/h (0 Bft)
07.06.2018 16:20 16,3 °C 93 % 1012,9 hPa 0,0 mm 0,0 km/h (0 Bft) S 172 ° 0 min 0,000 mm 0,0 UV-I 23 W/m² 15,2 °C 16,3 °C 0,0 km/h (0 Bft)
07.06.2018 16:21 16,4 °C 93 % 1012,8 hPa 0,0 mm 0,0 km/h (0 Bft) S 172 ° 0 min 0,000 mm 0,0 UV-I 25 W/m² 15,3 °C 16,4 °C 0,0 km/h (0 Bft)
07.06.2018 16:22 16,3 °C 93 % 1012,8 hPa 0,0 mm 0,0 km/h (0 Bft) S 172 ° 0 min 0,000 mm 0,0 UV-I 25 W/m² 15,2 °C 16,3 °C 0,0 km/h (0 Bft)
07.06.2018 16:23 16,4 °C 93 % 1012,8 hPa 0,0 mm 0,0 km/h (0 Bft) S 172 ° 0 min 0,000 mm 0,0 UV-I 26 W/m² 15,3 °C 16,4 °C 0,0 km/h (0 Bft)
07.06.2018 16:24 16,3 °C 93 % 1012,8 hPa 0,0 mm 0,0 km/h (0 Bft) S 172 ° 0 min 0,000 mm 0,0 UV-I 26 W/m² 15,2 °C 16,3 °C 0,0 km/h (0 Bft)
07.06.2018 16:25 16,3 °C 93 % 1012,8 hPa 0,0 mm 0,0 km/h (0 Bft) S 172 ° 0 min 0,000 mm 0,0 UV-I 28 W/m² 15,2 °C 16,3 °C 0,0 km/h (0 Bft)
07.06.2018 16:26 16,3 °C 93 % 1012,7 hPa 0,0 mm 0,0 km/h (0 Bft) S 172 ° 0 min 0,000 mm 0,0 UV-I 30 W/m² 15,2 °C 16,3 °C 0,0 km/h (0 Bft)
07.06.2018 16:27 16,3 °C 93 % 1012,7 hPa 0,0 mm 0,0 km/h (0 Bft) S 172 ° 0 min 0,000 mm 0,0 UV-I 30 W/m² 15,2 °C 16,3 °C 0,0 km/h (0 Bft)
07.06.2018 16:28 16,3 °C 93 % 1012,7 hPa 0,0 mm 0,0 km/h (0 Bft) S 172 ° 0 min 0,000 mm 0,0 UV-I 30 W/m² 15,2 °C 16,3 °C 0,0 km/h (0 Bft)
07.06.2018 16:29 16,3 °C 93 % 1012,7 hPa 0,0 mm 0,6 km/h (0 Bft) S 172 ° 0 min 0,000 mm 0,0 UV-I 32 W/m² 15,2 °C 16,3 °C 1,6 km/h (1 Bft)
07.06.2018 16:30 16,3 °C 93 % 1012,7 hPa 0,0 mm 0,0 km/h (0 Bft) S 172 ° 0 min 0,000 mm 0,0 UV-I 33 W/m² 15,2 °C 16,3 °C 0,0 km/h (0 Bft)
07.06.2018 16:31 16,3 °C 93 % 1012,6 hPa 0,0 mm 0,1 km/h (0 Bft) S 172 ° 0 min 0,000 mm 0,0 UV-I 33 W/m² 15,2 °C 16,3 °C 1,6 km/h (1 Bft)
07.06.2018 16:32 16,3 °C 93 % 1012,7 hPa 0,0 mm 0,0 km/h (0 Bft) S 172 ° 0 min 0,000 mm 0,0 UV-I 33 W/m² 15,2 °C 16,3 °C 0,0 km/h (0 Bft)
07.06.2018 16:33 16,3 °C 93 % 1012,7 hPa 0,0 mm 0,0 km/h (0 Bft) S 172 ° 0 min 0,000 mm 0,0 UV-I 33 W/m² 15,2 °C 16,3 °C 0,0 km/h (0 Bft)
07.06.2018 16:34 16,2 °C 93 % 1012,7 hPa 0,0 mm 0,0 km/h (0 Bft) S 172 ° 0 min 0,000 mm 0,0 UV-I 32 W/m² 15,1 °C 16,2 °C 0,0 km/h (0 Bft)
07.06.2018 16:35 16,2 °C 93 % 1012,8 hPa 0,2 mm 0,0 km/h (0 Bft) S 172 ° 0 min 0,000 mm 0,0 UV-I 30 W/m² 15,1 °C 16,2 °C 0,0 km/h (0 Bft)
07.06.2018 16:36 16,2 °C 93 % 1012,8 hPa 0,0 mm 0,0 km/h (0 Bft) S 172 ° 0 min 0,000 mm 0,0 UV-I 30 W/m² 15,1 °C 16,2 °C 0,0 km/h (0 Bft)
07.06.2018 16:37 16,2 °C 93 % 1012,8 hPa 0,0 mm 0,0 km/h (0 Bft) S 172 ° 0 min 0,000 mm 0,0 UV-I 28 W/m² 15,1 °C 16,2 °C 0,0 km/h (0 Bft)
07.06.2018 16:38 16,2 °C 93 % 1012,8 hPa 0,0 mm 0,0 km/h (0 Bft) S 172 ° 0 min 0,000 mm 0,0 UV-I 28 W/m² 15,1 °C 16,2 °C 0,0 km/h (0 Bft)
07.06.2018 16:39 16,2 °C 93 % 1012,8 hPa 0,0 mm 0,6 km/h (0 Bft) S 172 ° 0 min 0,000 mm 0,0 UV-I 26 W/m² 15,1 °C 16,2 °C 1,6 km/h (1 Bft)
07.06.2018 16:40 16,3 °C 93 % 1012,8 hPa 0,0 mm 0,0 km/h (0 Bft) S 172 ° 0 min 0,000 mm 0,0 UV-I 26 W/m² 15,2 °C 16,3 °C 0,0 km/h (0 Bft)
07.06.2018 16:41 16,3 °C 93 % 1012,8 hPa 0,0 mm 0,0 km/h (0 Bft) S 172 ° 0 min 0,000 mm 0,0 UV-I 26 W/m² 15,2 °C 16,3 °C 0,0 km/h (0 Bft)
07.06.2018 16:42 16,3 °C 93 % 1012,8 hPa 0,0 mm 0,6 km/h (0 Bft) S 172 ° 0 min 0,000 mm 0,0 UV-I 26 W/m² 15,2 °C 16,3 °C 1,6 km/h (1 Bft)
07.06.2018 16:43 16,3 °C 93 % 1012,8 hPa 0,0 mm 3,7 km/h (1 Bft) O-NO 71 ° 0 min 0,000 mm 0,0 UV-I 26 W/m² 15,2 °C 16,3 °C 4,8 km/h (1 Bft)
07.06.2018 16:44 16,3 °C 93 % 1012,8 hPa 0,0 mm 1,9 km/h (1 Bft) O-NO 71 ° 0 min 0,000 mm 0,0 UV-I 26 W/m² 15,2 °C 16,3 °C 4,8 km/h (1 Bft)
07.06.2018 16:45 16,3 °C 93 % 1012,9 hPa 0,0 mm 1,5 km/h (1 Bft) O-NO 71 ° 0 min 0,000 mm 0,0 UV-I 28 W/m² 15,2 °C 16,3 °C 3,2 km/h (1 Bft)
07.06.2018 16:46 16,3 °C 93 % 1012,8 hPa 0,0 mm 0,0 km/h (0 Bft) O-NO 71 ° 0 min 0,000 mm 0,0 UV-I 30 W/m² 15,2 °C 16,3 °C 0,0 km/h (0 Bft)
07.06.2018 16:47 16,3 °C 93 % 1012,7 hPa 0,0 mm 0,0 km/h (0 Bft) O-NO 71 ° 0 min 0,000 mm 0,0 UV-I 32 W/m² 15,2 °C 16,3 °C 0,0 km/h (0 Bft)
07.06.2018 16:48 16,3 °C 93 % 1012,8 hPa 0,0 mm 0,0 km/h (0 Bft) O-NO 71 ° 0 min 0,000 mm 0,0 UV-I 33 W/m² 15,2 °C 16,3 °C 0,0 km/h (0 Bft)
07.06.2018 16:49 16,3 °C 94 % 1012,8 hPa 0,0 mm 0,0 km/h (0 Bft) O-NO 71 ° 0 min 0,000 mm 0,0 UV-I 35 W/m² 15,3 °C 16,3 °C 0,0 km/h (0 Bft)
07.06.2018 16:50 16,3 °C 94 % 1012,7 hPa 0,0 mm 0,0 km/h (0 Bft) O-NO 71 ° 0 min 0,000 mm 0,0 UV-I 37 W/m² 15,3 °C 16,3 °C 0,0 km/h (0 Bft)
07.06.2018 16:51 16,3 °C 94 % 1012,7 hPa 0,0 mm 0,0 km/h (0 Bft) O-NO 71 ° 0 min 0,000 mm 0,0 UV-I 40 W/m² 15,3 °C 16,3 °C 0,0 km/h (0 Bft)
07.06.2018 16:52 16,3 °C 94 % 1012,7 hPa 0,0 mm 0,0 km/h (0 Bft) O-NO 71 ° 0 min 0,000 mm 0,0 UV-I 42 W/m² 15,3 °C 16,3 °C 0,0 km/h (0 Bft)
07.06.2018 16:53 16,3 °C 94 % 1012,7 hPa 0,0 mm 0,0 km/h (0 Bft) O-NO 71 ° 0 min 0,000 mm 0,0 UV-I 44 W/m² 15,3 °C 16,3 °C 0,0 km/h (0 Bft)
07.06.2018 16:54 16,3 °C 94 % 1012,6 hPa 0,0 mm 0,0 km/h (0 Bft) O-NO 71 ° 0 min 0,000 mm 0,0 UV-I 46 W/m² 15,3 °C 16,3 °C 0,0 km/h (0 Bft)
07.06.2018 16:55 16,3 °C 93 % 1012,6 hPa 0,0 mm 0,0 km/h (0 Bft) O-NO 71 ° 0 min 0,000 mm 0,0 UV-I 46 W/m² 15,2 °C 16,3 °C 0,0 km/h (0 Bft)
07.06.2018 16:56 16,3 °C 93 % 1012,6 hPa 0,0 mm 0,0 km/h (0 Bft) O-NO 71 ° 0 min 0,000 mm 0,0 UV-I 47 W/m² 15,2 °C 16,3 °C 0,0 km/h (0 Bft)
07.06.2018 16:57 16,3 °C 93 % 1012,6 hPa 0,0 mm 0,0 km/h (0 Bft) O-NO 71 ° 0 min 0,000 mm 0,0 UV-I 47 W/m² 15,2 °C 16,3 °C 0,0 km/h (0 Bft)
07.06.2018 16:58 16,2 °C 93 % 1012,6 hPa 0,0 mm 0,0 km/h (0 Bft) O-NO 71 ° 0 min 0,000 mm 0,0 UV-I 46 W/m² 15,1 °C 16,2 °C 0,0 km/h (0 Bft)
07.06.2018 16:59 16,2 °C 93 % 1012,6 hPa 0,0 mm 0,0 km/h (0 Bft) O-NO 71 ° 0 min 0,000 mm 0,0 UV-I 46 W/m² 15,1 °C 16,2 °C 0,0 km/h (0 Bft)
07.06.2018 17:00 16,2 °C 93 % 1012,5 hPa 0,0 mm 0,0 km/h (0 Bft) O-NO 71 ° 0 min 0,000 mm 0,0 UV-I 46 W/m² 15,1 °C 16,2 °C 0,0 km/h (0 Bft)
07.06.2018 17:01 16,3 °C 94 % 1012,5 hPa 0,0 mm 0,0 km/h (0 Bft) O-NO 71 ° 0 min 0,025 mm 0,0 UV-I 46 W/m² 15,3 °C 16,3 °C 0,0 km/h (0 Bft)
07.06.2018 17:02 16,3 °C 94 % 1012,5 hPa 0,0 mm 0,0 km/h (0 Bft) O-NO 71 ° 0 min 0,000 mm 0,0 UV-I 47 W/m² 15,3 °C 16,3 °C 0,0 km/h (0 Bft)
07.06.2018 17:03 16,2 °C 94 % 1012,5 hPa 0,0 mm 0,0 km/h (0 Bft) O-NO 71 ° 0 min 0,000 mm 0,0 UV-I 47 W/m² 15,2 °C 16,2 °C 0,0 km/h (0 Bft)
07.06.2018 17:04 16,2 °C 94 % 1012,5 hPa 0,0 mm 0,0 km/h (0 Bft) O-NO 71 ° 0 min 0,000 mm 0,0 UV-I 49 W/m² 15,2 °C 16,2 °C 0,0 km/h (0 Bft)
07.06.2018 17:05 16,2 °C 93 % 1012,4 hPa 0,0 mm 0,0 km/h (0 Bft) O-NO 71 ° 0 min 0,000 mm 0,0 UV-I 49 W/m² 15,1 °C 16,2 °C 0,0 km/h (0 Bft)
07.06.2018 17:06 16,2 °C 93 % 1012,4 hPa 0,0 mm 0,0 km/h (0 Bft) O-NO 71 ° 0 min 0,000 mm 0,0 UV-I 51 W/m² 15,1 °C 16,2 °C 0,0 km/h (0 Bft)
07.06.2018 17:07 16,2 °C 93 % 1012,4 hPa 0,0 mm 0,7 km/h (0 Bft) O-NO 71 ° 0 min 0,000 mm 0,0 UV-I 51 W/m² 15,1 °C 16,2 °C 3,2 km/h (1 Bft)
07.06.2018 17:08 16,2 °C 94 % 1012,4 hPa 0,0 mm 3,0 km/h (1 Bft) O-NO 71 ° 0 min 0,000 mm 0,0 UV-I 53 W/m² 15,2 °C 16,2 °C 4,8 km/h (1 Bft)
07.06.2018 17:09 16,3 °C 94 % 1012,3 hPa 0,0 mm 1,5 km/h (1 Bft) O-NO 71 ° 0 min 0,000 mm 0,0 UV-I 56 W/m² 15,3 °C 16,3 °C 3,2 km/h (1 Bft)
07.06.2018 17:10 16,3 °C 94 % 1012,3 hPa 0,0 mm 1,3 km/h (1 Bft) O-NO 71 ° 0 min 0,000 mm 0,5 UV-I 58 W/m² 15,3 °C 16,3 °C 3,2 km/h (1 Bft)
07.06.2018 17:11 16,3 °C 94 % 1012,3 hPa 0,0 mm 0,5 km/h (0 Bft) O-NO 71 ° 0 min 0,000 mm 0,5 UV-I 60 W/m² 15,3 °C 16,3 °C 3,2 km/h (1 Bft)
07.06.2018 17:12 16,3 °C 94 % 1012,2 hPa 0,0 mm 0,0 km/h (0 Bft) O-NO 71 ° 0 min 0,000 mm 0,5 UV-I 62 W/m² 15,3 °C 16,3 °C 0,0 km/h (0 Bft)
07.06.2018 17:13 16,3 °C 94 % 1012,2 hPa 0,0 mm 0,0 km/h (0 Bft) O-NO 71 ° 0 min 0,000 mm 0,5 UV-I 62 W/m² 15,3 °C 16,3 °C 0,0 km/h (0 Bft)
07.06.2018 17:14 16,3 °C 94 % 1012,1 hPa 0,0 mm 0,0 km/h (0 Bft) O-NO 71 ° 0 min 0,000 mm 0,5 UV-I 62 W/m² 15,3 °C 16,3 °C 0,0 km/h (0 Bft)
07.06.2018 17:15 16,3 °C 94 % 1012,1 hPa 0,0 mm 0,0 km/h (0 Bft) O-NO 71 ° 0 min 0,000 mm 0,5 UV-I 63 W/m² 15,3 °C 16,3 °C 0,0 km/h (0 Bft)
07.06.2018 17:16 16,3 °C 94 % 1012,1 hPa 0,0 mm 0,0 km/h (0 Bft) O-NO 71 ° 0 min 0,000 mm 0,5 UV-I 63 W/m² 15,3 °C 16,3 °C 0,0 km/h (0 Bft)
07.06.2018 17:17 16,3 °C 94 % 1012,1 hPa 0,0 mm 0,0 km/h (0 Bft) O-NO 71 ° 0 min 0,000 mm 0,5 UV-I 65 W/m² 15,3 °C 16,3 °C 0,0 km/h (0 Bft)
07.06.2018 17:18 16,3 °C 94 % 1012,0 hPa 0,0 mm 0,0 km/h (0 Bft) O-NO 71 ° 0 min 0,000 mm 0,5 UV-I 65 W/m² 15,3 °C 16,3 °C 0,0 km/h (0 Bft)
07.06.2018 17:19 16,3 °C 94 % 1012,1 hPa 0,0 mm 0,2 km/h (0 Bft) O-NO 71 ° 0 min 0,000 mm 0,5 UV-I 67 W/m² 15,3 °C 16,3 °C 1,6 km/h (1 Bft)
07.06.2018 17:20 16,3 °C 94 % 1012,1 hPa 0,0 mm 1,6 km/h (1 Bft) O-NO 71 ° 0 min 0,000 mm 0,6 UV-I 67 W/m² 15,3 °C 16,3 °C 3,2 km/h (1 Bft)
07.06.2018 17:21 16,3 °C 94 % 1012,1 hPa 0,0 mm 0,8 km/h (0 Bft) O-NO 71 ° 0 min 0,000 mm 0,6 UV-I 76 W/m² 15,3 °C 16,3 °C 1,6 km/h (1 Bft)
07.06.2018 17:22 16,3 °C 94 % 1012,1 hPa 0,0 mm 0,7 km/h (0 Bft) O-NO 71 ° 0 min 0,000 mm 0,6 UV-I 77 W/m² 15,3 °C 16,3 °C 1,6 km/h (1 Bft)
07.06.2018 17:23 16,3 °C 94 % 1012,1 hPa 0,0 mm 0,0 km/h (0 Bft) O-NO 71 ° 0 min 0,000 mm 0,6 UV-I 81 W/m² 15,3 °C 16,3 °C 0,0 km/h (0 Bft)
07.06.2018 17:24 16,4 °C 94 % 1012,2 hPa 0,0 mm 0,0 km/h (0 Bft) O-NO 71 ° 0 min 0,000 mm 0,6 UV-I 84 W/m² 15,4 °C 16,4 °C 0,0 km/h (0 Bft)
07.06.2018 17:25 16,4 °C 94 % 1012,1 hPa 0,0 mm 3,1 km/h (1 Bft) O-NO 70 ° 0 min 0,000 mm 0,7 UV-I 88 W/m² 15,4 °C 16,4 °C 6,4 km/h (2 Bft)
07.06.2018 17:26 16,4 °C 93 % 1012,1 hPa 0,0 mm 3,7 km/h (1 Bft) O-NO 70 ° 0 min 0,000 mm 0,7 UV-I 91 W/m² 15,3 °C 16,4 °C 4,8 km/h (1 Bft)
07.06.2018 17:27 16,4 °C 93 % 1012,1 hPa 0,0 mm 2,0 km/h (1 Bft) O-NO 70 ° 0 min 0,000 mm 0,8 UV-I 102 W/m² 15,3 °C 16,4 °C 4,8 km/h (1 Bft)
07.06.2018 17:28 16,4 °C 93 % 1012,1 hPa 0,0 mm 0,0 km/h (0 Bft) O-NO 70 ° 0 min 0,000 mm 0,8 UV-I 105 W/m² 15,3 °C 16,4 °C 0,0 km/h (0 Bft)
07.06.2018 17:29 16,5 °C 93 % 1012,2 hPa 0,0 mm 0,6 km/h (0 Bft) O-NO 70 ° 0 min 0,000 mm 0,8 UV-I 111 W/m² 15,4 °C 16,5 °C 1,6 km/h (1 Bft)
07.06.2018 17:30 16,5 °C 93 % 1012,1 hPa 0,0 mm 2,8 km/h (1 Bft) O-NO 78 ° 0 min 0,000 mm 0,9 UV-I 114 W/m² 15,4 °C 16,5 °C 4,8 km/h (1 Bft)
07.06.2018 17:31 16,6 °C 93 % 1012,1 hPa 0,0 mm 2,0 km/h (1 Bft) O-NO 78 ° 0 min 0,000 mm 0,9 UV-I 116 W/m² 15,5 °C 16,6 °C 4,8 km/h (1 Bft)
07.06.2018 17:32 16,6 °C 93 % 1012,1 hPa 0,0 mm 4,8 km/h (1 Bft) O-SO 103 ° 0 min 0,000 mm 0,9 UV-I 116 W/m² 15,5 °C 16,6 °C 9,7 km/h (2 Bft)
07.06.2018 17:33 16,6 °C 93 % 1012,1 hPa 0,0 mm 5,8 km/h (2 Bft) SO 126 ° 0 min 0,000 mm 0,9 UV-I 120 W/m² 15,5 °C 16,6 °C 11,3 km/h (2 Bft)
07.06.2018 17:34 16,6 °C 93 % 1012,1 hPa 0,0 mm 2,1 km/h (1 Bft) SO 126 ° 0 min 0,000 mm 0,9 UV-I 121 W/m² 15,5 °C 16,6 °C 4,8 km/h (1 Bft)
07.06.2018 17:35 16,6 °C 93 % 1012,1 hPa 0,0 mm 1,9 km/h (1 Bft) SO 126 ° 0 min 0,000 mm 0,9 UV-I 121 W/m² 15,5 °C 16,6 °C 3,2 km/h (1 Bft)
07.06.2018 17:36 16,7 °C 93 % 1012,1 hPa 0,0 mm 0,5 km/h (0 Bft) SO 126 ° 0 min 0,000 mm 0,9 UV-I 123 W/m² 15,6 °C 16,7 °C 3,2 km/h (1 Bft)
07.06.2018 17:37 16,7 °C 93 % 1012,1 hPa 0,0 mm 0,5 km/h (0 Bft) SO 126 ° 0 min 0,000 mm 0,9 UV-I 123 W/m² 15,6 °C 16,7 °C 1,6 km/h (1 Bft)
07.06.2018 17:38 16,7 °C 93 % 1012,1 hPa 0,0 mm 0,8 km/h (0 Bft) SO 126 ° 0 min 0,000 mm 0,9 UV-I 123 W/m² 15,6 °C 16,7 °C 1,6 km/h (1 Bft)
07.06.2018 17:39 16,7 °C 93 % 1012,1 hPa 0,0 mm 0,0 km/h (0 Bft) SO 126 ° 0 min 0,000 mm 0,9 UV-I 123 W/m² 15,6 °C 16,7 °C 0,0 km/h (0 Bft)
07.06.2018 17:40 16,7 °C 93 % 1012,0 hPa 0,0 mm 0,2 km/h (0 Bft) SO 126 ° 0 min 0,000 mm 0,9 UV-I 123 W/m² 15,6 °C 16,7 °C 1,6 km/h (1 Bft)
07.06.2018 17:41 16,7 °C 93 % 1012,0 hPa 0,0 mm 0,2 km/h (0 Bft) SO 126 ° 0 min 0,000 mm 0,9 UV-I 121 W/m² 15,6 °C 16,7 °C 1,6 km/h (1 Bft)
07.06.2018 17:42 16,8 °C 93 % 1012,0 hPa 0,0 mm 0,0 km/h (0 Bft) SO 126 ° 0 min 0,000 mm 0,8 UV-I 118 W/m² 15,7 °C 16,8 °C 0,0 km/h (0 Bft)
07.06.2018 17:43 16,8 °C 93 % 1012,0 hPa 0,0 mm 0,9 km/h (0 Bft) SO 126 ° 0 min 0,000 mm 0,8 UV-I 116 W/m² 15,7 °C 16,8 °C 3,2 km/h (1 Bft)
07.06.2018 17:44 16,9 °C 93 % 1012,1 hPa 0,0 mm 0,0 km/h (0 Bft) SO 126 ° 0 min 0,000 mm 0,8 UV-I 113 W/m² 15,8 °C 16,9 °C 0,0 km/h (0 Bft)
07.06.2018 17:45 16,8 °C 93 % 1012,1 hPa 0,0 mm 0,0 km/h (0 Bft) SO 126 ° 0 min 0,000 mm 0,8 UV-I 111 W/m² 15,7 °C 16,8 °C 0,0 km/h (0 Bft)
07.06.2018 17:46 16,8 °C 93 % 1012,1 hPa 0,0 mm 0,0 km/h (0 Bft) SO 126 ° 0 min 0,000 mm 0,8 UV-I 111 W/m² 15,7 °C 16,8 °C 0,0 km/h (0 Bft)
07.06.2018 17:47 16,8 °C 93 % 1012,1 hPa 0,0 mm 0,0 km/h (0 Bft) SO 126 ° 0 min 0,000 mm 0,8 UV-I 109 W/m² 15,7 °C 16,8 °C 0,0 km/h (0 Bft)
07.06.2018 17:48 16,8 °C 92 % 1012,1 hPa 0,0 mm 0,0 km/h (0 Bft) SO 126 ° 0 min 0,000 mm 0,7 UV-I 109 W/m² 15,5 °C 16,8 °C 0,0 km/h (0 Bft)
07.06.2018 17:49 16,8 °C 92 % 1012,1 hPa 0,0 mm 0,0 km/h (0 Bft) SO 126 ° 0 min 0,000 mm 0,7 UV-I 107 W/m² 15,5 °C 16,8 °C 0,0 km/h (0 Bft)
07.06.2018 17:50 16,8 °C 93 % 1012,2 hPa 0,0 mm 0,0 km/h (0 Bft) SO 126 ° 0 min 0,000 mm 0,7 UV-I 104 W/m² 15,7 °C 16,8 °C 0,0 km/h (0 Bft)
07.06.2018 17:51 16,9 °C 93 % 1012,2 hPa 0,0 mm 0,6 km/h (0 Bft) O-SO 109 ° 0 min 0,000 mm 0,7 UV-I 102 W/m² 15,8 °C 16,9 °C 3,2 km/h (1 Bft)
07.06.2018 17:52 16,9 °C 92 % 1012,2 hPa 0,0 mm 0,5 km/h (0 Bft) O-SO 109 ° 0 min 0,000 mm 0,7 UV-I 100 W/m² 15,6 °C 16,9 °C 3,2 km/h (1 Bft)
07.06.2018 17:53 16,8 °C 93 % 1012,3 hPa 0,0 mm 1,3 km/h (1 Bft) SO 126 ° 0 min 0,000 mm 0,7 UV-I 98 W/m² 15,7 °C 16,8 °C 4,8 km/h (1 Bft)
07.06.2018 17:54 16,8 °C 92 % 1012,2 hPa 0,0 mm 1,8 km/h (1 Bft) SO 130 ° 0 min 0,000 mm 0,7 UV-I 97 W/m² 15,5 °C 16,8 °C 3,2 km/h (1 Bft)
07.06.2018 17:55 16,8 °C 92 % 1012,3 hPa 0,0 mm 0,4 km/h (0 Bft) SO 130 ° 0 min 0,000 mm 0,6 UV-I 97 W/m² 15,5 °C 16,8 °C 1,6 km/h (1 Bft)
07.06.2018 17:56 16,8 °C 92 % 1012,3 hPa 0,0 mm 0,0 km/h (0 Bft) SO 130 ° 0 min 0,000 mm 0,6 UV-I 97 W/m² 15,5 °C 16,8 °C 0,0 km/h (0 Bft)
07.06.2018 17:57 16,9 °C 93 % 1012,3 hPa 0,0 mm 0,0 km/h (0 Bft) SO 130 ° 0 min 0,000 mm 0,7 UV-I 98 W/m² 15,8 °C 16,9 °C 0,0 km/h (0 Bft)
07.06.2018 17:58 16,9 °C 93 % 1012,3 hPa 0,0 mm 0,0 km/h (0 Bft) SO 130 ° 0 min 0,000 mm 0,7 UV-I 102 W/m² 15,8 °C 16,9 °C 0,0 km/h (0 Bft)
07.06.2018 17:59 16,9 °C 93 % 1012,3 hPa 0,0 mm 0,0 km/h (0 Bft) SO 130 ° 0 min 0,000 mm 0,7 UV-I 107 W/m² 15,8 °C 16,9 °C 0,0 km/h (0 Bft)
07.06.2018 18:00 16,8 °C 93 % 1012,3 hPa 0,0 mm 0,0 km/h (0 Bft) SO 130 ° 0 min 0,000 mm 0,7 UV-I 113 W/m² 15,7 °C 16,8 °C 0,0 km/h (0 Bft)
07.06.2018 18:01 16,8 °C 92 % 1012,3 hPa 0,0 mm 0,0 km/h (0 Bft) SO 130 ° 0 min 0,051 mm 0,8 UV-I 118 W/m² 15,5 °C 16,8 °C 0,0 km/h (0 Bft)
07.06.2018 18:02 16,8 °C 92 % 1012,3 hPa 0,0 mm 0,7 km/h (0 Bft) O 86 ° 0 min 0,000 mm 0,8 UV-I 130 W/m² 15,5 °C 16,8 °C 3,2 km/h (1 Bft)
07.06.2018 18:03 16,8 °C 92 % 1012,3 hPa 0,0 mm 0,1 km/h (0 Bft) O 86 ° 0 min 0,000 mm 0,8 UV-I 135 W/m² 15,5 °C 16,8 °C 1,6 km/h (1 Bft)
07.06.2018 18:04 16,8 °C 92 % 1012,2 hPa 0,0 mm 0,1 km/h (0 Bft) O 86 ° 0 min 0,000 mm 0,9 UV-I 141 W/m² 15,5 °C 16,8 °C 1,6 km/h (1 Bft)
07.06.2018 18:05 16,8 °C 92 % 1012,2 hPa 0,0 mm 0,1 km/h (0 Bft) O 86 ° 0 min 0,000 mm 0,9 UV-I 144 W/m² 15,5 °C 16,8 °C 1,6 km/h (1 Bft)
07.06.2018 18:06 16,8 °C 93 % 1012,2 hPa 0,0 mm 0,0 km/h (0 Bft) O 86 ° 0 min 0,000 mm 0,9 UV-I 148 W/m² 15,7 °C 16,8 °C 0,0 km/h (0 Bft)
07.06.2018 18:07 16,9 °C 93 % 1012,2 hPa 0,0 mm 0,2 km/h (0 Bft) O 86 ° 0 min 0,000 mm 0,9 UV-I 151 W/m² 15,8 °C 16,9 °C 1,6 km/h (1 Bft)
07.06.2018 18:08 17,0 °C 93 % 1012,2 hPa 0,0 mm 3,9 km/h (1 Bft) W 268 ° 0 min 0,000 mm 1,0 UV-I 163 W/m² 15,9 °C 17,0 °C 4,8 km/h (1 Bft)
07.06.2018 18:09 17,0 °C 93 % 1012,2 hPa 0,0 mm 0,9 km/h (0 Bft) W 268 ° 0 min 0,000 mm 1,0 UV-I 169 W/m² 15,9 °C 17,0 °C 4,8 km/h (1 Bft)
07.06.2018 18:10 17,2 °C 92 % 1012,2 hPa 0,0 mm 0,3 km/h (0 Bft) W 268 ° 0 min 0,000 mm 1,0 UV-I 174 W/m² 15,9 °C 17,2 °C 1,6 km/h (1 Bft)
07.06.2018 18:11 17,2 °C 92 % 1012,1 hPa 0,0 mm 0,0 km/h (0 Bft) W 268 ° 0 min 0,000 mm 1,0 UV-I 178 W/m² 15,9 °C 17,2 °C 0,0 km/h (0 Bft)
07.06.2018 18:12 17,2 °C 92 % 1012,1 hPa 0,0 mm 0,0 km/h (0 Bft) W 268 ° 0 min 0,000 mm 1,1 UV-I 181 W/m² 15,9 °C 17,2 °C 0,0 km/h (0 Bft)
07.06.2018 18:13 17,2 °C 92 % 1012,1 hPa 0,0 mm 0,0 km/h (0 Bft) W 268 ° 0 min 0,000 mm 1,1 UV-I 185 W/m² 15,9 °C 17,2 °C 0,0 km/h (0 Bft)
07.06.2018 18:14 17,2 °C 92 % 1012,1 hPa 0,0 mm 0,0 km/h (0 Bft) W 268 ° 0 min 0,000 mm 1,1 UV-I 190 W/m² 15,9 °C 17,2 °C 0,0 km/h (0 Bft)
07.06.2018 18:15 17,1 °C 92 % 1012,1 hPa 0,0 mm 0,0 km/h (0 Bft) W 268 ° 0 min 0,000 mm 1,1 UV-I 192 W/m² 15,8 °C 17,1 °C 0,0 km/h (0 Bft)
07.06.2018 18:16 17,2 °C 92 % 1012,1 hPa 0,0 mm 0,0 km/h (0 Bft) W 268 ° 0 min 0,000 mm 1,1 UV-I 192 W/m² 15,9 °C 17,2 °C 0,0 km/h (0 Bft)
07.06.2018 18:17 17,3 °C 93 % 1012,1 hPa 0,0 mm 0,6 km/h (0 Bft) W 268 ° 0 min 0,000 mm 1,0 UV-I 190 W/m² 16,2 °C 17,3 °C 3,2 km/h (1 Bft)
07.06.2018 18:18 17,3 °C 92 % 1012,0 hPa 0,0 mm 0,0 km/h (0 Bft) W 268 ° 0 min 0,000 mm 1,0 UV-I 181 W/m² 16,0 °C 17,3 °C 0,0 km/h (0 Bft)
07.06.2018 18:19 17,3 °C 92 % 1012,0 hPa 0,0 mm 0,9 km/h (0 Bft) W 268 ° 0 min 0,000 mm 1,0 UV-I 165 W/m² 16,0 °C 17,3 °C 3,2 km/h (1 Bft)
07.06.2018 18:20 17,5 °C 92 % 1012,0 hPa 0,0 mm 3,4 km/h (1 Bft) N-NW 347 ° 0 min 0,000 mm 0,9 UV-I 162 W/m² 16,2 °C 17,5 °C 4,8 km/h (1 Bft)
07.06.2018 18:21 17,6 °C 92 % 1012,0 hPa 0,0 mm 2,6 km/h (1 Bft) N 350 ° 0 min 0,000 mm 0,9 UV-I 160 W/m² 16,3 °C 17,6 °C 4,8 km/h (1 Bft)
07.06.2018 18:22 17,7 °C 91 % 1012,0 hPa 0,0 mm 1,8 km/h (1 Bft) N 350 ° 0 min 0,000 mm 0,9 UV-I 155 W/m² 16,2 °C 17,7 °C 3,2 km/h (1 Bft)
07.06.2018 18:23 17,7 °C 90 % 1012,0 hPa 0,0 mm 0,6 km/h (0 Bft) N 350 ° 0 min 0,000 mm 0,9 UV-I 148 W/m² 16,0 °C 17,7 °C 1,6 km/h (1 Bft)
07.06.2018 18:24 17,8 °C 91 % 1012,0 hPa 0,0 mm 3,4 km/h (1 Bft) N 351 ° 0 min 0,000 mm 0,9 UV-I 142 W/m² 16,3 °C 17,8 °C 4,8 km/h (1 Bft)
07.06.2018 18:25 17,9 °C 91 % 1012,0 hPa 0,0 mm 2,4 km/h (1 Bft) N 355 ° 0 min 0,000 mm 0,8 UV-I 141 W/m² 16,4 °C 17,9 °C 4,8 km/h (1 Bft)
07.06.2018 18:26 17,9 °C 91 % 1012,0 hPa 0,0 mm 2,4 km/h (1 Bft) N 355 ° 0 min 0,000 mm 0,8 UV-I 127 W/m² 16,4 °C 17,9 °C 3,2 km/h (1 Bft)
07.06.2018 18:27 17,9 °C 91 % 1012,0 hPa 0,0 mm 2,5 km/h (1 Bft) N 355 ° 0 min 0,000 mm 0,8 UV-I 120 W/m² 16,4 °C 17,9 °C 4,8 km/h (1 Bft)
07.06.2018 18:28 17,9 °C 91 % 1011,9 hPa 0,0 mm 2,9 km/h (1 Bft) N 355 ° 0 min 0,000 mm 0,8 UV-I 120 W/m² 16,4 °C 17,9 °C 3,2 km/h (1 Bft)
07.06.2018 18:29 17,9 °C 91 % 1012,0 hPa 0,0 mm 3,8 km/h (1 Bft) N 5 ° 0 min 0,000 mm 0,8 UV-I 118 W/m² 16,4 °C 17,9 °C 6,4 km/h (2 Bft)
07.06.2018 18:30 17,9 °C 91 % 1012,0 hPa 0,0 mm 4,8 km/h (1 Bft) NO 51 ° 0 min 0,000 mm 0,8 UV-I 113 W/m² 16,4 °C 17,9 °C 6,4 km/h (2 Bft)
07.06.2018 18:31 17,8 °C 90 % 1011,9 hPa 0,0 mm 2,3 km/h (1 Bft) NO 51 ° 0 min 0,000 mm 0,8 UV-I 105 W/m² 16,1 °C 17,8 °C 4,8 km/h (1 Bft)
07.06.2018 18:32 17,8 °C 90 % 1012,0 hPa 0,0 mm 3,9 km/h (1 Bft) NO 52 ° 0 min 0,000 mm 0,8 UV-I 102 W/m² 16,1 °C 17,8 °C 4,8 km/h (1 Bft)
07.06.2018 18:33 17,7 °C 90 % 1011,9 hPa 0,0 mm 3,4 km/h (1 Bft) NO 52 ° 0 min 0,000 mm 0,8 UV-I 100 W/m² 16,0 °C 17,7 °C 4,8 km/h (1 Bft)
07.06.2018 18:34 17,6 °C 90 % 1011,9 hPa 0,0 mm 2,7 km/h (1 Bft) NO 52 ° 0 min 0,000 mm 0,8 UV-I 100 W/m² 15,9 °C 17,6 °C 3,2 km/h (1 Bft)
07.06.2018 18:35 17,5 °C 90 % 1011,9 hPa 0,0 mm 2,8 km/h (1 Bft) NO 52 ° 0 min 0,000 mm 0,8 UV-I 100 W/m² 15,8 °C 17,5 °C 3,2 km/h (1 Bft)
07.06.2018 18:36 17,4 °C 91 % 1011,9 hPa 0,0 mm 2,3 km/h (1 Bft) NO 52 ° 0 min 0,000 mm 0,8 UV-I 104 W/m² 15,9 °C 17,4 °C 4,8 km/h (1 Bft)
07.06.2018 18:37 17,4 °C 91 % 1011,9 hPa 0,0 mm 3,0 km/h (1 Bft) NO 52 ° 0 min 0,000 mm 0,8 UV-I 109 W/m² 15,9 °C 17,4 °C 4,8 km/h (1 Bft)
07.06.2018 18:38 17,4 °C 91 % 1011,9 hPa 0,0 mm 1,1 km/h (1 Bft) NO 52 ° 0 min 0,000 mm 0,8 UV-I 104 W/m² 15,9 °C 17,4 °C 1,6 km/h (1 Bft)
07.06.2018 18:39 17,4 °C 91 % 1012,0 hPa 0,0 mm 1,0 km/h (0 Bft) NO 52 ° 0 min 0,000 mm 0,8 UV-I 104 W/m² 15,9 °C 17,4 °C 3,2 km/h (1 Bft)
07.06.2018 18:40 17,3 °C 91 % 1011,9 hPa 0,0 mm 2,5 km/h (1 Bft) NO 52 ° 0 min 0,000 mm 0,8 UV-I 100 W/m² 15,8 °C 17,3 °C 4,8 km/h (1 Bft)
07.06.2018 18:41 17,4 °C 91 % 1011,9 hPa 0,0 mm 1,0 km/h (0 Bft) NO 52 ° 0 min 0,000 mm 0,8 UV-I 100 W/m² 15,9 °C 17,4 °C 3,2 km/h (1 Bft)
07.06.2018 18:42 17,3 °C 91 % 1011,9 hPa 0,0 mm 0,1 km/h (0 Bft) NO 52 ° 0 min 0,000 mm 0,8 UV-I 102 W/m² 15,8 °C 17,3 °C 1,6 km/h (1 Bft)
07.06.2018 18:43 17,3 °C 91 % 1011,9 hPa 0,0 mm 0,8 km/h (0 Bft) NO 52 ° 0 min 0,000 mm 0,8 UV-I 104 W/m² 15,8 °C 17,3 °C 3,2 km/h (1 Bft)
07.06.2018 18:44 17,3 °C 91 % 1011,9 hPa 0,0 mm 0,0 km/h (0 Bft) NO 52 ° 0 min 0,000 mm 0,8 UV-I 123 W/m² 15,8 °C 17,3 °C 0,0 km/h (0 Bft)
07.06.2018 18:45 17,3 °C 91 % 1011,9 hPa 0,0 mm 0,9 km/h (0 Bft) NO 52 ° 0 min 0,000 mm 0,8 UV-I 102 W/m² 15,8 °C 17,3 °C 1,6 km/h (1 Bft)
07.06.2018 18:46 17,3 °C 91 % 1011,8 hPa 0,0 mm 0,0 km/h (0 Bft) NO 52 ° 0 min 0,000 mm 0,9 UV-I 109 W/m² 15,8 °C 17,3 °C 0,0 km/h (0 Bft)
07.06.2018 18:47 17,3 °C 91 % 1011,8 hPa 0,0 mm 0,1 km/h (0 Bft) NO 52 ° 0 min 0,000 mm 0,9 UV-I 123 W/m² 15,8 °C 17,3 °C 1,6 km/h (1 Bft)
07.06.2018 18:48 17,4 °C 91 % 1011,9 hPa 0,0 mm 1,7 km/h (1 Bft) NO 52 ° 0 min 0,000 mm 0,9 UV-I 113 W/m² 15,9 °C 17,4 °C 3,2 km/h (1 Bft)
07.06.2018 18:49 17,3 °C 91 % 1011,9 hPa 0,0 mm 1,7 km/h (1 Bft) NO 52 ° 0 min 0,000 mm 0,9 UV-I 132 W/m² 15,8 °C 17,3 °C 3,2 km/h (1 Bft)
07.06.2018 18:50 17,4 °C 91 % 1011,9 hPa 0,0 mm 2,3 km/h (1 Bft) NO 52 ° 0 min 0,000 mm 0,9 UV-I 135 W/m² 15,9 °C 17,4 °C 3,2 km/h (1 Bft)
07.06.2018 18:51 17,4 °C 91 % 1011,9 hPa 0,0 mm 2,3 km/h (1 Bft) NO 52 ° 0 min 0,000 mm 0,9 UV-I 132 W/m² 15,9 °C 17,4 °C 4,8 km/h (1 Bft)
07.06.2018 18:52 17,4 °C 91 % 1011,8 hPa 0,0 mm 3,5 km/h (1 Bft) NO 52 ° 0 min 0,000 mm 0,9 UV-I 137 W/m² 15,9 °C 17,4 °C 4,8 km/h (1 Bft)
07.06.2018 18:53 17,4 °C 92 % 1011,8 hPa 0,0 mm 1,7 km/h (1 Bft) NO 52 ° 0 min 0,000 mm 0,9 UV-I 137 W/m² 16,1 °C 17,4 °C 4,8 km/h (1 Bft)
07.06.2018 18:54 17,4 °C 92 % 1011,8 hPa 0,0 mm 1,0 km/h (0 Bft) NO 52 ° 0 min 0,000 mm 0,9 UV-I 172 W/m² 16,1 °C 17,4 °C 1,6 km/h (1 Bft)
07.06.2018 18:55 17,4 °C 92 % 1011,7 hPa 0,0 mm 0,7 km/h (0 Bft) NO 52 ° 0 min 0,000 mm 0,9 UV-I 183 W/m² 16,1 °C 17,4 °C 3,2 km/h (1 Bft)
07.06.2018 18:56 17,4 °C 92 % 1011,7 hPa 0,0 mm 0,5 km/h (0 Bft) NO 52 ° 0 min 0,000 mm 0,9 UV-I 207 W/m² 16,1 °C 17,4 °C 1,6 km/h (1 Bft)
07.06.2018 18:57 17,5 °C 92 % 1011,7 hPa 0,0 mm 0,0 km/h (0 Bft) NO 52 ° 0 min 0,000 mm 0,9 UV-I 227 W/m² 16,2 °C 17,5 °C 0,0 km/h (0 Bft)
07.06.2018 18:58 17,5 °C 91 % 1011,7 hPa 0,0 mm 0,0 km/h (0 Bft) NO 52 ° 0 min 0,000 mm 0,9 UV-I 227 W/m² 16,0 °C 17,5 °C 0,0 km/h (0 Bft)
07.06.2018 18:59 17,5 °C 92 % 1011,7 hPa 0,0 mm 0,0 km/h (0 Bft) NO 52 ° 0 min 0,000 mm 0,9 UV-I 236 W/m² 16,2 °C 17,5 °C 0,0 km/h (0 Bft)
07.06.2018 19:00 17,5 °C 92 % 1011,8 hPa 0,0 mm 0,0 km/h (0 Bft) NO 52 ° 0 min 0,000 mm 0,8 UV-I 158 W/m² 16,2 °C 17,5 °C 0,0 km/h (0 Bft)
07.06.2018 19:01 17,6 °C 92 % 1011,7 hPa 0,0 mm 0,0 km/h (0 Bft) NO 52 ° 0 min 0,076 mm 0,7 UV-I 158 W/m² 16,3 °C 17,6 °C 0,0 km/h (0 Bft)
07.06.2018 19:02 17,6 °C 92 % 1011,7 hPa 0,0 mm 0,0 km/h (0 Bft) NO 52 ° 0 min 0,000 mm 0,6 UV-I 132 W/m² 16,3 °C 17,6 °C 0,0 km/h (0 Bft)
07.06.2018 19:03 17,7 °C 92 % 1011,8 hPa 0,0 mm 0,0 km/h (0 Bft) NO 52 ° 0 min 0,000 mm 0,6 UV-I 130 W/m² 16,4 °C 17,7 °C 0,0 km/h (0 Bft)
07.06.2018 19:04 17,7 °C 92 % 1011,7 hPa 0,0 mm 0,0 km/h (0 Bft) NO 52 ° 0 min 0,000 mm 0,6 UV-I 137 W/m² 16,4 °C 17,7 °C 0,0 km/h (0 Bft)
07.06.2018 19:05 17,7 °C 92 % 1011,7 hPa 0,0 mm 0,0 km/h (0 Bft) NO 52 ° 0 min 0,000 mm 0,6 UV-I 149 W/m² 16,4 °C 17,7 °C 0,0 km/h (0 Bft)
07.06.2018 19:06 17,8 °C 92 % 1011,7 hPa 0,0 mm 0,1 km/h (0 Bft) NO 52 ° 0 min 0,000 mm 0,6 UV-I 171 W/m² 16,5 °C 17,8 °C 1,6 km/h (1 Bft)
07.06.2018 19:07 17,8 °C 91 % 1011,7 hPa 0,0 mm 1,3 km/h (1 Bft) NO 52 ° 0 min 0,000 mm 0,6 UV-I 178 W/m² 16,3 °C 17,8 °C 3,2 km/h (1 Bft)
07.06.2018 19:08 17,8 °C 91 % 1011,7 hPa 0,0 mm 0,0 km/h (0 Bft) NO 52 ° 0 min 0,000 mm 0,5 UV-I 169 W/m² 16,3 °C 17,8 °C 0,0 km/h (0 Bft)
07.06.2018 19:09 17,8 °C 91 % 1011,6 hPa 0,0 mm 0,0 km/h (0 Bft) NO 52 ° 0 min 0,000 mm 0,5 UV-I 127 W/m² 16,3 °C 17,8 °C 0,0 km/h (0 Bft)
07.06.2018 19:10 17,8 °C 91 % 1011,6 hPa 0,0 mm 0,0 km/h (0 Bft) NO 52 ° 0 min 0,000 mm 0,5 UV-I 135 W/m² 16,3 °C 17,8 °C 0,0 km/h (0 Bft)
07.06.2018 19:11 17,8 °C 91 % 1011,6 hPa 0,0 mm 0,0 km/h (0 Bft) NO 52 ° 0 min 0,000 mm 0,5 UV-I 142 W/m² 16,3 °C 17,8 °C 0,0 km/h (0 Bft)
07.06.2018 19:12 17,9 °C 91 % 1011,6 hPa 0,0 mm 0,0 km/h (0 Bft) NO 52 ° 0 min 0,000 mm 0,0 UV-I 100 W/m² 16,4 °C 17,9 °C 0,0 km/h (0 Bft)
07.06.2018 19:13 17,9 °C 91 % 1011,6 hPa 0,0 mm 0,0 km/h (0 Bft) NO 52 ° 0 min 0,000 mm 0,0 UV-I 84 W/m² 16,4 °C 17,9 °C 0,0 km/h (0 Bft)
07.06.2018 19:14 17,9 °C 92 % 1011,6 hPa 0,0 mm 1,3 km/h (1 Bft) NO 52 ° 0 min 0,000 mm 0,0 UV-I 72 W/m² 16,6 °C 17,9 °C 1,6 km/h (1 Bft)
07.06.2018 19:15 17,9 °C 91 % 1011,6 hPa 0,0 mm 0,0 km/h (0 Bft) NO 52 ° 0 min 0,000 mm 0,0 UV-I 65 W/m² 16,4 °C 17,9 °C 0,0 km/h (0 Bft)
07.06.2018 19:16 17,9 °C 91 % 1011,7 hPa 0,0 mm 0,0 km/h (0 Bft) NO 52 ° 0 min 0,000 mm 0,0 UV-I 62 W/m² 16,4 °C 17,9 °C 0,0 km/h (0 Bft)
07.06.2018 19:17 17,9 °C 91 % 1011,7 hPa 0,0 mm 0,1 km/h (0 Bft) NO 52 ° 0 min 0,000 mm 0,0 UV-I 60 W/m² 16,4 °C 17,9 °C 1,6 km/h (1 Bft)
07.06.2018 19:18 17,9 °C 91 % 1011,7 hPa 0,0 mm 0,2 km/h (0 Bft) NO 52 ° 0 min 0,000 mm 0,0 UV-I 56 W/m² 16,4 °C 17,9 °C 1,6 km/h (1 Bft)
07.06.2018 19:19 17,8 °C 91 % 1011,6 hPa 0,0 mm 0,5 km/h (0 Bft) NO 52 ° 0 min 0,000 mm 0,0 UV-I 56 W/m² 16,3 °C 17,8 °C 1,6 km/h (1 Bft)
07.06.2018 19:20 17,8 °C 91 % 1011,7 hPa 0,0 mm 0,0 km/h (0 Bft) NO 52 ° 0 min 0,000 mm 0,0 UV-I 54 W/m² 16,3 °C 17,8 °C 0,0 km/h (0 Bft)
07.06.2018 19:21 17,7 °C 91 % 1011,6 hPa 0,0 mm 0,0 km/h (0 Bft) NO 52 ° 0 min 0,000 mm 0,0 UV-I 53 W/m² 16,2 °C 17,7 °C 0,0 km/h (0 Bft)
07.06.2018 19:22 17,7 °C 91 % 1011,6 hPa 0,0 mm 0,0 km/h (0 Bft) NO 52 ° 0 min 0,000 mm 0,0 UV-I 51 W/m² 16,2 °C 17,7 °C 0,0 km/h (0 Bft)
07.06.2018 19:23 17,6 °C 92 % 1011,7 hPa 0,0 mm 0,0 km/h (0 Bft) NO 52 ° 0 min 0,000 mm 0,0 UV-I 51 W/m² 16,3 °C 17,6 °C 0,0 km/h (0 Bft)
07.06.2018 19:24 17,6 °C 92 % 1011,6 hPa 0,0 mm 0,0 km/h (0 Bft) NO 52 ° 0 min 0,000 mm 0,0 UV-I 47 W/m² 16,3 °C 17,6 °C 0,0 km/h (0 Bft)
07.06.2018 19:25 17,6 °C 92 % 1011,6 hPa 0,0 mm 0,0 km/h (0 Bft) NO 52 ° 0 min 0,000 mm 0,0 UV-I 47 W/m² 16,3 °C 17,6 °C 0,0 km/h (0 Bft)
07.06.2018 19:26 17,6 °C 92 % 1011,6 hPa 0,0 mm 0,0 km/h (0 Bft) NO 52 ° 0 min 0,000 mm 0,0 UV-I 46 W/m² 16,3 °C 17,6 °C 0,0 km/h (0 Bft)
07.06.2018 19:27 17,6 °C 92 % 1011,6 hPa 0,0 mm 0,0 km/h (0 Bft) NO 52 ° 0 min 0,000 mm 0,0 UV-I 44 W/m² 16,3 °C 17,6 °C 0,0 km/h (0 Bft)
07.06.2018 19:28 17,5 °C 92 % 1011,6 hPa 0,0 mm 0,0 km/h (0 Bft) NO 52 ° 0 min 0,000 mm 0,0 UV-I 42 W/m² 16,2 °C 17,5 °C 0,0 km/h (0 Bft)
07.06.2018 19:29 17,5 °C 92 % 1011,7 hPa 0,0 mm 0,0 km/h (0 Bft) NO 52 ° 0 min 0,000 mm 0,0 UV-I 42 W/m² 16,2 °C 17,5 °C 0,0 km/h (0 Bft)
07.06.2018 19:30 17,4 °C 92 % 1011,7 hPa 0,0 mm 0,0 km/h (0 Bft) NO 52 ° 0 min 0,000 mm 0,0 UV-I 40 W/m² 16,1 °C 17,4 °C 0,0 km/h (0 Bft)
07.06.2018 19:31 17,4 °C 92 % 1011,6 hPa 0,0 mm 0,0 km/h (0 Bft) NO 52 ° 0 min 0,000 mm 0,0 UV-I 39 W/m² 16,1 °C 17,4 °C 0,0 km/h (0 Bft)
07.06.2018 19:32 17,4 °C 92 % 1011,6 hPa 0,0 mm 0,0 km/h (0 Bft) NO 52 ° 0 min 0,000 mm 0,0 UV-I 39 W/m² 16,1 °C 17,4 °C 0,0 km/h (0 Bft)
07.06.2018 19:33 17,4 °C 92 % 1011,6 hPa 0,0 mm 0,0 km/h (0 Bft) NO 52 ° 0 min 0,000 mm 0,0 UV-I 39 W/m² 16,1 °C 17,4 °C 0,0 km/h (0 Bft)
07.06.2018 19:34 17,3 °C 92 % 1011,6 hPa 0,0 mm 0,0 km/h (0 Bft) NO 52 ° 0 min 0,000 mm 0,0 UV-I 37 W/m² 16,0 °C 17,3 °C 0,0 km/h (0 Bft)
07.06.2018 19:35 17,3 °C 92 % 1011,6 hPa 0,0 mm 0,1 km/h (0 Bft) NO 52 ° 0 min 0,000 mm 0,0 UV-I 39 W/m² 16,0 °C 17,3 °C 1,6 km/h (1 Bft)
07.06.2018 19:36 17,2 °C 92 % 1011,6 hPa 0,0 mm 0,0 km/h (0 Bft) NO 52 ° 0 min 0,000 mm 0,0 UV-I 39 W/m² 15,9 °C 17,2 °C 0,0 km/h (0 Bft)
07.06.2018 19:37 17,1 °C 92 % 1011,6 hPa 0,0 mm 0,0 km/h (0 Bft) NO 52 ° 0 min 0,000 mm 0,0 UV-I 39 W/m² 15,8 °C 17,1 °C 0,0 km/h (0 Bft)
07.06.2018 19:38 17,1 °C 92 % 1011,6 hPa 0,0 mm 0,0 km/h (0 Bft) NO 52 ° 0 min 0,000 mm 0,0 UV-I 40 W/m² 15,8 °C 17,1 °C 0,0 km/h (0 Bft)
07.06.2018 19:39 17,1 °C 92 % 1011,6 hPa 0,0 mm 0,0 km/h (0 Bft) NO 52 ° 0 min 0,000 mm 0,0 UV-I 40 W/m² 15,8 °C 17,1 °C 0,0 km/h (0 Bft)
07.06.2018 19:40 17,0 °C 92 % 1011,6 hPa 0,0 mm 0,0 km/h (0 Bft) NO 52 ° 0 min 0,000 mm 0,0 UV-I 42 W/m² 15,7 °C 17,0 °C 0,0 km/h (0 Bft)
07.06.2018 19:41 16,9 °C 92 % 1011,6 hPa 0,0 mm 0,0 km/h (0 Bft) NO 52 ° 0 min 0,000 mm 0,0 UV-I 42 W/m² 15,6 °C 16,9 °C 0,0 km/h (0 Bft)
07.06.2018 19:42 16,9 °C 92 % 1011,6 hPa 0,0 mm 0,0 km/h (0 Bft) NO 52 ° 0 min 0,000 mm 0,0 UV-I 44 W/m² 15,6 °C 16,9 °C 0,0 km/h (0 Bft)
07.06.2018 19:43 16,9 °C 92 % 1011,6 hPa 0,0 mm 0,0 km/h (0 Bft) NO 52 ° 0 min 0,000 mm 0,0 UV-I 44 W/m² 15,6 °C 16,9 °C 0,0 km/h (0 Bft)
07.06.2018 19:44 16,8 °C 92 % 1011,6 hPa 0,0 mm 0,0 km/h (0 Bft) NO 52 ° 0 min 0,000 mm 0,0 UV-I 44 W/m² 15,5 °C 16,8 °C 0,0 km/h (0 Bft)
07.06.2018 19:45 16,8 °C 92 % 1011,6 hPa 0,0 mm 0,0 km/h (0 Bft) NO 52 ° 0 min 0,000 mm 0,0 UV-I 44 W/m² 15,5 °C 16,8 °C 0,0 km/h (0 Bft)
07.06.2018 19:46 16,8 °C 92 % 1011,6 hPa 0,0 mm 0,0 km/h (0 Bft) NO 52 ° 0 min 0,000 mm 0,0 UV-I 44 W/m² 15,5 °C 16,8 °C 0,0 km/h (0 Bft)
07.06.2018 19:47 16,8 °C 92 % 1011,6 hPa 0,0 mm 0,0 km/h (0 Bft) NO 52 ° 0 min 0,000 mm 0,0 UV-I 44 W/m² 15,5 °C 16,8 °C 0,0 km/h (0 Bft)
07.06.2018 19:48 16,8 °C 92 % 1011,7 hPa 0,0 mm 0,0 km/h (0 Bft) NO 52 ° 0 min 0,000 mm 0,0 UV-I 44 W/m² 15,5 °C 16,8 °C 0,0 km/h (0 Bft)
07.06.2018 19:49 16,7 °C 93 % 1011,7 hPa 0,0 mm 0,0 km/h (0 Bft) NO 52 ° 0 min 0,000 mm 0,0 UV-I 44 W/m² 15,6 °C 16,7 °C 0,0 km/h (0 Bft)
07.06.2018 19:50 16,8 °C 93 % 1011,7 hPa 0,0 mm 0,0 km/h (0 Bft) NO 52 ° 0 min 0,000 mm 0,0 UV-I 44 W/m² 15,7 °C 16,8 °C 0,0 km/h (0 Bft)
07.06.2018 19:51 16,7 °C 93 % 1011,8 hPa 0,0 mm 0,0 km/h (0 Bft) NO 52 ° 0 min 0,000 mm 0,0 UV-I 44 W/m² 15,6 °C 16,7 °C 0,0 km/h (0 Bft)
07.06.2018 19:52 16,7 °C 93 % 1011,8 hPa 0,0 mm 0,0 km/h (0 Bft) NO 52 ° 0 min 0,000 mm 0,0 UV-I 42 W/m² 15,6 °C 16,7 °C 0,0 km/h (0 Bft)
07.06.2018 19:53 16,7 °C 93 % 1011,8 hPa 0,0 mm 0,0 km/h (0 Bft) NO 52 ° 0 min 0,000 mm 0,0 UV-I 42 W/m² 15,6 °C 16,7 °C 0,0 km/h (0 Bft)
07.06.2018 19:54 16,7 °C 93 % 1011,8 hPa 0,0 mm 0,0 km/h (0 Bft) NO 52 ° 0 min 0,000 mm 0,0 UV-I 42 W/m² 15,6 °C 16,7 °C 0,0 km/h (0 Bft)
07.06.2018 19:55 16,7 °C 93 % 1011,8 hPa 0,0 mm 0,0 km/h (0 Bft) NO 52 ° 0 min 0,000 mm 0,0 UV-I 42 W/m² 15,6 °C 16,7 °C 0,0 km/h (0 Bft)
07.06.2018 19:56 16,7 °C 93 % 1011,8 hPa 0,0 mm 0,0 km/h (0 Bft) NO 52 ° 0 min 0,000 mm 0,0 UV-I 40 W/m² 15,6 °C 16,7 °C 0,0 km/h (0 Bft)
07.06.2018 19:57 16,7 °C 93 % 1011,7 hPa 0,0 mm 0,0 km/h (0 Bft) NO 52 ° 0 min 0,000 mm 0,0 UV-I 40 W/m² 15,6 °C 16,7 °C 0,0 km/h (0 Bft)
07.06.2018 19:58 16,8 °C 93 % 1011,7 hPa 0,0 mm 0,0 km/h (0 Bft) NO 52 ° 0 min 0,000 mm 0,0 UV-I 40 W/m² 15,7 °C 16,8 °C 0,0 km/h (0 Bft)
07.06.2018 19:59 16,8 °C 93 % 1011,7 hPa 0,0 mm 0,0 km/h (0 Bft) NO 52 ° 0 min 0,000 mm 0,0 UV-I 42 W/m² 15,7 °C 16,8 °C 0,0 km/h (0 Bft)
07.06.2018 20:00 16,8 °C 93 % 1011,7 hPa 0,0 mm 0,0 km/h (0 Bft) NO 52 ° 0 min 0,000 mm 0,0 UV-I 42 W/m² 15,7 °C 16,8 °C 0,0 km/h (0 Bft)
07.06.2018 20:01 16,8 °C 93 % 1011,6 hPa 0,0 mm 1,1 km/h (1 Bft) NO 52 ° 0 min 0,026 mm 0,0 UV-I 42 W/m² 15,7 °C 16,8 °C 1,6 km/h (1 Bft)
07.06.2018 20:02 16,8 °C 93 % 1011,6 hPa 0,0 mm 0,0 km/h (0 Bft) NO 52 ° 0 min 0,000 mm 0,0 UV-I 44 W/m² 15,7 °C 16,8 °C 0,0 km/h (0 Bft)
07.06.2018 20:03 16,8 °C 93 % 1011,6 hPa 0,0 mm 0,0 km/h (0 Bft) NO 52 ° 0 min 0,000 mm 0,0 UV-I 44 W/m² 15,7 °C 16,8 °C 0,0 km/h (0 Bft)
07.06.2018 20:04 16,8 °C 93 % 1011,6 hPa 0,0 mm 0,0 km/h (0 Bft) NO 52 ° 0 min 0,000 mm 0,0 UV-I 44 W/m² 15,7 °C 16,8 °C 0,0 km/h (0 Bft)
07.06.2018 20:05 16,8 °C 93 % 1011,6 hPa 0,0 mm 0,0 km/h (0 Bft) NO 52 ° 0 min 0,000 mm 0,0 UV-I 44 W/m² 15,7 °C 16,8 °C 0,0 km/h (0 Bft)
07.06.2018 20:06 16,8 °C 93 % 1011,6 hPa 0,0 mm 0,0 km/h (0 Bft) NO 52 ° 0 min 0,000 mm 0,0 UV-I 44 W/m² 15,7 °C 16,8 °C 0,0 km/h (0 Bft)
07.06.2018 20:07 16,8 °C 93 % 1011,5 hPa 0,0 mm 0,3 km/h (0 Bft) NO 52 ° 0 min 0,000 mm 0,0 UV-I 44 W/m² 15,7 °C 16,8 °C 1,6 km/h (1 Bft)
07.06.2018 20:08 16,8 °C 93 % 1011,5 hPa 0,0 mm 1,5 km/h (1 Bft) NO 52 ° 0 min 0,000 mm 0,0 UV-I 44 W/m² 15,7 °C 16,8 °C 3,2 km/h (1 Bft)
07.06.2018 20:09 16,9 °C 93 % 1011,5 hPa 0,0 mm 0,3 km/h (0 Bft) NO 52 ° 0 min 0,000 mm 0,0 UV-I 44 W/m² 15,8 °C 16,9 °C 3,2 km/h (1 Bft)
07.06.2018 20:10 16,9 °C 93 % 1011,5 hPa 0,0 mm 0,0 km/h (0 Bft) NO 52 ° 0 min 0,000 mm 0,0 UV-I 42 W/m² 15,8 °C 16,9 °C 0,0 km/h (0 Bft)
07.06.2018 20:11 16,9 °C 93 % 1011,5 hPa 0,0 mm 0,0 km/h (0 Bft) NO 52 ° 0 min 0,000 mm 0,0 UV-I 42 W/m² 15,8 °C 16,9 °C 0,0 km/h (0 Bft)
07.06.2018 20:12 16,8 °C 93 % 1011,5 hPa 0,0 mm 0,0 km/h (0 Bft) NO 52 ° 0 min 0,000 mm 0,0 UV-I 42 W/m² 15,7 °C 16,8 °C 0,0 km/h (0 Bft)
07.06.2018 20:13 16,8 °C 93 % 1011,5 hPa 0,0 mm 0,0 km/h (0 Bft) NO 52 ° 0 min 0,000 mm 0,0 UV-I 42 W/m² 15,7 °C 16,8 °C 0,0 km/h (0 Bft)
07.06.2018 20:14 16,9 °C 93 % 1011,5 hPa 0,0 mm 0,0 km/h (0 Bft) NO 52 ° 0 min 0,000 mm 0,0 UV-I 40 W/m² 15,8 °C 16,9 °C 0,0 km/h (0 Bft)
07.06.2018 20:15 16,9 °C 93 % 1011,5 hPa 0,0 mm 0,0 km/h (0 Bft) NO 52 ° 0 min 0,000 mm 0,0 UV-I 40 W/m² 15,8 °C 16,9 °C 0,0 km/h (0 Bft)
07.06.2018 20:16 16,9 °C 93 % 1011,5 hPa 0,0 mm 0,0 km/h (0 Bft) NO 52 ° 0 min 0,000 mm 0,0 UV-I 40 W/m² 15,8 °C 16,9 °C 0,0 km/h (0 Bft)
07.06.2018 20:17 16,8 °C 93 % 1011,5 hPa 0,0 mm 0,0 km/h (0 Bft) NO 52 ° 0 min 0,000 mm 0,0 UV-I 40 W/m² 15,7 °C 16,8 °C 0,0 km/h (0 Bft)
07.06.2018 20:18 16,8 °C 93 % 1011,6 hPa 0,0 mm 0,0 km/h (0 Bft) NO 52 ° 0 min 0,000 mm 0,0 UV-I 39 W/m² 15,7 °C 16,8 °C 0,0 km/h (0 Bft)
07.06.2018 20:19 16,8 °C 93 % 1011,5 hPa 0,0 mm 0,0 km/h (0 Bft) NO 52 ° 0 min 0,000 mm 0,0 UV-I 39 W/m² 15,7 °C 16,8 °C 0,0 km/h (0 Bft)
07.06.2018 20:20 16,8 °C 93 % 1011,5 hPa 0,0 mm 0,0 km/h (0 Bft) NO 52 ° 0 min 0,000 mm 0,0 UV-I 39 W/m² 15,7 °C 16,8 °C 0,0 km/h (0 Bft)
07.06.2018 20:21 16,8 °C 93 % 1011,5 hPa 0,0 mm 0,0 km/h (0 Bft) NO 52 ° 0 min 0,000 mm 0,0 UV-I 39 W/m² 15,7 °C 16,8 °C 0,0 km/h (0 Bft)
07.06.2018 20:22 16,8 °C 93 % 1011,6 hPa 0,0 mm 0,0 km/h (0 Bft) NO 52 ° 0 min 0,000 mm 0,0 UV-I 37 W/m² 15,7 °C 16,8 °C 0,0 km/h (0 Bft)
07.06.2018 20:23 16,8 °C 93 % 1011,5 hPa 0,0 mm 0,0 km/h (0 Bft) NO 52 ° 0 min 0,000 mm 0,0 UV-I 37 W/m² 15,7 °C 16,8 °C 0,0 km/h (0 Bft)
07.06.2018 20:24 16,9 °C 93 % 1011,5 hPa 0,0 mm 0,0 km/h (0 Bft) NO 52 ° 0 min 0,000 mm 0,0 UV-I 35 W/m² 15,8 °C 16,9 °C 0,0 km/h (0 Bft)
07.06.2018 20:25 16,8 °C 93 % 1011,5 hPa 0,0 mm 0,0 km/h (0 Bft) NO 52 ° 0 min 0,000 mm 0,0 UV-I 35 W/m² 15,7 °C 16,8 °C 0,0 km/h (0 Bft)
07.06.2018 20:26 16,8 °C 93 % 1011,5 hPa 0,0 mm 0,0 km/h (0 Bft) NO 52 ° 0 min 0,000 mm 0,0 UV-I 35 W/m² 15,7 °C 16,8 °C 0,0 km/h (0 Bft)
07.06.2018 20:27 16,9 °C 93 % 1011,5 hPa 0,0 mm 0,0 km/h (0 Bft) NO 52 ° 0 min 0,000 mm 0,0 UV-I 35 W/m² 15,8 °C 16,9 °C 0,0 km/h (0 Bft)
07.06.2018 20:28 16,8 °C 93 % 1011,5 hPa 0,0 mm 0,0 km/h (0 Bft) NO 52 ° 0 min 0,000 mm 0,0 UV-I 33 W/m² 15,7 °C 16,8 °C 0,0 km/h (0 Bft)
07.06.2018 20:29 16,8 °C 93 % 1011,5 hPa 0,0 mm 0,0 km/h (0 Bft) NO 52 ° 0 min 0,000 mm 0,0 UV-I 32 W/m² 15,7 °C 16,8 °C 0,0 km/h (0 Bft)
07.06.2018 20:30 16,8 °C 93 % 1011,5 hPa 0,0 mm 0,0 km/h (0 Bft) NO 52 ° 0 min 0,000 mm 0,0 UV-I 30 W/m² 15,7 °C 16,8 °C 0,0 km/h (0 Bft)
07.06.2018 20:31 16,9 °C 93 % 1011,5 hPa 0,0 mm 0,0 km/h (0 Bft) NO 52 ° 0 min 0,000 mm 0,0 UV-I 30 W/m² 15,8 °C 16,9 °C 0,0 km/h (0 Bft)
07.06.2018 20:32 16,8 °C 93 % 1011,5 hPa 0,0 mm 0,0 km/h (0 Bft) NO 52 ° 0 min 0,000 mm 0,0 UV-I 28 W/m² 15,7 °C 16,8 °C 0,0 km/h (0 Bft)
07.06.2018 20:33 16,8 °C 93 % 1011,5 hPa 0,0 mm 0,0 km/h (0 Bft) NO 52 ° 0 min 0,000 mm 0,0 UV-I 28 W/m² 15,7 °C 16,8 °C 0,0 km/h (0 Bft)
07.06.2018 20:34 16,8 °C 93 % 1011,5 hPa 0,0 mm 0,0 km/h (0 Bft) NO 52 ° 0 min 0,000 mm 0,0 UV-I 26 W/m² 15,7 °C 16,8 °C 0,0 km/h (0 Bft)
07.06.2018 20:35 16,8 °C 93 % 1011,5 hPa 0,0 mm 0,0 km/h (0 Bft) NO 52 ° 0 min 0,000 mm 0,0 UV-I 25 W/m² 15,7 °C 16,8 °C 0,0 km/h (0 Bft)
07.06.2018 20:36 16,8 °C 93 % 1011,5 hPa 0,0 mm 0,0 km/h (0 Bft) NO 52 ° 0 min 0,000 mm 0,0 UV-I 25 W/m² 15,7 °C 16,8 °C 0,0 km/h (0 Bft)
07.06.2018 20:37 16,7 °C 93 % 1011,5 hPa 0,0 mm 0,0 km/h (0 Bft) NO 52 ° 0 min 0,000 mm 0,0 UV-I 23 W/m² 15,6 °C 16,7 °C 0,0 km/h (0 Bft)
07.06.2018 20:38 16,7 °C 93 % 1011,5 hPa 0,0 mm 0,0 km/h (0 Bft) NO 52 ° 0 min 0,000 mm 0,0 UV-I 23 W/m² 15,6 °C 16,7 °C 0,0 km/h (0 Bft)
07.06.2018 20:39 16,7 °C 93 % 1011,5 hPa 0,0 mm 0,0 km/h (0 Bft) NO 52 ° 0 min 0,000 mm 0,0 UV-I 21 W/m² 15,6 °C 16,7 °C 0,0 km/h (0 Bft)
07.06.2018 20:40 16,7 °C 93 % 1011,5 hPa 0,0 mm 0,0 km/h (0 Bft) NO 52 ° 0 min 0,000 mm 0,0 UV-I 19 W/m² 15,6 °C 16,7 °C 0,0 km/h (0 Bft)
07.06.2018 20:41 16,7 °C 94 % 1011,5 hPa 0,0 mm 0,0 km/h (0 Bft) NO 52 ° 0 min 0,000 mm 0,0 UV-I 19 W/m² 15,7 °C 16,7 °C 0,0 km/h (0 Bft)
07.06.2018 20:42 16,6 °C 94 % 1011,5 hPa 0,0 mm 0,0 km/h (0 Bft) NO 52 ° 0 min 0,000 mm 0,0 UV-I 19 W/m² 15,6 °C 16,6 °C 0,0 km/h (0 Bft)
07.06.2018 20:43 16,6 °C 94 % 1011,4 hPa 0,0 mm 0,0 km/h (0 Bft) NO 52 ° 0 min 0,000 mm 0,0 UV-I 18 W/m² 15,6 °C 16,6 °C 0,0 km/h (0 Bft)
07.06.2018 20:44 16,6 °C 93 % 1011,4 hPa 0,0 mm 0,0 km/h (0 Bft) NO 52 ° 0 min 0,000 mm 0,0 UV-I 18 W/m² 15,5 °C 16,6 °C 0,0 km/h (0 Bft)
07.06.2018 20:45 16,6 °C 93 % 1011,5 hPa 0,0 mm 0,0 km/h (0 Bft) NO 52 ° 0 min 0,000 mm 0,0 UV-I 16 W/m² 15,5 °C 16,6 °C 0,0 km/h (0 Bft)
07.06.2018 20:46 16,6 °C 94 % 1011,4 hPa 0,0 mm 0,4 km/h (0 Bft) NO 52 ° 0 min 0,000 mm 0,0 UV-I 16 W/m² 15,6 °C 16,6 °C 1,6 km/h (1 Bft)
07.06.2018 20:47 16,5 °C 93 % 1011,5 hPa 0,0 mm 0,0 km/h (0 Bft) NO 52 ° 0 min 0,000 mm 0,0 UV-I 14 W/m² 15,4 °C 16,5 °C 0,0 km/h (0 Bft)
07.06.2018 20:48 16,4 °C 93 % 1011,5 hPa 0,0 mm 0,0 km/h (0 Bft) NO 52 ° 0 min 0,000 mm 0,0 UV-I 14 W/m² 15,3 °C 16,4 °C 0,0 km/h (0 Bft)
07.06.2018 20:49 16,4 °C 94 % 1011,5 hPa 0,0 mm 0,0 km/h (0 Bft) NO 52 ° 0 min 0,000 mm 0,0 UV-I 14 W/m² 15,4 °C 16,4 °C 0,0 km/h (0 Bft)
07.06.2018 20:50 16,4 °C 93 % 1011,5 hPa 0,0 mm 0,0 km/h (0 Bft) NO 52 ° 0 min 0,000 mm 0,0 UV-I 12 W/m² 15,3 °C 16,4 °C 0,0 km/h (0 Bft)
07.06.2018 20:51 16,4 °C 93 % 1011,6 hPa 0,0 mm 0,0 km/h (0 Bft) NO 52 ° 0 min 0,000 mm 0,0 UV-I 12 W/m² 15,3 °C 16,4 °C 0,0 km/h (0 Bft)
07.06.2018 20:52 16,4 °C 93 % 1011,5 hPa 0,0 mm 0,0 km/h (0 Bft) NO 52 ° 0 min 0,000 mm 0,0 UV-I 11 W/m² 15,3 °C 16,4 °C 0,0 km/h (0 Bft)
07.06.2018 20:53 16,4 °C 93 % 1011,5 hPa 0,0 mm 0,0 km/h (0 Bft) NO 52 ° 0 min 0,000 mm 0,0 UV-I 11 W/m² 15,3 °C 16,4 °C 0,0 km/h (0 Bft)
07.06.2018 20:54 16,4 °C 93 % 1011,6 hPa 0,0 mm 0,0 km/h (0 Bft) NO 52 ° 0 min 0,000 mm 0,0 UV-I 9 W/m² 15,3 °C 16,4 °C 0,0 km/h (0 Bft)
07.06.2018 20:55 16,4 °C 93 % 1011,6 hPa 0,0 mm 0,0 km/h (0 Bft) NO 52 ° 0 min 0,000 mm 0,0 UV-I 9 W/m² 15,3 °C 16,4 °C 0,0 km/h (0 Bft)
07.06.2018 20:56 16,3 °C 94 % 1011,6 hPa 0,0 mm 0,0 km/h (0 Bft) NO 52 ° 0 min 0,000 mm 0,0 UV-I 9 W/m² 15,3 °C 16,3 °C 0,0 km/h (0 Bft)
07.06.2018 20:57 16,3 °C 93 % 1011,6 hPa 0,0 mm 0,0 km/h (0 Bft) NO 52 ° 0 min 0,000 mm 0,0 UV-I 7 W/m² 15,2 °C 16,3 °C 0,0 km/h (0 Bft)
07.06.2018 20:58 16,3 °C 94 % 1011,6 hPa 0,0 mm 0,0 km/h (0 Bft) NO 52 ° 0 min 0,000 mm 0,0 UV-I 7 W/m² 15,3 °C 16,3 °C 0,0 km/h (0 Bft)
07.06.2018 20:59 16,3 °C 94 % 1011,6 hPa 0,0 mm 0,0 km/h (0 Bft) NO 52 ° 0 min 0,000 mm 0,0 UV-I 7 W/m² 15,3 °C 16,3 °C 0,0 km/h (0 Bft)
07.06.2018 21:00 16,3 °C 94 % 1011,7 hPa 0,0 mm 0,0 km/h (0 Bft) NO 52 ° 0 min 0,000 mm 0,0 UV-I 5 W/m² 15,3 °C 16,3 °C 0,0 km/h (0 Bft)
07.06.2018 21:01 16,3 °C 94 % 1011,7 hPa 0,0 mm 0,0 km/h (0 Bft) NO 52 ° 0 min 0,025 mm 0,0 UV-I 5 W/m² 15,3 °C 16,3 °C 0,0 km/h (0 Bft)
07.06.2018 21:02 16,3 °C 94 % 1011,7 hPa 0,0 mm 0,0 km/h (0 Bft) NO 52 ° 0 min 0,000 mm 0,0 UV-I 5 W/m² 15,3 °C 16,3 °C 0,0 km/h (0 Bft)
07.06.2018 21:03 16,3 °C 94 % 1011,7 hPa 0,0 mm 0,0 km/h (0 Bft) NO 52 ° 0 min 0,000 mm 0,0 UV-I 0 W/m² 15,3 °C 16,3 °C 0,0 km/h (0 Bft)
07.06.2018 21:04 16,2 °C 93 % 1011,7 hPa 0,0 mm 0,0 km/h (0 Bft) NO 52 ° 0 min 0,000 mm 0,0 UV-I 0 W/m² 15,1 °C 16,2 °C 0,0 km/h (0 Bft)
07.06.2018 21:05 16,2 °C 93 % 1011,7 hPa 0,0 mm 0,0 km/h (0 Bft) NO 52 ° 0 min 0,000 mm 0,0 UV-I 0 W/m² 15,1 °C 16,2 °C 0,0 km/h (0 Bft)
07.06.2018 21:06 16,2 °C 93 % 1011,7 hPa 0,0 mm 0,0 km/h (0 Bft) NO 52 ° 0 min 0,000 mm 0,0 UV-I 0 W/m² 15,1 °C 16,2 °C 0,0 km/h (0 Bft)
07.06.2018 21:07 16,2 °C 94 % 1011,7 hPa 0,0 mm 0,0 km/h (0 Bft) NO 52 ° 0 min 0,000 mm 0,0 UV-I 0 W/m² 15,2 °C 16,2 °C 0,0 km/h (0 Bft)
07.06.2018 21:08 16,2 °C 94 % 1011,7 hPa 0,0 mm 0,0 km/h (0 Bft) NO 52 ° 0 min 0,000 mm 0,0 UV-I 0 W/m² 15,2 °C 16,2 °C 0,0 km/h (0 Bft)
07.06.2018 21:09 16,2 °C 94 % 1011,7 hPa 0,0 mm 0,0 km/h (0 Bft) NO 52 ° 0 min 0,000 mm 0,0 UV-I 0 W/m² 15,2 °C 16,2 °C 0,0 km/h (0 Bft)
07.06.2018 21:10 16,1 °C 94 % 1011,7 hPa 0,0 mm 0,0 km/h (0 Bft) NO 52 ° 0 min 0,000 mm 0,0 UV-I 0 W/m² 15,1 °C 16,1 °C 0,0 km/h (0 Bft)
07.06.2018 21:11 16,1 °C 93 % 1011,7 hPa 0,0 mm 0,0 km/h (0 Bft) NO 52 ° 0 min 0,000 mm 0,0 UV-I 0 W/m² 15,0 °C 16,1 °C 0,0 km/h (0 Bft)
07.06.2018 21:12 16,1 °C 94 % 1011,7 hPa 0,0 mm 0,0 km/h (0 Bft) NO 52 ° 0 min 0,000 mm 0,0 UV-I 0 W/m² 15,1 °C 16,1 °C 0,0 km/h (0 Bft)
07.06.2018 21:13 16,1 °C 94 % 1011,7 hPa 0,0 mm 0,0 km/h (0 Bft) NO 52 ° 0 min 0,000 mm 0,0 UV-I 0 W/m² 15,1 °C 16,1 °C 0,0 km/h (0 Bft)
07.06.2018 21:14 16,1 °C 94 % 1011,7 hPa 0,0 mm 0,0 km/h (0 Bft) NO 52 ° 0 min 0,000 mm 0,0 UV-I 0 W/m² 15,1 °C 16,1 °C 0,0 km/h (0 Bft)
07.06.2018 21:15 16,2 °C 94 % 1011,7 hPa 0,0 mm 0,0 km/h (0 Bft) NO 52 ° 0 min 0,000 mm 0,0 UV-I 0 W/m² 15,2 °C 16,2 °C 0,0 km/h (0 Bft)
07.06.2018 21:16 16,2 °C 94 % 1011,7 hPa 0,0 mm 0,0 km/h (0 Bft) NO 52 ° 0 min 0,000 mm 0,0 UV-I 0 W/m² 15,2 °C 16,2 °C 0,0 km/h (0 Bft)
07.06.2018 21:17 16,2 °C 94 % 1011,7 hPa 0,0 mm 0,0 km/h (0 Bft) NO 52 ° 0 min 0,000 mm 0,0 UV-I 0 W/m² 15,2 °C 16,2 °C 0,0 km/h (0 Bft)
07.06.2018 21:18 16,1 °C 94 % 1011,8 hPa 0,0 mm 0,0 km/h (0 Bft) NO 52 ° 0 min 0,000 mm 0,0 UV-I 0 W/m² 15,1 °C 16,1 °C 0,0 km/h (0 Bft)
07.06.2018 21:19 16,1 °C 94 % 1011,7 hPa 0,0 mm 0,0 km/h (0 Bft) NO 52 ° 0 min 0,000 mm 0,0 UV-I 0 W/m² 15,1 °C 16,1 °C 0,0 km/h (0 Bft)
07.06.2018 21:20 16,1 °C 94 % 1011,7 hPa 0,0 mm 0,0 km/h (0 Bft) NO 52 ° 0 min 0,000 mm 0,0 UV-I 0 W/m² 15,1 °C 16,1 °C 0,0 km/h (0 Bft)
07.06.2018 21:21 16,1 °C 94 % 1011,8 hPa 0,0 mm 0,0 km/h (0 Bft) NO 52 ° 0 min 0,000 mm 0,0 UV-I 0 W/m² 15,1 °C 16,1 °C 0,0 km/h (0 Bft)
07.06.2018 21:22 16,1 °C 94 % 1011,7 hPa 0,0 mm 0,0 km/h (0 Bft) NO 52 ° 0 min 0,000 mm 0,0 UV-I 0 W/m² 15,1 °C 16,1 °C 0,0 km/h (0 Bft)
07.06.2018 21:23 16,1 °C 94 % 1011,6 hPa 0,0 mm 0,0 km/h (0 Bft) NO 52 ° 0 min 0,000 mm 0,0 UV-I 0 W/m² 15,1 °C 16,1 °C 0,0 km/h (0 Bft)
07.06.2018 21:24 16,1 °C 94 % 1011,6 hPa 0,0 mm 0,0 km/h (0 Bft) NO 52 ° 0 min 0,000 mm 0,0 UV-I 0 W/m² 15,1 °C 16,1 °C 0,0 km/h (0 Bft)
07.06.2018 21:25 16,0 °C 94 % 1011,6 hPa 0,0 mm 0,0 km/h (0 Bft) NO 52 ° 0 min 0,000 mm 0,0 UV-I 0 W/m² 15,0 °C 16,0 °C 0,0 km/h (0 Bft)
07.06.2018 21:26 15,9 °C 94 % 1011,6 hPa 0,0 mm 0,0 km/h (0 Bft) NO 52 ° 0 min 0,000 mm 0,0 UV-I 0 W/m² 14,9 °C 15,9 °C 0,0 km/h (0 Bft)
07.06.2018 21:27 15,9 °C 94 % 1011,7 hPa 0,0 mm 0,0 km/h (0 Bft) NO 52 ° 0 min 0,000 mm 0,0 UV-I 0 W/m² 14,9 °C 15,9 °C 0,0 km/h (0 Bft)
07.06.2018 21:28 15,8 °C 94 % 1011,6 hPa 0,0 mm 0,0 km/h (0 Bft) NO 52 ° 0 min 0,000 mm 0,0 UV-I 0 W/m² 14,8 °C 15,8 °C 0,0 km/h (0 Bft)
07.06.2018 21:29 15,8 °C 94 % 1011,7 hPa 0,0 mm 0,0 km/h (0 Bft) NO 52 ° 0 min 0,000 mm 0,0 UV-I 0 W/m² 14,8 °C 15,8 °C 0,0 km/h (0 Bft)
07.06.2018 21:30 15,8 °C 94 % 1011,7 hPa 0,0 mm 0,0 km/h (0 Bft) NO 52 ° 0 min 0,000 mm 0,0 UV-I 0 W/m² 14,8 °C 15,8 °C 0,0 km/h (0 Bft)
07.06.2018 21:31 15,7 °C 94 % 1011,7 hPa 0,0 mm 0,3 km/h (0 Bft) NO 52 ° 0 min 0,000 mm 0,0 UV-I 0 W/m² 14,7 °C 15,7 °C 1,6 km/h (1 Bft)
07.06.2018 21:32 15,7 °C 94 % 1011,6 hPa 0,0 mm 0,0 km/h (0 Bft) NO 52 ° 0 min 0,000 mm 0,0 UV-I 0 W/m² 14,7 °C 15,7 °C 0,0 km/h (0 Bft)
07.06.2018 21:33 15,7 °C 94 % 1011,7 hPa 0,0 mm 0,0 km/h (0 Bft) NO 52 ° 0 min 0,000 mm 0,0 UV-I 0 W/m² 14,7 °C 15,7 °C 0,0 km/h (0 Bft)
07.06.2018 21:34 15,7 °C 94 % 1011,7 hPa 0,0 mm 1,0 km/h (0 Bft) NO 52 ° 0 min 0,000 mm 0,0 UV-I 0 W/m² 14,7 °C 15,7 °C 3,2 km/h (1 Bft)
07.06.2018 21:35 15,6 °C 94 % 1011,6 hPa 0,0 mm 1,0 km/h (0 Bft) NO 52 ° 0 min 0,000 mm 0,0 UV-I 0 W/m² 14,6 °C 15,6 °C 3,2 km/h (1 Bft)
07.06.2018 21:36 15,6 °C 94 % 1011,6 hPa 0,0 mm 0,0 km/h (0 Bft) NO 52 ° 0 min 0,000 mm 0,0 UV-I 0 W/m² 14,6 °C 15,6 °C 0,0 km/h (0 Bft)
07.06.2018 21:37 15,6 °C 94 % 1011,6 hPa 0,0 mm 0,0 km/h (0 Bft) NO 52 ° 0 min 0,000 mm 0,0 UV-I 0 W/m² 14,6 °C 15,6 °C 0,0 km/h (0 Bft)
07.06.2018 21:38 15,6 °C 94 % 1011,5 hPa 0,0 mm 0,0 km/h (0 Bft) NO 52 ° 0 min 0,000 mm 0,0 UV-I 0 W/m² 14,6 °C 15,6 °C 0,0 km/h (0 Bft)
07.06.2018 21:39 15,6 °C 94 % 1011,5 hPa 0,0 mm 0,0 km/h (0 Bft) NO 52 ° 0 min 0,000 mm 0,0 UV-I 0 W/m² 14,6 °C 15,6 °C 0,0 km/h (0 Bft)
07.06.2018 21:40 15,5 °C 94 % 1011,5 hPa 0,0 mm 0,0 km/h (0 Bft) NO 52 ° 0 min 0,000 mm 0,0 UV-I 0 W/m² 14,5 °C 15,5 °C 0,0 km/h (0 Bft)
07.06.2018 21:41 15,4 °C 94 % 1011,5 hPa 0,0 mm 0,0 km/h (0 Bft) NO 52 ° 0 min 0,000 mm 0,0 UV-I 0 W/m² 14,4 °C 15,4 °C 0,0 km/h (0 Bft)
07.06.2018 21:42 15,4 °C 94 % 1011,5 hPa 0,0 mm 0,0 km/h (0 Bft) NO 52 ° 0 min 0,000 mm 0,0 UV-I 0 W/m² 14,4 °C 15,4 °C 0,0 km/h (0 Bft)
07.06.2018 21:43 15,3 °C 94 % 1011,5 hPa 0,0 mm 0,0 km/h (0 Bft) NO 52 ° 0 min 0,000 mm 0,0 UV-I 0 W/m² 14,3 °C 15,3 °C 0,0 km/h (0 Bft)
07.06.2018 21:44 15,3 °C 94 % 1011,5 hPa 0,0 mm 0,0 km/h (0 Bft) NO 52 ° 0 min 0,000 mm 0,0 UV-I 0 W/m² 14,3 °C 15,3 °C 0,0 km/h (0 Bft)
07.06.2018 21:45 15,3 °C 94 % 1011,4 hPa 0,0 mm 0,0 km/h (0 Bft) NO 52 ° 0 min 0,000 mm 0,0 UV-I 0 W/m² 14,3 °C 15,3 °C 0,0 km/h (0 Bft)
07.06.2018 21:46 15,2 °C 94 % 1011,4 hPa 0,0 mm 0,0 km/h (0 Bft) NO 52 ° 0 min 0,000 mm 0,0 UV-I 0 W/m² 14,2 °C 15,2 °C 0,0 km/h (0 Bft)
07.06.2018 21:47 15,1 °C 94 % 1011,4 hPa 0,0 mm 0,0 km/h (0 Bft) NO 52 ° 0 min 0,000 mm 0,0 UV-I 0 W/m² 14,1 °C 15,1 °C 0,0 km/h (0 Bft)
07.06.2018 21:48 14,9 °C 93 % 1011,4 hPa 0,0 mm 0,0 km/h (0 Bft) NO 52 ° 0 min 0,000 mm 0,0 UV-I 0 W/m² 13,8 °C 14,9 °C 0,0 km/h (0 Bft)
07.06.2018 21:49 14,8 °C 93 % 1011,4 hPa 0,0 mm 0,0 km/h (0 Bft) NO 52 ° 0 min 0,000 mm 0,0 UV-I 0 W/m² 13,7 °C 14,8 °C 0,0 km/h (0 Bft)
07.06.2018 21:50 14,8 °C 94 % 1011,4 hPa 0,0 mm 0,0 km/h (0 Bft) NO 52 ° 0 min 0,000 mm 0,0 UV-I 0 W/m² 13,8 °C 14,8 °C 0,0 km/h (0 Bft)
07.06.2018 21:51 14,8 °C 94 % 1011,4 hPa 0,0 mm 0,0 km/h (0 Bft) NO 52 ° 0 min 0,000 mm 0,0 UV-I 0 W/m² 13,8 °C 14,8 °C 0,0 km/h (0 Bft)
07.06.2018 21:52 14,8 °C 94 % 1011,4 hPa 0,0 mm 0,0 km/h (0 Bft) NO 52 ° 0 min 0,000 mm 0,0 UV-I 0 W/m² 13,8 °C 14,8 °C 0,0 km/h (0 Bft)
07.06.2018 21:53 14,8 °C 94 % 1011,4 hPa 0,0 mm 0,0 km/h (0 Bft) NO 52 ° 0 min 0,000 mm 0,0 UV-I 0 W/m² 13,8 °C 14,8 °C 0,0 km/h (0 Bft)
07.06.2018 21:54 14,9 °C 94 % 1011,5 hPa 0,0 mm 0,0 km/h (0 Bft) NO 52 ° 0 min 0,000 mm 0,0 UV-I 0 W/m² 13,9 °C 14,9 °C 0,0 km/h (0 Bft)
07.06.2018 21:55 14,8 °C 94 % 1011,4 hPa 0,0 mm 0,0 km/h (0 Bft) NO 52 ° 0 min 0,000 mm 0,0 UV-I 0 W/m² 13,8 °C 14,8 °C 0,0 km/h (0 Bft)
07.06.2018 21:56 14,8 °C 94 % 1011,4 hPa 0,0 mm 0,0 km/h (0 Bft) NO 52 ° 0 min 0,000 mm 0,0 UV-I 0 W/m² 13,8 °C 14,8 °C 0,0 km/h (0 Bft)
07.06.2018 21:57 14,8 °C 94 % 1011,5 hPa 0,0 mm 0,0 km/h (0 Bft) NO 52 ° 0 min 0,000 mm 0,0 UV-I 0 W/m² 13,8 °C 14,8 °C 0,0 km/h (0 Bft)
07.06.2018 21:58 14,8 °C 94 % 1011,5 hPa 0,0 mm 0,0 km/h (0 Bft) NO 52 ° 0 min 0,000 mm 0,0 UV-I 0 W/m² 13,8 °C 14,8 °C 0,0 km/h (0 Bft)
07.06.2018 21:59 14,8 °C 94 % 1011,4 hPa 0,0 mm 0,0 km/h (0 Bft) NO 52 ° 0 min 0,000 mm 0,0 UV-I 0 W/m² 13,8 °C 14,8 °C 0,0 km/h (0 Bft)
07.06.2018 22:00 14,8 °C 94 % 1011,5 hPa 0,0 mm 0,0 km/h (0 Bft) NO 52 ° 0 min 0,000 mm 0,0 UV-I 0 W/m² 13,8 °C 14,8 °C 0,0 km/h (0 Bft)
07.06.2018 22:01 14,7 °C 94 % 1011,5 hPa 0,0 mm 0,0 km/h (0 Bft) NO 52 ° 0 min 0,000 mm 0,0 UV-I 0 W/m² 13,7 °C 14,7 °C 0,0 km/h (0 Bft)
07.06.2018 22:02 14,8 °C 94 % 1011,5 hPa 0,0 mm 0,0 km/h (0 Bft) NO 52 ° 0 min 0,000 mm 0,0 UV-I 0 W/m² 13,8 °C 14,8 °C 0,0 km/h (0 Bft)
07.06.2018 22:03 14,8 °C 94 % 1011,4 hPa 0,0 mm 0,0 km/h (0 Bft) NO 52 ° 0 min 0,000 mm 0,0 UV-I 0 W/m² 13,8 °C 14,8 °C 0,0 km/h (0 Bft)
07.06.2018 22:04 14,8 °C 94 % 1011,5 hPa 0,0 mm 0,0 km/h (0 Bft) NO 52 ° 0 min 0,000 mm 0,0 UV-I 0 W/m² 13,8 °C 14,8 °C 0,0 km/h (0 Bft)
07.06.2018 22:05 14,8 °C 94 % 1011,5 hPa 0,0 mm 0,0 km/h (0 Bft) NO 52 ° 0 min 0,000 mm 0,0 UV-I 0 W/m² 13,8 °C 14,8 °C 0,0 km/h (0 Bft)
07.06.2018 22:06 14,8 °C 94 % 1011,5 hPa 0,0 mm 0,0 km/h (0 Bft) NO 52 ° 0 min 0,000 mm 0,0 UV-I 0 W/m² 13,8 °C 14,8 °C 0,0 km/h (0 Bft)
07.06.2018 22:07 14,8 °C 94 % 1011,4 hPa 0,0 mm 0,0 km/h (0 Bft) NO 52 ° 0 min 0,000 mm 0,0 UV-I 0 W/m² 13,8 °C 14,8 °C 0,0 km/h (0 Bft)
07.06.2018 22:08 14,9 °C 94 % 1011,4 hPa 0,0 mm 0,0 km/h (0 Bft) NO 52 ° 0 min 0,000 mm 0,0 UV-I 0 W/m² 13,9 °C 14,9 °C 0,0 km/h (0 Bft)
07.06.2018 22:09 14,9 °C 94 % 1011,4 hPa 0,0 mm 0,0 km/h (0 Bft) NO 52 ° 0 min 0,000 mm 0,0 UV-I 0 W/m² 13,9 °C 14,9 °C 0,0 km/h (0 Bft)
07.06.2018 22:10 14,9 °C 94 % 1011,4 hPa 0,0 mm 0,0 km/h (0 Bft) NO 52 ° 0 min 0,000 mm 0,0 UV-I 0 W/m² 13,9 °C 14,9 °C 0,0 km/h (0 Bft)
07.06.2018 22:11 15,0 °C 95 % 1011,4 hPa 0,0 mm 1,3 km/h (1 Bft) NO 52 ° 0 min 0,000 mm 0,0 UV-I 0 W/m² 14,2 °C 15,0 °C 1,6 km/h (1 Bft)
07.06.2018 22:12 14,9 °C 94 % 1011,4 hPa 0,0 mm 0,3 km/h (0 Bft) NO 52 ° 0 min 0,000 mm 0,0 UV-I 0 W/m² 13,9 °C 14,9 °C 1,6 km/h (1 Bft)
07.06.2018 22:13 14,9 °C 94 % 1011,4 hPa 0,0 mm 0,0 km/h (0 Bft) NO 52 ° 0 min 0,000 mm 0,0 UV-I 0 W/m² 13,9 °C 14,9 °C 0,0 km/h (0 Bft)
07.06.2018 22:14 14,9 °C 94 % 1011,4 hPa 0,0 mm 0,0 km/h (0 Bft) NO 52 ° 0 min 0,000 mm 0,0 UV-I 0 W/m² 13,9 °C 14,9 °C 0,0 km/h (0 Bft)
07.06.2018 22:15 14,9 °C 94 % 1011,4 hPa 0,0 mm 0,0 km/h (0 Bft) NO 52 ° 0 min 0,000 mm 0,0 UV-I 0 W/m² 13,9 °C 14,9 °C 0,0 km/h (0 Bft)
07.06.2018 22:16 15,0 °C 95 % 1011,4 hPa 0,0 mm 0,0 km/h (0 Bft) NO 52 ° 0 min 0,000 mm 0,0 UV-I 0 W/m² 14,2 °C 15,0 °C 0,0 km/h (0 Bft)
07.06.2018 22:17 15,0 °C 94 % 1011,4 hPa 0,0 mm 0,0 km/h (0 Bft) NO 52 ° 0 min 0,000 mm 0,0 UV-I 0 W/m² 14,0 °C 15,0 °C 0,0 km/h (0 Bft)
07.06.2018 22:18 14,9 °C 94 % 1011,4 hPa 0,0 mm 0,0 km/h (0 Bft) NO 52 ° 0 min 0,000 mm 0,0 UV-I 0 W/m² 13,9 °C 14,9 °C 0,0 km/h (0 Bft)
07.06.2018 22:19 14,9 °C 94 % 1011,4 hPa 0,0 mm 0,0 km/h (0 Bft) NO 52 ° 0 min 0,000 mm 0,0 UV-I 0 W/m² 13,9 °C 14,9 °C 0,0 km/h (0 Bft)
07.06.2018 22:20 14,9 °C 94 % 1011,4 hPa 0,0 mm 0,0 km/h (0 Bft) NO 52 ° 0 min 0,000 mm 0,0 UV-I 0 W/m² 13,9 °C 14,9 °C 0,0 km/h (0 Bft)
07.06.2018 22:21 14,8 °C 94 % 1011,4 hPa 0,0 mm 0,0 km/h (0 Bft) NO 52 ° 0 min 0,000 mm 0,0 UV-I 0 W/m² 13,8 °C 14,8 °C 0,0 km/h (0 Bft)
07.06.2018 22:22 14,8 °C 94 % 1011,4 hPa 0,0 mm 0,0 km/h (0 Bft) NO 52 ° 0 min 0,000 mm 0,0 UV-I 0 W/m² 13,8 °C 14,8 °C 0,0 km/h (0 Bft)
07.06.2018 22:23 14,7 °C 94 % 1011,4 hPa 0,0 mm 0,0 km/h (0 Bft) NO 52 ° 0 min 0,000 mm 0,0 UV-I 0 W/m² 13,7 °C 14,7 °C 0,0 km/h (0 Bft)
07.06.2018 22:24 14,7 °C 94 % 1011,4 hPa 0,0 mm 0,0 km/h (0 Bft) NO 52 ° 0 min 0,000 mm 0,0 UV-I 0 W/m² 13,7 °C 14,7 °C 0,0 km/h (0 Bft)
07.06.2018 22:25 14,8 °C 94 % 1011,4 hPa 0,0 mm 0,0 km/h (0 Bft) NO 52 ° 0 min 0,000 mm 0,0 UV-I 0 W/m² 13,8 °C 14,8 °C 0,0 km/h (0 Bft)
07.06.2018 22:26 14,7 °C 94 % 1011,4 hPa 0,0 mm 0,0 km/h (0 Bft) NO 52 ° 0 min 0,000 mm 0,0 UV-I 0 W/m² 13,7 °C 14,7 °C 0,0 km/h (0 Bft)
07.06.2018 22:27 14,7 °C 94 % 1011,4 hPa 0,0 mm 0,0 km/h (0 Bft) NO 52 ° 0 min 0,000 mm 0,0 UV-I 0 W/m² 13,7 °C 14,7 °C 0,0 km/h (0 Bft)
07.06.2018 22:28 14,8 °C 94 % 1011,4 hPa 0,0 mm 0,0 km/h (0 Bft) NO 52 ° 0 min 0,000 mm 0,0 UV-I 0 W/m² 13,8 °C 14,8 °C 0,0 km/h (0 Bft)
07.06.2018 22:29 14,8 °C 94 % 1011,4 hPa 0,0 mm 0,0 km/h (0 Bft) NO 52 ° 0 min 0,000 mm 0,0 UV-I 0 W/m² 13,8 °C 14,8 °C 0,0 km/h (0 Bft)
07.06.2018 22:30 14,8 °C 94 % 1011,4 hPa 0,0 mm 0,0 km/h (0 Bft) NO 52 ° 0 min 0,000 mm 0,0 UV-I 0 W/m² 13,8 °C 14,8 °C 0,0 km/h (0 Bft)
07.06.2018 22:31 14,7 °C 94 % 1011,4 hPa 0,0 mm 0,2 km/h (0 Bft) NO 52 ° 0 min 0,000 mm 0,0 UV-I 0 W/m² 13,7 °C 14,7 °C 1,6 km/h (1 Bft)
07.06.2018 22:32 14,7 °C 94 % 1011,3 hPa 0,0 mm 0,0 km/h (0 Bft) NO 52 ° 0 min 0,000 mm 0,0 UV-I 0 W/m² 13,7 °C 14,7 °C 0,0 km/h (0 Bft)
07.06.2018 22:33 14,7 °C 94 % 1011,4 hPa 0,0 mm 0,0 km/h (0 Bft) NO 52 ° 0 min 0,000 mm 0,0 UV-I 0 W/m² 13,7 °C 14,7 °C 0,0 km/h (0 Bft)
07.06.2018 22:34 14,7 °C 94 % 1011,4 hPa 0,0 mm 0,0 km/h (0 Bft) NO 52 ° 0 min 0,000 mm 0,0 UV-I 0 W/m² 13,7 °C 14,7 °C 0,0 km/h (0 Bft)
07.06.2018 22:35 14,6 °C 94 % 1011,4 hPa 0,0 mm 0,0 km/h (0 Bft) NO 52 ° 0 min 0,000 mm 0,0 UV-I 0 W/m² 13,6 °C 14,6 °C 0,0 km/h (0 Bft)
07.06.2018 22:36 14,6 °C 94 % 1011,4 hPa 0,0 mm 0,0 km/h (0 Bft) NO 52 ° 0 min 0,000 mm 0,0 UV-I 0 W/m² 13,6 °C 14,6 °C 0,0 km/h (0 Bft)
07.06.2018 22:37 14,6 °C 94 % 1011,5 hPa 0,0 mm 0,0 km/h (0 Bft) NO 52 ° 0 min 0,000 mm 0,0 UV-I 0 W/m² 13,6 °C 14,6 °C 0,0 km/h (0 Bft)
07.06.2018 22:38 14,6 °C 94 % 1011,4 hPa 0,0 mm 0,0 km/h (0 Bft) NO 52 ° 0 min 0,000 mm 0,0 UV-I 0 W/m² 13,6 °C 14,6 °C 0,0 km/h (0 Bft)
07.06.2018 22:39 14,6 °C 94 % 1011,4 hPa 0,0 mm 0,0 km/h (0 Bft) NO 52 ° 0 min 0,000 mm 0,0 UV-I 0 W/m² 13,6 °C 14,6 °C 0,0 km/h (0 Bft)
07.06.2018 22:40 14,7 °C 95 % 1011,4 hPa 0,0 mm 0,0 km/h (0 Bft) NO 52 ° 0 min 0,000 mm 0,0 UV-I 0 W/m² 13,9 °C 14,7 °C 0,0 km/h (0 Bft)
07.06.2018 22:41 14,7 °C 95 % 1011,3 hPa 0,0 mm 0,7 km/h (0 Bft) NO 52 ° 0 min 0,000 mm 0,0 UV-I 0 W/m² 13,9 °C 14,7 °C 1,6 km/h (1 Bft)
07.06.2018 22:42 14,7 °C 95 % 1011,3 hPa 0,0 mm 1,3 km/h (1 Bft) NO 52 ° 0 min 0,000 mm 0,0 UV-I 0 W/m² 13,9 °C 14,7 °C 1,6 km/h (1 Bft)
07.06.2018 22:43 14,6 °C 95 % 1011,3 hPa 0,0 mm 1,9 km/h (1 Bft) NO 52 ° 0 min 0,000 mm 0,0 UV-I 0 W/m² 13,8 °C 14,6 °C 3,2 km/h (1 Bft)
07.06.2018 22:44 14,7 °C 95 % 1011,2 hPa 0,0 mm 1,3 km/h (1 Bft) NO 52 ° 0 min 0,000 mm 0,0 UV-I 0 W/m² 13,9 °C 14,7 °C 3,2 km/h (1 Bft)
07.06.2018 22:45 14,7 °C 95 % 1011,2 hPa 0,0 mm 1,4 km/h (1 Bft) NO 52 ° 0 min 0,000 mm 0,0 UV-I 0 W/m² 13,9 °C 14,7 °C 1,6 km/h (1 Bft)
07.06.2018 22:46 14,6 °C 95 % 1011,2 hPa 0,0 mm 1,0 km/h (0 Bft) NO 52 ° 0 min 0,000 mm 0,0 UV-I 0 W/m² 13,8 °C 14,6 °C 1,6 km/h (1 Bft)
07.06.2018 22:47 14,6 °C 95 % 1011,2 hPa 0,0 mm 0,3 km/h (0 Bft) NO 52 ° 0 min 0,000 mm 0,0 UV-I 0 W/m² 13,8 °C 14,6 °C 1,6 km/h (1 Bft)
07.06.2018 22:48 14,6 °C 95 % 1011,2 hPa 0,0 mm 0,0 km/h (0 Bft) NO 52 ° 0 min 0,000 mm 0,0 UV-I 0 W/m² 13,8 °C 14,6 °C 0,0 km/h (0 Bft)
07.06.2018 22:49 14,4 °C 94 % 1011,2 hPa 0,0 mm 0,0 km/h (0 Bft) NO 52 ° 0 min 0,000 mm 0,0 UV-I 0 W/m² 13,4 °C 14,4 °C 0,0 km/h (0 Bft)
07.06.2018 22:50 14,3 °C 94 % 1011,3 hPa 0,0 mm 0,0 km/h (0 Bft) NO 52 ° 0 min 0,000 mm 0,0 UV-I 0 W/m² 13,3 °C 14,3 °C 0,0 km/h (0 Bft)
07.06.2018 22:51 14,2 °C 94 % 1011,2 hPa 0,0 mm 0,0 km/h (0 Bft) NO 52 ° 0 min 0,000 mm 0,0 UV-I 0 W/m² 13,2 °C 14,2 °C 0,0 km/h (0 Bft)
07.06.2018 22:52 14,2 °C 94 % 1011,2 hPa 0,0 mm 0,0 km/h (0 Bft) NO 52 ° 0 min 0,000 mm 0,0 UV-I 0 W/m² 13,2 °C 14,2 °C 0,0 km/h (0 Bft)
07.06.2018 22:53 14,2 °C 94 % 1011,2 hPa 0,0 mm 0,0 km/h (0 Bft) NO 52 ° 0 min 0,000 mm 0,0 UV-I 0 W/m² 13,2 °C 14,2 °C 0,0 km/h (0 Bft)
07.06.2018 22:54 14,1 °C 94 % 1011,2 hPa 0,0 mm 0,0 km/h (0 Bft) NO 52 ° 0 min 0,000 mm 0,0 UV-I 0 W/m² 13,1 °C 14,1 °C 0,0 km/h (0 Bft)
07.06.2018 22:55 14,2 °C 94 % 1011,2 hPa 0,0 mm 0,0 km/h (0 Bft) NO 52 ° 0 min 0,000 mm 0,0 UV-I 0 W/m² 13,2 °C 14,2 °C 0,0 km/h (0 Bft)
07.06.2018 22:56 14,2 °C 94 % 1011,1 hPa 0,0 mm 0,0 km/h (0 Bft) NO 52 ° 0 min 0,000 mm 0,0 UV-I 0 W/m² 13,2 °C 14,2 °C 0,0 km/h (0 Bft)
07.06.2018 22:57 14,1 °C 94 % 1011,1 hPa 0,0 mm 0,0 km/h (0 Bft) NO 52 ° 0 min 0,000 mm 0,0 UV-I 0 W/m² 13,1 °C 14,1 °C 0,0 km/h (0 Bft)
07.06.2018 22:58 14,1 °C 94 % 1011,1 hPa 0,0 mm 0,0 km/h (0 Bft) NO 52 ° 0 min 0,000 mm 0,0 UV-I 0 W/m² 13,1 °C 14,1 °C 0,0 km/h (0 Bft)
07.06.2018 22:59 14,1 °C 94 % 1011,1 hPa 0,0 mm 0,0 km/h (0 Bft) NO 52 ° 0 min 0,000 mm 0,0 UV-I 0 W/m² 13,1 °C 14,1 °C 0,0 km/h (0 Bft)
07.06.2018 23:00 14,1 °C 94 % 1011,1 hPa 0,0 mm 0,1 km/h (0 Bft) NO 52 ° 0 min 0,000 mm 0,0 UV-I 0 W/m² 13,1 °C 14,1 °C 1,6 km/h (1 Bft)
07.06.2018 23:01 14,1 °C 94 % 1011,1 hPa 0,0 mm 0,1 km/h (0 Bft) NO 52 ° 0 min 0,000 mm 0,0 UV-I 0 W/m² 13,1 °C 14,1 °C 1,6 km/h (1 Bft)
07.06.2018 23:02 14,0 °C 94 % 1011,1 hPa 0,0 mm 0,0 km/h (0 Bft) NO 52 ° 0 min 0,000 mm 0,0 UV-I 0 W/m² 13,0 °C 14,0 °C 0,0 km/h (0 Bft)
07.06.2018 23:03 14,0 °C 94 % 1011,1 hPa 0,0 mm 0,0 km/h (0 Bft) NO 52 ° 0 min 0,000 mm 0,0 UV-I 0 W/m² 13,0 °C 14,0 °C 0,0 km/h (0 Bft)
07.06.2018 23:04 13,9 °C 94 % 1011,1 hPa 0,0 mm 0,0 km/h (0 Bft) NO 52 ° 0 min 0,000 mm 0,0 UV-I 0 W/m² 12,9 °C 13,9 °C 0,0 km/h (0 Bft)
07.06.2018 23:05 13,9 °C 94 % 1011,2 hPa 0,0 mm 0,0 km/h (0 Bft) NO 52 ° 0 min 0,000 mm 0,0 UV-I 0 W/m² 12,9 °C 13,9 °C 0,0 km/h (0 Bft)
07.06.2018 23:06 13,8 °C 94 % 1011,2 hPa 0,0 mm 0,0 km/h (0 Bft) NO 52 ° 0 min 0,000 mm 0,0 UV-I 0 W/m² 12,9 °C 13,8 °C 0,0 km/h (0 Bft)
07.06.2018 23:07 13,8 °C 94 % 1011,2 hPa 0,0 mm 0,0 km/h (0 Bft) NO 52 ° 0 min 0,000 mm 0,0 UV-I 0 W/m² 12,9 °C 13,8 °C 0,0 km/h (0 Bft)
07.06.2018 23:08 13,8 °C 94 % 1011,1 hPa 0,0 mm 0,1 km/h (0 Bft) NO 52 ° 0 min 0,000 mm 0,0 UV-I 0 W/m² 12,9 °C 13,8 °C 1,6 km/h (1 Bft)
07.06.2018 23:09 13,7 °C 94 % 1011,2 hPa 0,0 mm 0,5 km/h (0 Bft) NO 52 ° 0 min 0,000 mm 0,0 UV-I 0 W/m² 12,8 °C 13,7 °C 1,6 km/h (1 Bft)
07.06.2018 23:10 13,7 °C 94 % 1011,2 hPa 0,0 mm 0,0 km/h (0 Bft) NO 52 ° 0 min 0,000 mm 0,0 UV-I 0 W/m² 12,8 °C 13,7 °C 0,0 km/h (0 Bft)
07.06.2018 23:11 13,7 °C 94 % 1011,1 hPa 0,0 mm 0,0 km/h (0 Bft) NO 52 ° 0 min 0,000 mm 0,0 UV-I 0 W/m² 12,8 °C 13,7 °C 0,0 km/h (0 Bft)
07.06.2018 23:12 13,7 °C 94 % 1011,2 hPa 0,0 mm 0,0 km/h (0 Bft) NO 52 ° 0 min 0,000 mm 0,0 UV-I 0 W/m² 12,8 °C 13,7 °C 0,0 km/h (0 Bft)
07.06.2018 23:13 13,7 °C 94 % 1011,1 hPa 0,0 mm 0,0 km/h (0 Bft) NO 52 ° 0 min 0,000 mm 0,0 UV-I 0 W/m² 12,8 °C 13,7 °C 0,0 km/h (0 Bft)
07.06.2018 23:14 13,6 °C 94 % 1011,2 hPa 0,0 mm 0,0 km/h (0 Bft) NO 52 ° 0 min 0,000 mm 0,0 UV-I 0 W/m² 12,7 °C 13,6 °C 0,0 km/h (0 Bft)
07.06.2018 23:15 13,6 °C 94 % 1011,1 hPa 0,0 mm 0,0 km/h (0 Bft) NO 52 ° 0 min 0,000 mm 0,0 UV-I 0 W/m² 12,7 °C 13,6 °C 0,0 km/h (0 Bft)
07.06.2018 23:16 13,5 °C 94 % 1011,2 hPa 0,0 mm 0,0 km/h (0 Bft) NO 52 ° 0 min 0,000 mm 0,0 UV-I 0 W/m² 12,6 °C 13,5 °C 0,0 km/h (0 Bft)
07.06.2018 23:17 13,5 °C 94 % 1011,2 hPa 0,0 mm 0,0 km/h (0 Bft) NO 52 ° 0 min 0,000 mm 0,0 UV-I 0 W/m² 12,6 °C 13,5 °C 0,0 km/h (0 Bft)
07.06.2018 23:18 13,5 °C 94 % 1011,2 hPa 0,0 mm 0,0 km/h (0 Bft) NO 52 ° 0 min 0,000 mm 0,0 UV-I 0 W/m² 12,6 °C 13,5 °C 0,0 km/h (0 Bft)
07.06.2018 23:19 13,6 °C 95 % 1011,2 hPa 0,0 mm 0,0 km/h (0 Bft) NO 52 ° 0 min 0,000 mm 0,0 UV-I 0 W/m² 12,8 °C 13,6 °C 0,0 km/h (0 Bft)
07.06.2018 23:20 13,6 °C 95 % 1011,2 hPa 0,0 mm 0,0 km/h (0 Bft) NO 52 ° 0 min 0,000 mm 0,0 UV-I 0 W/m² 12,8 °C 13,6 °C 0,0 km/h (0 Bft)
07.06.2018 23:21 13,6 °C 95 % 1011,2 hPa 0,0 mm 0,0 km/h (0 Bft) NO 52 ° 0 min 0,000 mm 0,0 UV-I 0 W/m² 12,8 °C 13,6 °C 0,0 km/h (0 Bft)
07.06.2018 23:22 13,6 °C 95 % 1011,2 hPa 0,0 mm 0,0 km/h (0 Bft) NO 52 ° 0 min 0,000 mm 0,0 UV-I 0 W/m² 12,8 °C 13,6 °C 0,0 km/h (0 Bft)
07.06.2018 23:23 13,6 °C 95 % 1011,2 hPa 0,0 mm 0,0 km/h (0 Bft) NO 52 ° 0 min 0,000 mm 0,0 UV-I 0 W/m² 12,8 °C 13,6 °C 0,0 km/h (0 Bft)
07.06.2018 23:24 13,6 °C 95 % 1011,2 hPa 0,0 mm 0,0 km/h (0 Bft) NO 52 ° 0 min 0,000 mm 0,0 UV-I 0 W/m² 12,8 °C 13,6 °C 0,0 km/h (0 Bft)
07.06.2018 23:25 13,6 °C 95 % 1011,2 hPa 0,0 mm 0,0 km/h (0 Bft) NO 52 ° 0 min 0,000 mm 0,0 UV-I 0 W/m² 12,8 °C 13,6 °C 0,0 km/h (0 Bft)
07.06.2018 23:26 13,6 °C 95 % 1011,2 hPa 0,0 mm 0,0 km/h (0 Bft) NO 52 ° 0 min 0,000 mm 0,0 UV-I 0 W/m² 12,8 °C 13,6 °C 0,0 km/h (0 Bft)
07.06.2018 23:27 13,6 °C 95 % 1011,2 hPa 0,0 mm 0,0 km/h (0 Bft) NO 52 ° 0 min 0,000 mm 0,0 UV-I 0 W/m² 12,8 °C 13,6 °C 0,0 km/h (0 Bft)
07.06.2018 23:28 13,6 °C 95 % 1011,2 hPa 0,0 mm 0,0 km/h (0 Bft) NO 52 ° 0 min 0,000 mm 0,0 UV-I 0 W/m² 12,8 °C 13,6 °C 0,0 km/h (0 Bft)
07.06.2018 23:29 13,6 °C 95 % 1011,2 hPa 0,0 mm 0,0 km/h (0 Bft) NO 52 ° 0 min 0,000 mm 0,0 UV-I 0 W/m² 12,8 °C 13,6 °C 0,0 km/h (0 Bft)
07.06.2018 23:30 13,6 °C 95 % 1011,2 hPa 0,0 mm 0,0 km/h (0 Bft) NO 52 ° 0 min 0,000 mm 0,0 UV-I 0 W/m² 12,8 °C 13,6 °C 0,0 km/h (0 Bft)
07.06.2018 23:31 13,6 °C 95 % 1011,2 hPa 0,0 mm 0,0 km/h (0 Bft) NO 52 ° 0 min 0,000 mm 0,0 UV-I 0 W/m² 12,8 °C 13,6 °C 0,0 km/h (0 Bft)
07.06.2018 23:32 13,6 °C 95 % 1011,2 hPa 0,0 mm 0,0 km/h (0 Bft) NO 52 ° 0 min 0,000 mm 0,0 UV-I 0 W/m² 12,8 °C 13,6 °C 0,0 km/h (0 Bft)
07.06.2018 23:33 13,6 °C 95 % 1011,2 hPa 0,0 mm 0,0 km/h (0 Bft) NO 52 ° 0 min 0,000 mm 0,0 UV-I 0 W/m² 12,8 °C 13,6 °C 0,0 km/h (0 Bft)
07.06.2018 23:34 13,7 °C 95 % 1011,3 hPa 0,0 mm 0,0 km/h (0 Bft) NO 52 ° 0 min 0,000 mm 0,0 UV-I 0 W/m² 12,9 °C 13,7 °C 0,0 km/h (0 Bft)
07.06.2018 23:35 13,7 °C 95 % 1011,3 hPa 0,0 mm 0,0 km/h (0 Bft) NO 52 ° 0 min 0,000 mm 0,0 UV-I 0 W/m² 12,9 °C 13,7 °C 0,0 km/h (0 Bft)
07.06.2018 23:36 13,7 °C 95 % 1011,3 hPa 0,0 mm 0,0 km/h (0 Bft) NO 52 ° 0 min 0,000 mm 0,0 UV-I 0 W/m² 12,9 °C 13,7 °C 0,0 km/h (0 Bft)
07.06.2018 23:37 13,7 °C 95 % 1011,4 hPa 0,0 mm 0,0 km/h (0 Bft) NO 52 ° 0 min 0,000 mm 0,0 UV-I 0 W/m² 12,9 °C 13,7 °C 0,0 km/h (0 Bft)
07.06.2018 23:38 13,7 °C 95 % 1011,4 hPa 0,0 mm 0,0 km/h (0 Bft) NO 52 ° 0 min 0,000 mm 0,0 UV-I 0 W/m² 12,9 °C 13,7 °C 0,0 km/h (0 Bft)
07.06.2018 23:39 13,8 °C 95 % 1011,4 hPa 0,0 mm 0,0 km/h (0 Bft) NO 52 ° 0 min 0,000 mm 0,0 UV-I 0 W/m² 13,0 °C 13,8 °C 0,0 km/h (0 Bft)
07.06.2018 23:40 13,8 °C 95 % 1011,3 hPa 0,0 mm 0,0 km/h (0 Bft) NO 52 ° 0 min 0,000 mm 0,0 UV-I 0 W/m² 13,0 °C 13,8 °C 0,0 km/h (0 Bft)
07.06.2018 23:41 13,8 °C 95 % 1011,4 hPa 0,0 mm 0,0 km/h (0 Bft) NO 52 ° 0 min 0,000 mm 0,0 UV-I 0 W/m² 13,0 °C 13,8 °C 0,0 km/h (0 Bft)
07.06.2018 23:42 13,8 °C 95 % 1011,4 hPa 0,0 mm 0,0 km/h (0 Bft) NO 52 ° 0 min 0,000 mm 0,0 UV-I 0 W/m² 13,0 °C 13,8 °C 0,0 km/h (0 Bft)
07.06.2018 23:43 13,8 °C 95 % 1011,4 hPa 0,0 mm 0,0 km/h (0 Bft) NO 52 ° 0 min 0,000 mm 0,0 UV-I 0 W/m² 13,0 °C 13,8 °C 0,0 km/h (0 Bft)
07.06.2018 23:44 13,8 °C 95 % 1011,4 hPa 0,0 mm 0,0 km/h (0 Bft) NO 52 ° 0 min 0,000 mm 0,0 UV-I 0 W/m² 13,0 °C 13,8 °C 0,0 km/h (0 Bft)
07.06.2018 23:45 13,8 °C 95 % 1011,4 hPa 0,0 mm 0,0 km/h (0 Bft) NO 52 ° 0 min 0,000 mm 0,0 UV-I 0 W/m² 13,0 °C 13,8 °C 0,0 km/h (0 Bft)
07.06.2018 23:46 13,8 °C 95 % 1011,4 hPa 0,0 mm 0,0 km/h (0 Bft) NO 52 ° 0 min 0,000 mm 0,0 UV-I 0 W/m² 13,0 °C 13,8 °C 0,0 km/h (0 Bft)
07.06.2018 23:47 13,8 °C 95 % 1011,4 hPa 0,0 mm 0,0 km/h (0 Bft) NO 52 ° 0 min 0,000 mm 0,0 UV-I 0 W/m² 13,0 °C 13,8 °C 0,0 km/h (0 Bft)
07.06.2018 23:48 13,8 °C 95 % 1011,4 hPa 0,0 mm 0,0 km/h (0 Bft) NO 52 ° 0 min 0,000 mm 0,0 UV-I 0 W/m² 13,0 °C 13,8 °C 0,0 km/h (0 Bft)
07.06.2018 23:49 13,8 °C 95 % 1011,4 hPa 0,0 mm 0,0 km/h (0 Bft) NO 52 ° 0 min 0,000 mm 0,0 UV-I 0 W/m² 13,0 °C 13,8 °C 0,0 km/h (0 Bft)
07.06.2018 23:50 13,8 °C 95 % 1011,4 hPa 0,0 mm 0,0 km/h (0 Bft) NO 52 ° 0 min 0,000 mm 0,0 UV-I 0 W/m² 13,0 °C 13,8 °C 0,0 km/h (0 Bft)
07.06.2018 23:51 13,8 °C 95 % 1011,4 hPa 0,0 mm 0,0 km/h (0 Bft) NO 52 ° 0 min 0,000 mm 0,0 UV-I 0 W/m² 13,0 °C 13,8 °C 0,0 km/h (0 Bft)
07.06.2018 23:52 13,8 °C 95 % 1011,5 hPa 0,0 mm 0,0 km/h (0 Bft) NO 52 ° 0 min 0,000 mm 0,0 UV-I 0 W/m² 13,0 °C 13,8 °C 0,0 km/h (0 Bft)
07.06.2018 23:53 13,8 °C 95 % 1011,4 hPa 0,0 mm 0,0 km/h (0 Bft) NO 52 ° 0 min 0,000 mm 0,0 UV-I 0 W/m² 13,0 °C 13,8 °C 0,0 km/h (0 Bft)
07.06.2018 23:54 13,9 °C 95 % 1011,5 hPa 0,0 mm 0,0 km/h (0 Bft) NO 52 ° 0 min 0,000 mm 0,0 UV-I 0 W/m² 13,1 °C 13,9 °C 0,0 km/h (0 Bft)
07.06.2018 23:55 13,9 °C 95 % 1011,5 hPa 0,0 mm 0,0 km/h (0 Bft) NO 52 ° 0 min 0,000 mm 0,0 UV-I 0 W/m² 13,1 °C 13,9 °C 0,0 km/h (0 Bft)
07.06.2018 23:56 13,9 °C 95 % 1011,5 hPa 0,0 mm 0,0 km/h (0 Bft) NO 52 ° 0 min 0,000 mm 0,0 UV-I 0 W/m² 13,1 °C 13,9 °C 0,0 km/h (0 Bft)
07.06.2018 23:57 13,9 °C 95 % 1011,4 hPa 0,0 mm 0,0 km/h (0 Bft) NO 52 ° 0 min 0,000 mm 0,0 UV-I 0 W/m² 13,1 °C 13,9 °C 0,0 km/h (0 Bft)
07.06.2018 23:58 14,0 °C 95 % 1011,5 hPa 0,0 mm 0,0 km/h (0 Bft) NO 52 ° 0 min 0,000 mm 0,0 UV-I 0 W/m² 13,2 °C 14,0 °C 0,0 km/h (0 Bft)
07.06.2018 23:59 14,0 °C 95 % 1011,5 hPa 0,0 mm 0,0 km/h (0 Bft) NO 52 ° 0 min 0,000 mm 0,0 UV-I 0 W/m² 13,2 °C 14,0 °C 0,0 km/h (0 Bft)
_ Min-Zeit 03:30 13:45 02:26 - 23:59 - - - - - - 03:30 03:30 23:59
Minimum _ 12,3 °C 65 % 1010,7 hPa - 0,0 km/h (0 Bft) - - - - - - 11,2 °C 12,3 °C 0,0 km/h (0 Bft)
_ Max-Zeit 12:59 23:59 12:02 16:35 10:03 - - 13:20 13:01 13:42 12:51 12:42 12:59 10:17
Maximum _ 22,2 °C 95 % 1013,4 hPa 0,2 mm 13,2 km/h
W-NW (3 Bft)
- - 1 min 0,356 mm 8,1 UV-I 1118 W/m² 17,2 °C 22,2 °C 19,3 km/h
W-NW (3 Bft)
Durchschnitt _ 16,6 °C 87 % 1012,2 hPa #2,6 mm 2,0 km/h (1 Bft) W-NW - #39 min. #1,981 mm 2,4 UV-I 134 W/m² 14,3 °C 16,6 °C 3,7 km/h (1 Bft)